<?xml version="1.0" encoding="UTF-8" standalone="no" ?>
<gpx xmlns="http://www.topografix.com/GPX/1/1" xmlns:xsi="http://www.w3.org/2001/XMLSchema-instance" xsi:schemaLocation="http://www.topografix.com/GPX/1/1 http://www.topografix.com/GPX/1/1/gpx.xsd" version="1.1" creator="VisuGPX - https://www.visugpx.com">
  <metadata>
    <name>Fay aux Loges (45) Canal &amp; forêt d\'Orléans</name>
    <desc><![CDATA[Très belle randonnée sans difficulté majeure.]]></desc>
  </metadata>
  <wpt lat="48.39766" lon="2.79195">
    <ele>46.4</ele>
    <name><![CDATA[012]]></name>
    <desc><![CDATA[30-AVR-12 21:14:24]]></desc>
    <cmt><![CDATA[30-AVR-12 21:14:24]]></cmt>
  </wpt>
  <wpt lat="47.92934" lon="2.13875">
    <ele>101.5441895</ele>
    <name><![CDATA[013]]></name>
    <desc><![CDATA[01-MAI-12 11:23:15]]></desc>
    <cmt><![CDATA[01-MAI-12 11:23:15]]></cmt>
  </wpt>
  <wpt lat="47.92934" lon="2.13875">
    <ele>101.5441895</ele>
    <name><![CDATA[014]]></name>
    <desc><![CDATA[01-MAI-12 11:23:23]]></desc>
    <cmt><![CDATA[01-MAI-12 11:23:23]]></cmt>
  </wpt>
  <wpt lat="47.92931" lon="2.13876">
    <ele>91.9310303</ele>
    <name><![CDATA[015]]></name>
    <desc><![CDATA[01-MAI-12 18:12:22]]></desc>
    <cmt><![CDATA[01-MAI-12 18:12:22]]></cmt>
  </wpt>
  <trk>
    <name><![CDATA[ACTIVE LOG 005]]></name>
    <trkseg>
      <trkpt lat="47.92919" lon="2.13888">
        <ele>122.7054443</ele>
        <time>2012-05-01T09:10:05Z</time>
      </trkpt>
      <trkpt lat="47.92926" lon="2.1387">
        <ele>101.0756836</ele>
        <time>2012-05-01T09:17:02Z</time>
      </trkpt>
      <trkpt lat="47.92927" lon="2.1387">
        <ele>100.114502</ele>
        <time>2012-05-01T09:17:41Z</time>
      </trkpt>
      <trkpt lat="47.92927" lon="2.13869">
        <ele>101.0756836</ele>
        <time>2012-05-01T09:18:33Z</time>
      </trkpt>
      <trkpt lat="47.92927" lon="2.13869">
        <ele>97.7111816</ele>
        <time>2012-05-01T09:19:11Z</time>
      </trkpt>
      <trkpt lat="47.92927" lon="2.13869">
        <ele>98.1918945</ele>
        <time>2012-05-01T09:19:54Z</time>
      </trkpt>
      <trkpt lat="47.92927" lon="2.13868">
        <ele>98.1918945</ele>
        <time>2012-05-01T09:19:55Z</time>
      </trkpt>
      <trkpt lat="47.92924" lon="2.13869">
        <ele>99.6337891</ele>
        <time>2012-05-01T09:20:03Z</time>
      </trkpt>
      <trkpt lat="47.92928" lon="2.1387">
        <ele>101.0756836</ele>
        <time>2012-05-01T09:20:15Z</time>
      </trkpt>
      <trkpt lat="47.92929" lon="2.13871">
        <ele>100.114502</ele>
        <time>2012-05-01T09:20:46Z</time>
      </trkpt>
      <trkpt lat="47.92931" lon="2.13874">
        <ele>101.0756836</ele>
        <time>2012-05-01T09:21:06Z</time>
      </trkpt>
      <trkpt lat="47.92933" lon="2.13874">
        <ele>101.5563965</ele>
        <time>2012-05-01T09:21:18Z</time>
      </trkpt>
      <trkpt lat="47.92933" lon="2.13875">
        <ele>101.5563965</ele>
        <time>2012-05-01T09:21:56Z</time>
      </trkpt>
      <trkpt lat="47.92936" lon="2.13877">
        <ele>101.0756836</ele>
        <time>2012-05-01T09:23:55Z</time>
      </trkpt>
      <trkpt lat="47.92938" lon="2.1388">
        <ele>99.6337891</ele>
        <time>2012-05-01T09:24:55Z</time>
      </trkpt>
      <trkpt lat="47.92938" lon="2.13882">
        <ele>98.6724854</ele>
        <time>2012-05-01T09:25:08Z</time>
      </trkpt>
      <trkpt lat="47.92953" lon="2.13888">
        <ele>96.2692871</ele>
        <time>2012-05-01T09:25:20Z</time>
      </trkpt>
      <trkpt lat="47.92966" lon="2.13893">
        <ele>94.3465576</ele>
        <time>2012-05-01T09:25:30Z</time>
      </trkpt>
      <trkpt lat="47.92971" lon="2.13902">
        <ele>95.3077393</ele>
        <time>2012-05-01T09:25:35Z</time>
      </trkpt>
      <trkpt lat="47.92972" lon="2.13907">
        <ele>95.3077393</ele>
        <time>2012-05-01T09:25:38Z</time>
      </trkpt>
      <trkpt lat="47.92984" lon="2.13922">
        <ele>97.2304688</ele>
        <time>2012-05-01T09:25:51Z</time>
      </trkpt>
      <trkpt lat="47.92989" lon="2.13932">
        <ele>98.1918945</ele>
        <time>2012-05-01T09:26:02Z</time>
      </trkpt>
      <trkpt lat="47.9299" lon="2.13934">
        <ele>97.7111816</ele>
        <time>2012-05-01T09:26:40Z</time>
      </trkpt>
      <trkpt lat="47.92998" lon="2.13942">
        <ele>97.2304688</ele>
        <time>2012-05-01T09:26:50Z</time>
      </trkpt>
      <trkpt lat="47.93007" lon="2.13952">
        <ele>98.6724854</ele>
        <time>2012-05-01T09:27:00Z</time>
      </trkpt>
      <trkpt lat="47.93012" lon="2.13957">
        <ele>99.6337891</ele>
        <time>2012-05-01T09:27:09Z</time>
      </trkpt>
      <trkpt lat="47.93013" lon="2.13958">
        <ele>99.6337891</ele>
        <time>2012-05-01T09:27:10Z</time>
      </trkpt>
      <trkpt lat="47.93016" lon="2.13959">
        <ele>100.114502</ele>
        <time>2012-05-01T09:27:12Z</time>
      </trkpt>
      <trkpt lat="47.93025" lon="2.13966">
        <ele>100.114502</ele>
        <time>2012-05-01T09:27:21Z</time>
      </trkpt>
      <trkpt lat="47.93027" lon="2.13969">
        <ele>99.6337891</ele>
        <time>2012-05-01T09:27:24Z</time>
      </trkpt>
      <trkpt lat="47.9303" lon="2.13973">
        <ele>99.6337891</ele>
        <time>2012-05-01T09:27:28Z</time>
      </trkpt>
      <trkpt lat="47.9304" lon="2.13986">
        <ele>98.1918945</ele>
        <time>2012-05-01T09:27:43Z</time>
      </trkpt>
      <trkpt lat="47.93041" lon="2.13989">
        <ele>98.6724854</ele>
        <time>2012-05-01T09:27:47Z</time>
      </trkpt>
      <trkpt lat="47.93053" lon="2.1401">
        <ele>98.6724854</ele>
        <time>2012-05-01T09:28:01Z</time>
      </trkpt>
      <trkpt lat="47.93058" lon="2.14018">
        <ele>99.1530762</ele>
        <time>2012-05-01T09:28:06Z</time>
      </trkpt>
      <trkpt lat="47.93062" lon="2.14023">
        <ele>98.6724854</ele>
        <time>2012-05-01T09:28:10Z</time>
      </trkpt>
      <trkpt lat="47.93063" lon="2.14026">
        <ele>99.1530762</ele>
        <time>2012-05-01T09:28:12Z</time>
      </trkpt>
      <trkpt lat="47.93076" lon="2.14039">
        <ele>100.114502</ele>
        <time>2012-05-01T09:28:24Z</time>
      </trkpt>
      <trkpt lat="47.93083" lon="2.14046">
        <ele>99.1530762</ele>
        <time>2012-05-01T09:28:36Z</time>
      </trkpt>
      <trkpt lat="47.9309" lon="2.14055">
        <ele>99.1530762</ele>
        <time>2012-05-01T09:28:44Z</time>
      </trkpt>
      <trkpt lat="47.93101" lon="2.14064">
        <ele>99.1530762</ele>
        <time>2012-05-01T09:28:55Z</time>
      </trkpt>
      <trkpt lat="47.93103" lon="2.14069">
        <ele>99.1530762</ele>
        <time>2012-05-01T09:29:10Z</time>
      </trkpt>
      <trkpt lat="47.93111" lon="2.14075">
        <ele>98.6724854</ele>
        <time>2012-05-01T09:29:42Z</time>
      </trkpt>
      <trkpt lat="47.93116" lon="2.14081">
        <ele>99.1530762</ele>
        <time>2012-05-01T09:30:00Z</time>
      </trkpt>
      <trkpt lat="47.9312" lon="2.14085">
        <ele>98.6724854</ele>
        <time>2012-05-01T09:30:20Z</time>
      </trkpt>
      <trkpt lat="47.93132" lon="2.14098">
        <ele>97.2304688</ele>
        <time>2012-05-01T09:30:33Z</time>
      </trkpt>
      <trkpt lat="47.93136" lon="2.14106">
        <ele>96.7498779</ele>
        <time>2012-05-01T09:30:38Z</time>
      </trkpt>
      <trkpt lat="47.93152" lon="2.14129">
        <ele>96.2692871</ele>
        <time>2012-05-01T09:30:55Z</time>
      </trkpt>
      <trkpt lat="47.93155" lon="2.14141">
        <ele>97.7111816</ele>
        <time>2012-05-01T09:31:05Z</time>
      </trkpt>
      <trkpt lat="47.93159" lon="2.14148">
        <ele>98.1918945</ele>
        <time>2012-05-01T09:31:09Z</time>
      </trkpt>
      <trkpt lat="47.93169" lon="2.14162">
        <ele>98.1918945</ele>
        <time>2012-05-01T09:31:19Z</time>
      </trkpt>
      <trkpt lat="47.93178" lon="2.14171">
        <ele>98.1918945</ele>
        <time>2012-05-01T09:31:27Z</time>
      </trkpt>
      <trkpt lat="47.93187" lon="2.14186">
        <ele>98.1918945</ele>
        <time>2012-05-01T09:31:38Z</time>
      </trkpt>
      <trkpt lat="47.93197" lon="2.14199">
        <ele>97.2304688</ele>
        <time>2012-05-01T09:31:48Z</time>
      </trkpt>
      <trkpt lat="47.93204" lon="2.1421">
        <ele>95.7884521</ele>
        <time>2012-05-01T09:31:56Z</time>
      </trkpt>
      <trkpt lat="47.9321" lon="2.14215">
        <ele>94.8271484</ele>
        <time>2012-05-01T09:32:01Z</time>
      </trkpt>
      <trkpt lat="47.93218" lon="2.1423">
        <ele>94.3465576</ele>
        <time>2012-05-01T09:32:11Z</time>
      </trkpt>
      <trkpt lat="47.93223" lon="2.14234">
        <ele>94.3465576</ele>
        <time>2012-05-01T09:32:15Z</time>
      </trkpt>
      <trkpt lat="47.93227" lon="2.14243">
        <ele>93.8658447</ele>
        <time>2012-05-01T09:32:21Z</time>
      </trkpt>
      <trkpt lat="47.93233" lon="2.1425">
        <ele>93.3851318</ele>
        <time>2012-05-01T09:32:27Z</time>
      </trkpt>
      <trkpt lat="47.93242" lon="2.14269">
        <ele>94.8271484</ele>
        <time>2012-05-01T09:32:39Z</time>
      </trkpt>
      <trkpt lat="47.93246" lon="2.14273">
        <ele>94.8271484</ele>
        <time>2012-05-01T09:32:51Z</time>
      </trkpt>
      <trkpt lat="47.93251" lon="2.14283">
        <ele>94.3465576</ele>
        <time>2012-05-01T09:33:03Z</time>
      </trkpt>
      <trkpt lat="47.93251" lon="2.14285">
        <ele>95.3077393</ele>
        <time>2012-05-01T09:33:56Z</time>
      </trkpt>
      <trkpt lat="47.93252" lon="2.14289">
        <ele>96.2692871</ele>
        <time>2012-05-01T09:34:30Z</time>
      </trkpt>
      <trkpt lat="47.93256" lon="2.14294">
        <ele>97.2304688</ele>
        <time>2012-05-01T09:34:34Z</time>
      </trkpt>
      <trkpt lat="47.9326" lon="2.14305">
        <ele>97.7111816</ele>
        <time>2012-05-01T09:34:40Z</time>
      </trkpt>
      <trkpt lat="47.93265" lon="2.14313">
        <ele>98.6724854</ele>
        <time>2012-05-01T09:34:46Z</time>
      </trkpt>
      <trkpt lat="47.93267" lon="2.14316">
        <ele>99.1530762</ele>
        <time>2012-05-01T09:34:48Z</time>
      </trkpt>
      <trkpt lat="47.93274" lon="2.1434">
        <ele>98.1918945</ele>
        <time>2012-05-01T09:35:01Z</time>
      </trkpt>
      <trkpt lat="47.93276" lon="2.14344">
        <ele>98.6724854</ele>
        <time>2012-05-01T09:35:04Z</time>
      </trkpt>
      <trkpt lat="47.9328" lon="2.14354">
        <ele>99.1530762</ele>
        <time>2012-05-01T09:35:09Z</time>
      </trkpt>
      <trkpt lat="47.93284" lon="2.14369">
        <ele>99.6337891</ele>
        <time>2012-05-01T09:35:18Z</time>
      </trkpt>
      <trkpt lat="47.93295" lon="2.14386">
        <ele>98.6724854</ele>
        <time>2012-05-01T09:35:31Z</time>
      </trkpt>
      <trkpt lat="47.93295" lon="2.14387">
        <ele>99.1530762</ele>
        <time>2012-05-01T09:35:52Z</time>
      </trkpt>
      <trkpt lat="47.93297" lon="2.14392">
        <ele>99.6337891</ele>
        <time>2012-05-01T09:35:57Z</time>
      </trkpt>
      <trkpt lat="47.93302" lon="2.144">
        <ele>98.6724854</ele>
        <time>2012-05-01T09:36:06Z</time>
      </trkpt>
      <trkpt lat="47.9331" lon="2.1441">
        <ele>96.7498779</ele>
        <time>2012-05-01T09:36:16Z</time>
      </trkpt>
      <trkpt lat="47.93319" lon="2.14427">
        <ele>92.4239502</ele>
        <time>2012-05-01T09:36:28Z</time>
      </trkpt>
      <trkpt lat="47.93324" lon="2.14443">
        <ele>87.6171875</ele>
        <time>2012-05-01T09:36:39Z</time>
      </trkpt>
      <trkpt lat="47.93325" lon="2.14446">
        <ele>85.6945801</ele>
        <time>2012-05-01T09:37:00Z</time>
      </trkpt>
      <trkpt lat="47.93327" lon="2.14449">
        <ele>86.175293</ele>
        <time>2012-05-01T09:37:02Z</time>
      </trkpt>
      <trkpt lat="47.93329" lon="2.14453">
        <ele>86.6560059</ele>
        <time>2012-05-01T09:37:05Z</time>
      </trkpt>
      <trkpt lat="47.93332" lon="2.14461">
        <ele>87.1365967</ele>
        <time>2012-05-01T09:37:09Z</time>
      </trkpt>
      <trkpt lat="47.93343" lon="2.14486">
        <ele>87.1365967</ele>
        <time>2012-05-01T09:37:24Z</time>
      </trkpt>
      <trkpt lat="47.93345" lon="2.14491">
        <ele>86.6560059</ele>
        <time>2012-05-01T09:37:38Z</time>
      </trkpt>
      <trkpt lat="47.93346" lon="2.14494">
        <ele>88.5787354</ele>
        <time>2012-05-01T09:37:40Z</time>
      </trkpt>
      <trkpt lat="47.93359" lon="2.14518">
        <ele>89.0593262</ele>
        <time>2012-05-01T09:37:54Z</time>
      </trkpt>
      <trkpt lat="47.9336" lon="2.14522">
        <ele>89.0593262</ele>
        <time>2012-05-01T09:37:57Z</time>
      </trkpt>
      <trkpt lat="47.93366" lon="2.14536">
        <ele>88.5787354</ele>
        <time>2012-05-01T09:38:10Z</time>
      </trkpt>
      <trkpt lat="47.93368" lon="2.14547">
        <ele>90.9819336</ele>
        <time>2012-05-01T09:38:27Z</time>
      </trkpt>
      <trkpt lat="47.93368" lon="2.14547">
        <ele>90.9819336</ele>
        <time>2012-05-01T09:38:51Z</time>
      </trkpt>
      <trkpt lat="47.93376" lon="2.14566">
        <ele>90.9819336</ele>
        <time>2012-05-01T09:39:02Z</time>
      </trkpt>
      <trkpt lat="47.93387" lon="2.14584">
        <ele>90.5013428</ele>
        <time>2012-05-01T09:39:15Z</time>
      </trkpt>
      <trkpt lat="47.93387" lon="2.14585">
        <ele>90.5013428</ele>
        <time>2012-05-01T09:39:16Z</time>
      </trkpt>
      <trkpt lat="47.9339" lon="2.1459">
        <ele>90.0206299</ele>
        <time>2012-05-01T09:39:20Z</time>
      </trkpt>
      <trkpt lat="47.93397" lon="2.14605">
        <ele>85.6945801</ele>
        <time>2012-05-01T09:39:34Z</time>
      </trkpt>
      <trkpt lat="47.93398" lon="2.14612">
        <ele>84.2526855</ele>
        <time>2012-05-01T09:39:38Z</time>
      </trkpt>
      <trkpt lat="47.93407" lon="2.14634">
        <ele>79.4460449</ele>
        <time>2012-05-01T09:39:51Z</time>
      </trkpt>
      <trkpt lat="47.93414" lon="2.1465">
        <ele>73.6782227</ele>
        <time>2012-05-01T09:40:02Z</time>
      </trkpt>
      <trkpt lat="47.93415" lon="2.14651">
        <ele>72.7169189</ele>
        <time>2012-05-01T09:40:03Z</time>
      </trkpt>
      <trkpt lat="47.93418" lon="2.14655">
        <ele>70.7941895</ele>
        <time>2012-05-01T09:40:07Z</time>
      </trkpt>
      <trkpt lat="47.93422" lon="2.14663">
        <ele>67.4296875</ele>
        <time>2012-05-01T09:40:13Z</time>
      </trkpt>
      <trkpt lat="47.93428" lon="2.1467">
        <ele>64.0650635</ele>
        <time>2012-05-01T09:40:20Z</time>
      </trkpt>
      <trkpt lat="47.93433" lon="2.14679">
        <ele>62.6229248</ele>
        <time>2012-05-01T09:40:25Z</time>
      </trkpt>
      <trkpt lat="47.93443" lon="2.147">
        <ele>56.8551025</ele>
        <time>2012-05-01T09:40:41Z</time>
      </trkpt>
      <trkpt lat="47.93456" lon="2.14719">
        <ele>66.4682617</ele>
        <time>2012-05-01T09:40:57Z</time>
      </trkpt>
      <trkpt lat="47.93475" lon="2.14725">
        <ele>78.9654541</ele>
        <time>2012-05-01T09:41:11Z</time>
      </trkpt>
      <trkpt lat="47.93485" lon="2.14714">
        <ele>79.9266357</ele>
        <time>2012-05-01T09:41:20Z</time>
      </trkpt>
      <trkpt lat="47.93507" lon="2.14709">
        <ele>87.1365967</ele>
        <time>2012-05-01T09:41:35Z</time>
      </trkpt>
      <trkpt lat="47.93528" lon="2.14718">
        <ele>90.5013428</ele>
        <time>2012-05-01T09:41:50Z</time>
      </trkpt>
      <trkpt lat="47.93536" lon="2.1473">
        <ele>92.4239502</ele>
        <time>2012-05-01T09:42:07Z</time>
      </trkpt>
      <trkpt lat="47.93536" lon="2.1473">
        <ele>92.4239502</ele>
        <time>2012-05-01T09:42:08Z</time>
      </trkpt>
      <trkpt lat="47.93538" lon="2.14752">
        <ele>93.3851318</ele>
        <time>2012-05-01T09:42:20Z</time>
      </trkpt>
      <trkpt lat="47.93538" lon="2.14754">
        <ele>93.3851318</ele>
        <time>2012-05-01T09:42:21Z</time>
      </trkpt>
      <trkpt lat="47.93545" lon="2.14786">
        <ele>93.3851318</ele>
        <time>2012-05-01T09:42:39Z</time>
      </trkpt>
      <trkpt lat="47.93555" lon="2.14807">
        <ele>93.3851318</ele>
        <time>2012-05-01T09:42:53Z</time>
      </trkpt>
      <trkpt lat="47.93565" lon="2.1482">
        <ele>91.4625244</ele>
        <time>2012-05-01T09:43:05Z</time>
      </trkpt>
      <trkpt lat="47.93571" lon="2.14832">
        <ele>92.4239502</ele>
        <time>2012-05-01T09:43:13Z</time>
      </trkpt>
      <trkpt lat="47.93579" lon="2.14838">
        <ele>95.7884521</ele>
        <time>2012-05-01T09:43:18Z</time>
      </trkpt>
      <trkpt lat="47.9359" lon="2.14859">
        <ele>98.6724854</ele>
        <time>2012-05-01T09:43:32Z</time>
      </trkpt>
      <trkpt lat="47.93593" lon="2.14864">
        <ele>99.1530762</ele>
        <time>2012-05-01T09:43:36Z</time>
      </trkpt>
      <trkpt lat="47.93604" lon="2.14886">
        <ele>99.1530762</ele>
        <time>2012-05-01T09:43:50Z</time>
      </trkpt>
      <trkpt lat="47.93609" lon="2.14897">
        <ele>101.0756836</ele>
        <time>2012-05-01T09:43:57Z</time>
      </trkpt>
      <trkpt lat="47.93613" lon="2.14906">
        <ele>102.0371094</ele>
        <time>2012-05-01T09:44:01Z</time>
      </trkpt>
      <trkpt lat="47.93619" lon="2.14921">
        <ele>103.4790039</ele>
        <time>2012-05-01T09:44:11Z</time>
      </trkpt>
      <trkpt lat="47.93623" lon="2.14931">
        <ele>103.9597168</ele>
        <time>2012-05-01T09:44:17Z</time>
      </trkpt>
      <trkpt lat="47.93625" lon="2.14936">
        <ele>102.998291</ele>
        <time>2012-05-01T09:44:20Z</time>
      </trkpt>
      <trkpt lat="47.93635" lon="2.14956">
        <ele>103.4790039</ele>
        <time>2012-05-01T09:44:33Z</time>
      </trkpt>
      <trkpt lat="47.93642" lon="2.14971">
        <ele>103.4790039</ele>
        <time>2012-05-01T09:44:43Z</time>
      </trkpt>
      <trkpt lat="47.93651" lon="2.14993">
        <ele>103.4790039</ele>
        <time>2012-05-01T09:44:56Z</time>
      </trkpt>
      <trkpt lat="47.93651" lon="2.14994">
        <ele>103.4790039</ele>
        <time>2012-05-01T09:44:57Z</time>
      </trkpt>
      <trkpt lat="47.93653" lon="2.14996">
        <ele>103.4790039</ele>
        <time>2012-05-01T09:44:59Z</time>
      </trkpt>
      <trkpt lat="47.93661" lon="2.15012">
        <ele>104.9210205</ele>
        <time>2012-05-01T09:45:09Z</time>
      </trkpt>
      <trkpt lat="47.93664" lon="2.15017">
        <ele>104.9210205</ele>
        <time>2012-05-01T09:45:13Z</time>
      </trkpt>
      <trkpt lat="47.93675" lon="2.15038">
        <ele>104.9210205</ele>
        <time>2012-05-01T09:45:27Z</time>
      </trkpt>
      <trkpt lat="47.9368" lon="2.15048">
        <ele>105.4017334</ele>
        <time>2012-05-01T09:45:43Z</time>
      </trkpt>
      <trkpt lat="47.93688" lon="2.15067">
        <ele>103.4790039</ele>
        <time>2012-05-01T09:45:57Z</time>
      </trkpt>
      <trkpt lat="47.93695" lon="2.15079">
        <ele>102.5177002</ele>
        <time>2012-05-01T09:46:13Z</time>
      </trkpt>
      <trkpt lat="47.93704" lon="2.15102">
        <ele>101.5563965</ele>
        <time>2012-05-01T09:46:28Z</time>
      </trkpt>
      <trkpt lat="47.93708" lon="2.15117">
        <ele>101.5563965</ele>
        <time>2012-05-01T09:46:45Z</time>
      </trkpt>
      <trkpt lat="47.93709" lon="2.15133">
        <ele>101.5563965</ele>
        <time>2012-05-01T09:47:33Z</time>
      </trkpt>
      <trkpt lat="47.93708" lon="2.15151">
        <ele>101.0756836</ele>
        <time>2012-05-01T09:47:44Z</time>
      </trkpt>
      <trkpt lat="47.93707" lon="2.15159">
        <ele>102.5177002</ele>
        <time>2012-05-01T09:48:04Z</time>
      </trkpt>
      <trkpt lat="47.93708" lon="2.1516">
        <ele>102.5177002</ele>
        <time>2012-05-01T09:48:06Z</time>
      </trkpt>
      <trkpt lat="47.93722" lon="2.1519">
        <ele>102.998291</ele>
        <time>2012-05-01T09:48:27Z</time>
      </trkpt>
      <trkpt lat="47.93737" lon="2.15211">
        <ele>102.5177002</ele>
        <time>2012-05-01T09:48:45Z</time>
      </trkpt>
      <trkpt lat="47.93742" lon="2.15222">
        <ele>103.4790039</ele>
        <time>2012-05-01T09:49:00Z</time>
      </trkpt>
      <trkpt lat="47.93744" lon="2.15225">
        <ele>103.4790039</ele>
        <time>2012-05-01T09:49:02Z</time>
      </trkpt>
      <trkpt lat="47.93746" lon="2.15233">
        <ele>103.4790039</ele>
        <time>2012-05-01T09:49:23Z</time>
      </trkpt>
      <trkpt lat="47.9375" lon="2.15253">
        <ele>103.4790039</ele>
        <time>2012-05-01T09:49:56Z</time>
      </trkpt>
      <trkpt lat="47.93751" lon="2.15269">
        <ele>103.4790039</ele>
        <time>2012-05-01T09:50:04Z</time>
      </trkpt>
      <trkpt lat="47.93754" lon="2.15276">
        <ele>103.4790039</ele>
        <time>2012-05-01T09:50:22Z</time>
      </trkpt>
      <trkpt lat="47.93754" lon="2.15276">
        <ele>103.9597168</ele>
        <time>2012-05-01T09:52:07Z</time>
      </trkpt>
      <trkpt lat="47.93752" lon="2.15285">
        <ele>104.4404297</ele>
        <time>2012-05-01T09:52:12Z</time>
      </trkpt>
      <trkpt lat="47.93751" lon="2.1529">
        <ele>104.4404297</ele>
        <time>2012-05-01T09:52:15Z</time>
      </trkpt>
      <trkpt lat="47.93752" lon="2.15311">
        <ele>104.9210205</ele>
        <time>2012-05-01T09:52:28Z</time>
      </trkpt>
      <trkpt lat="47.93752" lon="2.15323">
        <ele>104.4404297</ele>
        <time>2012-05-01T09:52:35Z</time>
      </trkpt>
      <trkpt lat="47.93753" lon="2.1534">
        <ele>103.9597168</ele>
        <time>2012-05-01T09:52:44Z</time>
      </trkpt>
      <trkpt lat="47.93752" lon="2.15352">
        <ele>103.4790039</ele>
        <time>2012-05-01T09:53:03Z</time>
      </trkpt>
      <trkpt lat="47.93753" lon="2.15364">
        <ele>103.9597168</ele>
        <time>2012-05-01T09:53:11Z</time>
      </trkpt>
      <trkpt lat="47.93754" lon="2.15369">
        <ele>103.9597168</ele>
        <time>2012-05-01T09:53:14Z</time>
      </trkpt>
      <trkpt lat="47.93753" lon="2.15389">
        <ele>102.998291</ele>
        <time>2012-05-01T09:53:25Z</time>
      </trkpt>
      <trkpt lat="47.93751" lon="2.15419">
        <ele>103.9597168</ele>
        <time>2012-05-01T09:53:40Z</time>
      </trkpt>
      <trkpt lat="47.93753" lon="2.1544">
        <ele>103.4790039</ele>
        <time>2012-05-01T09:53:53Z</time>
      </trkpt>
      <trkpt lat="47.93752" lon="2.15467">
        <ele>102.998291</ele>
        <time>2012-05-01T09:54:06Z</time>
      </trkpt>
      <trkpt lat="47.93752" lon="2.15471">
        <ele>102.998291</ele>
        <time>2012-05-01T09:54:08Z</time>
      </trkpt>
      <trkpt lat="47.93752" lon="2.15478">
        <ele>102.998291</ele>
        <time>2012-05-01T09:54:12Z</time>
      </trkpt>
      <trkpt lat="47.93749" lon="2.15504">
        <ele>104.4404297</ele>
        <time>2012-05-01T09:54:26Z</time>
      </trkpt>
      <trkpt lat="47.93748" lon="2.15534">
        <ele>104.9210205</ele>
        <time>2012-05-01T09:54:40Z</time>
      </trkpt>
      <trkpt lat="47.93745" lon="2.15556">
        <ele>104.9210205</ele>
        <time>2012-05-01T09:54:52Z</time>
      </trkpt>
      <trkpt lat="47.93743" lon="2.15568">
        <ele>103.4790039</ele>
        <time>2012-05-01T09:55:07Z</time>
      </trkpt>
      <trkpt lat="47.93742" lon="2.15583">
        <ele>103.4790039</ele>
        <time>2012-05-01T09:55:25Z</time>
      </trkpt>
      <trkpt lat="47.93739" lon="2.15597">
        <ele>103.4790039</ele>
        <time>2012-05-01T09:55:32Z</time>
      </trkpt>
      <trkpt lat="47.9374" lon="2.15613">
        <ele>103.9597168</ele>
        <time>2012-05-01T09:55:40Z</time>
      </trkpt>
      <trkpt lat="47.93739" lon="2.15623">
        <ele>103.4790039</ele>
        <time>2012-05-01T09:55:45Z</time>
      </trkpt>
      <trkpt lat="47.9374" lon="2.15652">
        <ele>104.9210205</ele>
        <time>2012-05-01T09:55:59Z</time>
      </trkpt>
      <trkpt lat="47.9374" lon="2.15671">
        <ele>103.9597168</ele>
        <time>2012-05-01T09:56:14Z</time>
      </trkpt>
      <trkpt lat="47.93741" lon="2.15687">
        <ele>103.9597168</ele>
        <time>2012-05-01T09:56:36Z</time>
      </trkpt>
      <trkpt lat="47.93743" lon="2.15711">
        <ele>106.3630371</ele>
        <time>2012-05-01T09:56:48Z</time>
      </trkpt>
      <trkpt lat="47.93743" lon="2.15719">
        <ele>105.8824463</ele>
        <time>2012-05-01T09:56:52Z</time>
      </trkpt>
      <trkpt lat="47.93742" lon="2.15729">
        <ele>106.3630371</ele>
        <time>2012-05-01T09:56:57Z</time>
      </trkpt>
      <trkpt lat="47.93744" lon="2.15743">
        <ele>106.8436279</ele>
        <time>2012-05-01T09:57:05Z</time>
      </trkpt>
      <trkpt lat="47.93744" lon="2.15764">
        <ele>104.9210205</ele>
        <time>2012-05-01T09:57:17Z</time>
      </trkpt>
      <trkpt lat="47.93747" lon="2.15776">
        <ele>103.9597168</ele>
        <time>2012-05-01T09:57:24Z</time>
      </trkpt>
      <trkpt lat="47.93746" lon="2.15783">
        <ele>103.4790039</ele>
        <time>2012-05-01T09:57:28Z</time>
      </trkpt>
      <trkpt lat="47.93747" lon="2.15799">
        <ele>102.998291</ele>
        <time>2012-05-01T09:57:36Z</time>
      </trkpt>
      <trkpt lat="47.93747" lon="2.15804">
        <ele>102.998291</ele>
        <time>2012-05-01T09:57:39Z</time>
      </trkpt>
      <trkpt lat="47.93747" lon="2.15823">
        <ele>102.0371094</ele>
        <time>2012-05-01T09:57:48Z</time>
      </trkpt>
      <trkpt lat="47.93747" lon="2.15829">
        <ele>102.0371094</ele>
        <time>2012-05-01T09:57:51Z</time>
      </trkpt>
      <trkpt lat="47.93748" lon="2.15838">
        <ele>102.0371094</ele>
        <time>2012-05-01T09:58:09Z</time>
      </trkpt>
      <trkpt lat="47.93748" lon="2.15845">
        <ele>101.5563965</ele>
        <time>2012-05-01T09:58:13Z</time>
      </trkpt>
      <trkpt lat="47.93748" lon="2.15854">
        <ele>101.0756836</ele>
        <time>2012-05-01T09:58:17Z</time>
      </trkpt>
      <trkpt lat="47.93747" lon="2.15873">
        <ele>98.6724854</ele>
        <time>2012-05-01T09:58:28Z</time>
      </trkpt>
      <trkpt lat="47.93747" lon="2.15896">
        <ele>96.7498779</ele>
        <time>2012-05-01T09:58:41Z</time>
      </trkpt>
      <trkpt lat="47.93746" lon="2.1591">
        <ele>94.8271484</ele>
        <time>2012-05-01T09:58:53Z</time>
      </trkpt>
      <trkpt lat="47.93745" lon="2.15919">
        <ele>94.8271484</ele>
        <time>2012-05-01T09:59:08Z</time>
      </trkpt>
      <trkpt lat="47.93745" lon="2.15922">
        <ele>96.2692871</ele>
        <time>2012-05-01T10:00:02Z</time>
      </trkpt>
      <trkpt lat="47.93748" lon="2.15923">
        <ele>96.7498779</ele>
        <time>2012-05-01T10:00:19Z</time>
      </trkpt>
      <trkpt lat="47.93749" lon="2.15923">
        <ele>96.7498779</ele>
        <time>2012-05-01T10:01:01Z</time>
      </trkpt>
      <trkpt lat="47.93753" lon="2.15945">
        <ele>96.2692871</ele>
        <time>2012-05-01T10:01:14Z</time>
      </trkpt>
      <trkpt lat="47.93753" lon="2.15957">
        <ele>94.8271484</ele>
        <time>2012-05-01T10:01:23Z</time>
      </trkpt>
      <trkpt lat="47.93752" lon="2.15972">
        <ele>92.4239502</ele>
        <time>2012-05-01T10:01:32Z</time>
      </trkpt>
      <trkpt lat="47.93745" lon="2.15998">
        <ele>93.8658447</ele>
        <time>2012-05-01T10:01:43Z</time>
      </trkpt>
      <trkpt lat="47.93744" lon="2.16013">
        <ele>95.3077393</ele>
        <time>2012-05-01T10:01:55Z</time>
      </trkpt>
      <trkpt lat="47.93743" lon="2.16031">
        <ele>100.5950928</ele>
        <time>2012-05-01T10:02:06Z</time>
      </trkpt>
      <trkpt lat="47.9374" lon="2.16046">
        <ele>99.1530762</ele>
        <time>2012-05-01T10:02:14Z</time>
      </trkpt>
      <trkpt lat="47.93737" lon="2.1606">
        <ele>96.2692871</ele>
        <time>2012-05-01T10:02:23Z</time>
      </trkpt>
      <trkpt lat="47.93735" lon="2.16078">
        <ele>94.3465576</ele>
        <time>2012-05-01T10:02:32Z</time>
      </trkpt>
      <trkpt lat="47.93735" lon="2.16088">
        <ele>94.3465576</ele>
        <time>2012-05-01T10:02:44Z</time>
      </trkpt>
      <trkpt lat="47.93735" lon="2.16093">
        <ele>93.8658447</ele>
        <time>2012-05-01T10:02:46Z</time>
      </trkpt>
      <trkpt lat="47.93735" lon="2.16098">
        <ele>93.3851318</ele>
        <time>2012-05-01T10:02:49Z</time>
      </trkpt>
      <trkpt lat="47.93736" lon="2.16124">
        <ele>91.4625244</ele>
        <time>2012-05-01T10:03:02Z</time>
      </trkpt>
      <trkpt lat="47.93737" lon="2.16152">
        <ele>93.8658447</ele>
        <time>2012-05-01T10:03:15Z</time>
      </trkpt>
      <trkpt lat="47.93738" lon="2.16158">
        <ele>94.8271484</ele>
        <time>2012-05-01T10:03:18Z</time>
      </trkpt>
      <trkpt lat="47.93736" lon="2.16176">
        <ele>95.7884521</ele>
        <time>2012-05-01T10:03:29Z</time>
      </trkpt>
      <trkpt lat="47.93736" lon="2.16182">
        <ele>95.7884521</ele>
        <time>2012-05-01T10:03:33Z</time>
      </trkpt>
      <trkpt lat="47.93738" lon="2.16189">
        <ele>95.7884521</ele>
        <time>2012-05-01T10:03:38Z</time>
      </trkpt>
      <trkpt lat="47.93745" lon="2.1619">
        <ele>94.3465576</ele>
        <time>2012-05-01T10:03:47Z</time>
      </trkpt>
      <trkpt lat="47.93748" lon="2.16199">
        <ele>93.8658447</ele>
        <time>2012-05-01T10:03:53Z</time>
      </trkpt>
      <trkpt lat="47.93752" lon="2.16211">
        <ele>90.5013428</ele>
        <time>2012-05-01T10:04:02Z</time>
      </trkpt>
      <trkpt lat="47.93753" lon="2.16218">
        <ele>89.539917</ele>
        <time>2012-05-01T10:04:07Z</time>
      </trkpt>
      <trkpt lat="47.93753" lon="2.16229">
        <ele>88.5787354</ele>
        <time>2012-05-01T10:04:12Z</time>
      </trkpt>
      <trkpt lat="47.93755" lon="2.16237">
        <ele>86.6560059</ele>
        <time>2012-05-01T10:04:18Z</time>
      </trkpt>
      <trkpt lat="47.93745" lon="2.16267">
        <ele>84.7333984</ele>
        <time>2012-05-01T10:04:27Z</time>
      </trkpt>
      <trkpt lat="47.93744" lon="2.16281">
        <ele>84.2526855</ele>
        <time>2012-05-01T10:04:32Z</time>
      </trkpt>
      <trkpt lat="47.93744" lon="2.16289">
        <ele>83.2913818</ele>
        <time>2012-05-01T10:04:35Z</time>
      </trkpt>
      <trkpt lat="47.9374" lon="2.16317">
        <ele>82.3300781</ele>
        <time>2012-05-01T10:04:55Z</time>
      </trkpt>
      <trkpt lat="47.9374" lon="2.16317">
        <ele>82.3300781</ele>
        <time>2012-05-01T10:05:18Z</time>
      </trkpt>
      <trkpt lat="47.93746" lon="2.16333">
        <ele>81.3687744</ele>
        <time>2012-05-01T10:05:29Z</time>
      </trkpt>
      <trkpt lat="47.93751" lon="2.16361">
        <ele>87.1365967</ele>
        <time>2012-05-01T10:05:41Z</time>
      </trkpt>
      <trkpt lat="47.93748" lon="2.16365">
        <ele>83.7719727</ele>
        <time>2012-05-01T10:06:08Z</time>
      </trkpt>
      <trkpt lat="47.93755" lon="2.16378">
        <ele>82.810791</ele>
        <time>2012-05-01T10:06:17Z</time>
      </trkpt>
      <trkpt lat="47.93756" lon="2.16383">
        <ele>80.8881836</ele>
        <time>2012-05-01T10:06:21Z</time>
      </trkpt>
      <trkpt lat="47.93763" lon="2.16393">
        <ele>78.9654541</ele>
        <time>2012-05-01T10:06:29Z</time>
      </trkpt>
      <trkpt lat="47.93765" lon="2.16398">
        <ele>78.9654541</ele>
        <time>2012-05-01T10:06:33Z</time>
      </trkpt>
      <trkpt lat="47.93768" lon="2.16402">
        <ele>78.4847412</ele>
        <time>2012-05-01T10:06:36Z</time>
      </trkpt>
      <trkpt lat="47.93771" lon="2.16408">
        <ele>78.4847412</ele>
        <time>2012-05-01T10:06:40Z</time>
      </trkpt>
      <trkpt lat="47.93773" lon="2.16411">
        <ele>78.4847412</ele>
        <time>2012-05-01T10:06:42Z</time>
      </trkpt>
      <trkpt lat="47.93776" lon="2.16419">
        <ele>78.4847412</ele>
        <time>2012-05-01T10:06:47Z</time>
      </trkpt>
      <trkpt lat="47.93779" lon="2.16437">
        <ele>77.5234375</ele>
        <time>2012-05-01T10:06:56Z</time>
      </trkpt>
      <trkpt lat="47.93782" lon="2.16447">
        <ele>78.0040283</ele>
        <time>2012-05-01T10:07:11Z</time>
      </trkpt>
      <trkpt lat="47.93789" lon="2.16462">
        <ele>74.6395264</ele>
        <time>2012-05-01T10:07:21Z</time>
      </trkpt>
      <trkpt lat="47.9379" lon="2.16477">
        <ele>71.7554932</ele>
        <time>2012-05-01T10:07:28Z</time>
      </trkpt>
      <trkpt lat="47.93791" lon="2.16481">
        <ele>71.2749023</ele>
        <time>2012-05-01T10:07:30Z</time>
      </trkpt>
      <trkpt lat="47.93792" lon="2.16487">
        <ele>70.3134766</ele>
        <time>2012-05-01T10:07:33Z</time>
      </trkpt>
      <trkpt lat="47.93799" lon="2.16506">
        <ele>65.0263672</ele>
        <time>2012-05-01T10:07:45Z</time>
      </trkpt>
      <trkpt lat="47.93802" lon="2.16516">
        <ele>63.5843506</ele>
        <time>2012-05-01T10:07:51Z</time>
      </trkpt>
      <trkpt lat="47.93804" lon="2.16521">
        <ele>63.1036377</ele>
        <time>2012-05-01T10:07:54Z</time>
      </trkpt>
      <trkpt lat="47.93804" lon="2.16532">
        <ele>60.7003174</ele>
        <time>2012-05-01T10:08:00Z</time>
      </trkpt>
      <trkpt lat="47.9383" lon="2.16559">
        <ele>70.7941895</ele>
        <time>2012-05-01T10:08:14Z</time>
      </trkpt>
      <trkpt lat="47.93836" lon="2.16564">
        <ele>76.5621338</ele>
        <time>2012-05-01T10:09:25Z</time>
      </trkpt>
      <trkpt lat="47.93839" lon="2.16566">
        <ele>78.9654541</ele>
        <time>2012-05-01T10:09:36Z</time>
      </trkpt>
      <trkpt lat="47.93845" lon="2.16574">
        <ele>79.4460449</ele>
        <time>2012-05-01T10:10:09Z</time>
      </trkpt>
      <trkpt lat="47.9385" lon="2.16586">
        <ele>78.0040283</ele>
        <time>2012-05-01T10:10:18Z</time>
      </trkpt>
      <trkpt lat="47.93861" lon="2.16599">
        <ele>76.5621338</ele>
        <time>2012-05-01T10:10:30Z</time>
      </trkpt>
      <trkpt lat="47.93864" lon="2.16602">
        <ele>76.0814209</ele>
        <time>2012-05-01T10:10:33Z</time>
      </trkpt>
      <trkpt lat="47.93877" lon="2.16614">
        <ele>78.4847412</ele>
        <time>2012-05-01T10:10:45Z</time>
      </trkpt>
      <trkpt lat="47.93879" lon="2.16615">
        <ele>78.9654541</ele>
        <time>2012-05-01T10:10:46Z</time>
      </trkpt>
      <trkpt lat="47.93895" lon="2.16634">
        <ele>87.1365967</ele>
        <time>2012-05-01T10:10:58Z</time>
      </trkpt>
      <trkpt lat="47.93915" lon="2.1666">
        <ele>93.3851318</ele>
        <time>2012-05-01T10:11:14Z</time>
      </trkpt>
      <trkpt lat="47.9393" lon="2.1668">
        <ele>97.2304688</ele>
        <time>2012-05-01T10:11:27Z</time>
      </trkpt>
      <trkpt lat="47.93939" lon="2.16691">
        <ele>99.6337891</ele>
        <time>2012-05-01T10:11:42Z</time>
      </trkpt>
      <trkpt lat="47.9394" lon="2.16692">
        <ele>100.114502</ele>
        <time>2012-05-01T10:11:43Z</time>
      </trkpt>
      <trkpt lat="47.93954" lon="2.16706">
        <ele>103.4790039</ele>
        <time>2012-05-01T10:11:56Z</time>
      </trkpt>
      <trkpt lat="47.93969" lon="2.16722">
        <ele>103.9597168</ele>
        <time>2012-05-01T10:12:11Z</time>
      </trkpt>
      <trkpt lat="47.93986" lon="2.16739">
        <ele>102.5177002</ele>
        <time>2012-05-01T10:12:28Z</time>
      </trkpt>
      <trkpt lat="47.94002" lon="2.16758">
        <ele>102.5177002</ele>
        <time>2012-05-01T10:12:43Z</time>
      </trkpt>
      <trkpt lat="47.9402" lon="2.16773">
        <ele>103.4790039</ele>
        <time>2012-05-01T10:12:57Z</time>
      </trkpt>
      <trkpt lat="47.94041" lon="2.16794">
        <ele>104.9210205</ele>
        <time>2012-05-01T10:13:15Z</time>
      </trkpt>
      <trkpt lat="47.9406" lon="2.16815">
        <ele>105.8824463</ele>
        <time>2012-05-01T10:13:32Z</time>
      </trkpt>
      <trkpt lat="47.94072" lon="2.1683">
        <ele>105.8824463</ele>
        <time>2012-05-01T10:13:44Z</time>
      </trkpt>
      <trkpt lat="47.94089" lon="2.16847">
        <ele>106.3630371</ele>
        <time>2012-05-01T10:14:01Z</time>
      </trkpt>
      <trkpt lat="47.94093" lon="2.16852">
        <ele>108.7662354</ele>
        <time>2012-05-01T10:14:22Z</time>
      </trkpt>
      <trkpt lat="47.941" lon="2.16858">
        <ele>109.2469482</ele>
        <time>2012-05-01T10:14:52Z</time>
      </trkpt>
      <trkpt lat="47.94117" lon="2.16875">
        <ele>109.7276611</ele>
        <time>2012-05-01T10:15:07Z</time>
      </trkpt>
      <trkpt lat="47.94126" lon="2.16883">
        <ele>109.7276611</ele>
        <time>2012-05-01T10:15:15Z</time>
      </trkpt>
      <trkpt lat="47.94136" lon="2.16894">
        <ele>108.7662354</ele>
        <time>2012-05-01T10:15:25Z</time>
      </trkpt>
      <trkpt lat="47.94152" lon="2.16906">
        <ele>107.3243408</ele>
        <time>2012-05-01T10:15:39Z</time>
      </trkpt>
      <trkpt lat="47.94173" lon="2.16921">
        <ele>110.208252</ele>
        <time>2012-05-01T10:15:56Z</time>
      </trkpt>
      <trkpt lat="47.94191" lon="2.16936">
        <ele>111.1695557</ele>
        <time>2012-05-01T10:16:12Z</time>
      </trkpt>
      <trkpt lat="47.9421" lon="2.16952">
        <ele>113.0922852</ele>
        <time>2012-05-01T10:16:29Z</time>
      </trkpt>
      <trkpt lat="47.94214" lon="2.16954">
        <ele>113.572998</ele>
        <time>2012-05-01T10:16:32Z</time>
      </trkpt>
      <trkpt lat="47.94232" lon="2.16973">
        <ele>111.6502686</ele>
        <time>2012-05-01T10:16:49Z</time>
      </trkpt>
      <trkpt lat="47.94242" lon="2.16983">
        <ele>112.1309814</ele>
        <time>2012-05-01T10:16:58Z</time>
      </trkpt>
      <trkpt lat="47.94261" lon="2.17001">
        <ele>113.0922852</ele>
        <time>2012-05-01T10:17:16Z</time>
      </trkpt>
      <trkpt lat="47.94272" lon="2.17013">
        <ele>111.6502686</ele>
        <time>2012-05-01T10:17:32Z</time>
      </trkpt>
      <trkpt lat="47.94274" lon="2.17014">
        <ele>111.6502686</ele>
        <time>2012-05-01T10:17:45Z</time>
      </trkpt>
      <trkpt lat="47.94281" lon="2.17013">
        <ele>111.1695557</ele>
        <time>2012-05-01T10:18:01Z</time>
      </trkpt>
      <trkpt lat="47.94285" lon="2.17007">
        <ele>111.1695557</ele>
        <time>2012-05-01T10:18:10Z</time>
      </trkpt>
      <trkpt lat="47.9429" lon="2.16996">
        <ele>112.1309814</ele>
        <time>2012-05-01T10:18:17Z</time>
      </trkpt>
      <trkpt lat="47.94296" lon="2.16984">
        <ele>112.1309814</ele>
        <time>2012-05-01T10:18:25Z</time>
      </trkpt>
      <trkpt lat="47.94299" lon="2.16977">
        <ele>111.1695557</ele>
        <time>2012-05-01T10:18:29Z</time>
      </trkpt>
      <trkpt lat="47.94307" lon="2.16959">
        <ele>110.208252</ele>
        <time>2012-05-01T10:18:40Z</time>
      </trkpt>
      <trkpt lat="47.94318" lon="2.16938">
        <ele>108.7662354</ele>
        <time>2012-05-01T10:18:55Z</time>
      </trkpt>
      <trkpt lat="47.94329" lon="2.16912">
        <ele>109.7276611</ele>
        <time>2012-05-01T10:19:10Z</time>
      </trkpt>
      <trkpt lat="47.94342" lon="2.1689">
        <ele>109.2469482</ele>
        <time>2012-05-01T10:19:25Z</time>
      </trkpt>
      <trkpt lat="47.94346" lon="2.16882">
        <ele>109.2469482</ele>
        <time>2012-05-01T10:19:30Z</time>
      </trkpt>
      <trkpt lat="47.94353" lon="2.1687">
        <ele>107.8050537</ele>
        <time>2012-05-01T10:19:45Z</time>
      </trkpt>
      <trkpt lat="47.94354" lon="2.16868">
        <ele>107.3243408</ele>
        <time>2012-05-01T10:19:59Z</time>
      </trkpt>
      <trkpt lat="47.94357" lon="2.16864">
        <ele>107.3243408</ele>
        <time>2012-05-01T10:20:03Z</time>
      </trkpt>
      <trkpt lat="47.94368" lon="2.16877">
        <ele>106.8436279</ele>
        <time>2012-05-01T10:20:17Z</time>
      </trkpt>
      <trkpt lat="47.94375" lon="2.1689">
        <ele>106.8436279</ele>
        <time>2012-05-01T10:20:26Z</time>
      </trkpt>
      <trkpt lat="47.94378" lon="2.16895">
        <ele>107.3243408</ele>
        <time>2012-05-01T10:20:43Z</time>
      </trkpt>
      <trkpt lat="47.94378" lon="2.16895">
        <ele>107.3243408</ele>
        <time>2012-05-01T10:20:59Z</time>
      </trkpt>
      <trkpt lat="47.94383" lon="2.16905">
        <ele>108.2856445</ele>
        <time>2012-05-01T10:21:06Z</time>
      </trkpt>
      <trkpt lat="47.94389" lon="2.16925">
        <ele>110.208252</ele>
        <time>2012-05-01T10:21:17Z</time>
      </trkpt>
      <trkpt lat="47.94397" lon="2.16945">
        <ele>112.1309814</ele>
        <time>2012-05-01T10:21:31Z</time>
      </trkpt>
      <trkpt lat="47.94401" lon="2.16956">
        <ele>113.572998</ele>
        <time>2012-05-01T10:22:02Z</time>
      </trkpt>
      <trkpt lat="47.94402" lon="2.16959">
        <ele>114.0535889</ele>
        <time>2012-05-01T10:23:20Z</time>
      </trkpt>
      <trkpt lat="47.9441" lon="2.16984">
        <ele>115.0148926</ele>
        <time>2012-05-01T10:23:35Z</time>
      </trkpt>
      <trkpt lat="47.94414" lon="2.16994">
        <ele>115.4956055</ele>
        <time>2012-05-01T10:23:40Z</time>
      </trkpt>
      <trkpt lat="47.9442" lon="2.17007">
        <ele>115.0148926</ele>
        <time>2012-05-01T10:23:48Z</time>
      </trkpt>
      <trkpt lat="47.94425" lon="2.17018">
        <ele>115.4956055</ele>
        <time>2012-05-01T10:23:54Z</time>
      </trkpt>
      <trkpt lat="47.94427" lon="2.17028">
        <ele>113.572998</ele>
        <time>2012-05-01T10:24:00Z</time>
      </trkpt>
      <trkpt lat="47.94432" lon="2.17045">
        <ele>109.7276611</ele>
        <time>2012-05-01T10:24:11Z</time>
      </trkpt>
      <trkpt lat="47.94438" lon="2.1707">
        <ele>104.9210205</ele>
        <time>2012-05-01T10:24:25Z</time>
      </trkpt>
      <trkpt lat="47.94442" lon="2.1708">
        <ele>102.5177002</ele>
        <time>2012-05-01T10:24:31Z</time>
      </trkpt>
      <trkpt lat="47.94442" lon="2.17083">
        <ele>101.0756836</ele>
        <time>2012-05-01T10:24:33Z</time>
      </trkpt>
      <trkpt lat="47.94445" lon="2.17094">
        <ele>98.1918945</ele>
        <time>2012-05-01T10:24:39Z</time>
      </trkpt>
      <trkpt lat="47.94456" lon="2.17119">
        <ele>95.3077393</ele>
        <time>2012-05-01T10:24:54Z</time>
      </trkpt>
      <trkpt lat="47.94458" lon="2.17124">
        <ele>94.8271484</ele>
        <time>2012-05-01T10:24:57Z</time>
      </trkpt>
      <trkpt lat="47.94461" lon="2.1713">
        <ele>94.3465576</ele>
        <time>2012-05-01T10:25:01Z</time>
      </trkpt>
      <trkpt lat="47.94466" lon="2.17145">
        <ele>91.9432373</ele>
        <time>2012-05-01T10:25:13Z</time>
      </trkpt>
      <trkpt lat="47.94474" lon="2.17163">
        <ele>95.3077393</ele>
        <time>2012-05-01T10:25:23Z</time>
      </trkpt>
      <trkpt lat="47.94478" lon="2.1717">
        <ele>96.2692871</ele>
        <time>2012-05-01T10:25:27Z</time>
      </trkpt>
      <trkpt lat="47.94482" lon="2.17185">
        <ele>98.1918945</ele>
        <time>2012-05-01T10:25:35Z</time>
      </trkpt>
      <trkpt lat="47.94484" lon="2.1719">
        <ele>97.7111816</ele>
        <time>2012-05-01T10:25:38Z</time>
      </trkpt>
      <trkpt lat="47.94487" lon="2.17198">
        <ele>95.7884521</ele>
        <time>2012-05-01T10:25:44Z</time>
      </trkpt>
      <trkpt lat="47.94492" lon="2.17212">
        <ele>93.3851318</ele>
        <time>2012-05-01T10:25:53Z</time>
      </trkpt>
      <trkpt lat="47.94494" lon="2.17215">
        <ele>93.3851318</ele>
        <time>2012-05-01T10:25:56Z</time>
      </trkpt>
      <trkpt lat="47.94502" lon="2.17226">
        <ele>90.9819336</ele>
        <time>2012-05-01T10:26:06Z</time>
      </trkpt>
      <trkpt lat="47.94506" lon="2.17236">
        <ele>91.9432373</ele>
        <time>2012-05-01T10:26:12Z</time>
      </trkpt>
      <trkpt lat="47.9451" lon="2.17247">
        <ele>91.9432373</ele>
        <time>2012-05-01T10:26:29Z</time>
      </trkpt>
      <trkpt lat="47.94512" lon="2.17255">
        <ele>92.904541</ele>
        <time>2012-05-01T10:26:43Z</time>
      </trkpt>
      <trkpt lat="47.94515" lon="2.17256">
        <ele>93.3851318</ele>
        <time>2012-05-01T10:26:46Z</time>
      </trkpt>
      <trkpt lat="47.94517" lon="2.17261">
        <ele>94.3465576</ele>
        <time>2012-05-01T10:26:49Z</time>
      </trkpt>
      <trkpt lat="47.94524" lon="2.17279">
        <ele>97.7111816</ele>
        <time>2012-05-01T10:26:59Z</time>
      </trkpt>
      <trkpt lat="47.94527" lon="2.17288">
        <ele>96.7498779</ele>
        <time>2012-05-01T10:27:04Z</time>
      </trkpt>
      <trkpt lat="47.94538" lon="2.17296">
        <ele>93.8658447</ele>
        <time>2012-05-01T10:27:13Z</time>
      </trkpt>
      <trkpt lat="47.94539" lon="2.17311">
        <ele>91.4625244</ele>
        <time>2012-05-01T10:27:24Z</time>
      </trkpt>
      <trkpt lat="47.9454" lon="2.17316">
        <ele>92.4239502</ele>
        <time>2012-05-01T10:27:35Z</time>
      </trkpt>
      <trkpt lat="47.94546" lon="2.17326">
        <ele>91.4625244</ele>
        <time>2012-05-01T10:27:43Z</time>
      </trkpt>
      <trkpt lat="47.94552" lon="2.17331">
        <ele>91.9432373</ele>
        <time>2012-05-01T10:27:50Z</time>
      </trkpt>
      <trkpt lat="47.94557" lon="2.17338">
        <ele>91.9432373</ele>
        <time>2012-05-01T10:27:57Z</time>
      </trkpt>
      <trkpt lat="47.94562" lon="2.17345">
        <ele>91.4625244</ele>
        <time>2012-05-01T10:28:03Z</time>
      </trkpt>
      <trkpt lat="47.94565" lon="2.1735">
        <ele>91.9432373</ele>
        <time>2012-05-01T10:28:07Z</time>
      </trkpt>
      <trkpt lat="47.94568" lon="2.17355">
        <ele>91.9432373</ele>
        <time>2012-05-01T10:28:12Z</time>
      </trkpt>
      <trkpt lat="47.94573" lon="2.1736">
        <ele>90.0206299</ele>
        <time>2012-05-01T10:28:17Z</time>
      </trkpt>
      <trkpt lat="47.94577" lon="2.17367">
        <ele>87.6171875</ele>
        <time>2012-05-01T10:28:25Z</time>
      </trkpt>
      <trkpt lat="47.94585" lon="2.17377">
        <ele>85.6945801</ele>
        <time>2012-05-01T10:28:34Z</time>
      </trkpt>
      <trkpt lat="47.94585" lon="2.17379">
        <ele>85.2139893</ele>
        <time>2012-05-01T10:28:35Z</time>
      </trkpt>
      <trkpt lat="47.94587" lon="2.17381">
        <ele>84.7333984</ele>
        <time>2012-05-01T10:28:37Z</time>
      </trkpt>
      <trkpt lat="47.94591" lon="2.174">
        <ele>87.1365967</ele>
        <time>2012-05-01T10:28:48Z</time>
      </trkpt>
      <trkpt lat="47.94591" lon="2.17404">
        <ele>88.5787354</ele>
        <time>2012-05-01T10:28:52Z</time>
      </trkpt>
      <trkpt lat="47.94592" lon="2.1741">
        <ele>88.5787354</ele>
        <time>2012-05-01T10:28:55Z</time>
      </trkpt>
      <trkpt lat="47.94594" lon="2.17417">
        <ele>88.5787354</ele>
        <time>2012-05-01T10:29:10Z</time>
      </trkpt>
      <trkpt lat="47.94595" lon="2.17421">
        <ele>89.539917</ele>
        <time>2012-05-01T10:29:12Z</time>
      </trkpt>
      <trkpt lat="47.94594" lon="2.17437">
        <ele>90.9819336</ele>
        <time>2012-05-01T10:29:18Z</time>
      </trkpt>
      <trkpt lat="47.94601" lon="2.17449">
        <ele>91.9432373</ele>
        <time>2012-05-01T10:29:26Z</time>
      </trkpt>
      <trkpt lat="47.94602" lon="2.1747">
        <ele>94.8271484</ele>
        <time>2012-05-01T10:29:33Z</time>
      </trkpt>
      <trkpt lat="47.94604" lon="2.17479">
        <ele>96.7498779</ele>
        <time>2012-05-01T10:29:37Z</time>
      </trkpt>
      <trkpt lat="47.9461" lon="2.17496">
        <ele>96.7498779</ele>
        <time>2012-05-01T10:29:47Z</time>
      </trkpt>
      <trkpt lat="47.94611" lon="2.175">
        <ele>96.7498779</ele>
        <time>2012-05-01T10:29:49Z</time>
      </trkpt>
      <trkpt lat="47.9462" lon="2.17513">
        <ele>98.6724854</ele>
        <time>2012-05-01T10:29:58Z</time>
      </trkpt>
      <trkpt lat="47.94623" lon="2.17522">
        <ele>99.1530762</ele>
        <time>2012-05-01T10:30:03Z</time>
      </trkpt>
      <trkpt lat="47.94623" lon="2.17526">
        <ele>99.1530762</ele>
        <time>2012-05-01T10:30:05Z</time>
      </trkpt>
      <trkpt lat="47.94626" lon="2.17531">
        <ele>100.114502</ele>
        <time>2012-05-01T10:30:19Z</time>
      </trkpt>
      <trkpt lat="47.94628" lon="2.17534">
        <ele>100.114502</ele>
        <time>2012-05-01T10:30:22Z</time>
      </trkpt>
      <trkpt lat="47.94634" lon="2.17553">
        <ele>102.998291</ele>
        <time>2012-05-01T10:30:32Z</time>
      </trkpt>
      <trkpt lat="47.94635" lon="2.1756">
        <ele>102.5177002</ele>
        <time>2012-05-01T10:30:36Z</time>
      </trkpt>
      <trkpt lat="47.94641" lon="2.17567">
        <ele>101.5563965</ele>
        <time>2012-05-01T10:30:41Z</time>
      </trkpt>
      <trkpt lat="47.94645" lon="2.17577">
        <ele>101.0756836</ele>
        <time>2012-05-01T10:30:46Z</time>
      </trkpt>
      <trkpt lat="47.94647" lon="2.17592">
        <ele>98.6724854</ele>
        <time>2012-05-01T10:30:56Z</time>
      </trkpt>
      <trkpt lat="47.94665" lon="2.17628">
        <ele>83.2913818</ele>
        <time>2012-05-01T10:31:44Z</time>
      </trkpt>
      <trkpt lat="47.94679" lon="2.17661">
        <ele>77.0428467</ele>
        <time>2012-05-01T10:32:09Z</time>
      </trkpt>
      <trkpt lat="47.94688" lon="2.17685">
        <ele>71.7554932</ele>
        <time>2012-05-01T10:32:25Z</time>
      </trkpt>
      <trkpt lat="47.94689" lon="2.1769">
        <ele>71.2749023</ele>
        <time>2012-05-01T10:32:27Z</time>
      </trkpt>
      <trkpt lat="47.94701" lon="2.17719">
        <ele>65.0263672</ele>
        <time>2012-05-01T10:32:45Z</time>
      </trkpt>
      <trkpt lat="47.94701" lon="2.1772">
        <ele>65.0263672</ele>
        <time>2012-05-01T10:32:46Z</time>
      </trkpt>
      <trkpt lat="47.94707" lon="2.1774">
        <ele>75.6008301</ele>
        <time>2012-05-01T10:33:02Z</time>
      </trkpt>
      <trkpt lat="47.94712" lon="2.17751">
        <ele>78.9654541</ele>
        <time>2012-05-01T10:33:12Z</time>
      </trkpt>
      <trkpt lat="47.94722" lon="2.17786">
        <ele>72.2362061</ele>
        <time>2012-05-01T10:33:37Z</time>
      </trkpt>
      <trkpt lat="47.94735" lon="2.1782">
        <ele>65.0263672</ele>
        <time>2012-05-01T10:33:59Z</time>
      </trkpt>
      <trkpt lat="47.94749" lon="2.17842">
        <ele>66.9489746</ele>
        <time>2012-05-01T10:34:11Z</time>
      </trkpt>
      <trkpt lat="47.94758" lon="2.17856">
        <ele>68.871582</ele>
        <time>2012-05-01T10:34:21Z</time>
      </trkpt>
      <trkpt lat="47.9476" lon="2.17865">
        <ele>70.3134766</ele>
        <time>2012-05-01T10:34:26Z</time>
      </trkpt>
      <trkpt lat="47.94772" lon="2.17886">
        <ele>72.7169189</ele>
        <time>2012-05-01T10:34:39Z</time>
      </trkpt>
      <trkpt lat="47.94777" lon="2.17894">
        <ele>73.1976318</ele>
        <time>2012-05-01T10:34:45Z</time>
      </trkpt>
      <trkpt lat="47.94778" lon="2.17905">
        <ele>73.1976318</ele>
        <time>2012-05-01T10:34:51Z</time>
      </trkpt>
      <trkpt lat="47.94783" lon="2.1792">
        <ele>84.2526855</ele>
        <time>2012-05-01T10:35:06Z</time>
      </trkpt>
      <trkpt lat="47.94785" lon="2.17924">
        <ele>86.6560059</ele>
        <time>2012-05-01T10:35:10Z</time>
      </trkpt>
      <trkpt lat="47.94789" lon="2.17931">
        <ele>87.6171875</ele>
        <time>2012-05-01T10:35:20Z</time>
      </trkpt>
      <trkpt lat="47.9479" lon="2.17933">
        <ele>88.0980225</ele>
        <time>2012-05-01T10:35:22Z</time>
      </trkpt>
      <trkpt lat="47.94792" lon="2.17936">
        <ele>89.0593262</ele>
        <time>2012-05-01T10:35:24Z</time>
      </trkpt>
      <trkpt lat="47.94801" lon="2.17957">
        <ele>93.3851318</ele>
        <time>2012-05-01T10:35:34Z</time>
      </trkpt>
      <trkpt lat="47.94807" lon="2.17967">
        <ele>96.2692871</ele>
        <time>2012-05-01T10:35:41Z</time>
      </trkpt>
      <trkpt lat="47.94812" lon="2.17977">
        <ele>98.1918945</ele>
        <time>2012-05-01T10:35:47Z</time>
      </trkpt>
      <trkpt lat="47.94818" lon="2.17993">
        <ele>99.1530762</ele>
        <time>2012-05-01T10:35:56Z</time>
      </trkpt>
      <trkpt lat="47.9482" lon="2.18002">
        <ele>99.6337891</ele>
        <time>2012-05-01T10:36:01Z</time>
      </trkpt>
      <trkpt lat="47.94825" lon="2.18016">
        <ele>99.1530762</ele>
        <time>2012-05-01T10:36:11Z</time>
      </trkpt>
      <trkpt lat="47.94826" lon="2.18021">
        <ele>99.1530762</ele>
        <time>2012-05-01T10:36:14Z</time>
      </trkpt>
      <trkpt lat="47.94839" lon="2.18039">
        <ele>99.6337891</ele>
        <time>2012-05-01T10:36:26Z</time>
      </trkpt>
      <trkpt lat="47.94845" lon="2.18055">
        <ele>98.1918945</ele>
        <time>2012-05-01T10:36:35Z</time>
      </trkpt>
      <trkpt lat="47.9485" lon="2.18062">
        <ele>97.7111816</ele>
        <time>2012-05-01T10:36:40Z</time>
      </trkpt>
      <trkpt lat="47.94855" lon="2.1808">
        <ele>96.7498779</ele>
        <time>2012-05-01T10:36:51Z</time>
      </trkpt>
      <trkpt lat="47.94857" lon="2.18088">
        <ele>97.7111816</ele>
        <time>2012-05-01T10:36:56Z</time>
      </trkpt>
      <trkpt lat="47.94866" lon="2.18104">
        <ele>99.6337891</ele>
        <time>2012-05-01T10:37:05Z</time>
      </trkpt>
      <trkpt lat="47.94873" lon="2.18118">
        <ele>102.0371094</ele>
        <time>2012-05-01T10:37:13Z</time>
      </trkpt>
      <trkpt lat="47.94876" lon="2.18125">
        <ele>102.998291</ele>
        <time>2012-05-01T10:37:17Z</time>
      </trkpt>
      <trkpt lat="47.94886" lon="2.18142">
        <ele>102.5177002</ele>
        <time>2012-05-01T10:37:29Z</time>
      </trkpt>
      <trkpt lat="47.94892" lon="2.18162">
        <ele>103.4790039</ele>
        <time>2012-05-01T10:37:40Z</time>
      </trkpt>
      <trkpt lat="47.94898" lon="2.18173">
        <ele>104.4404297</ele>
        <time>2012-05-01T10:37:47Z</time>
      </trkpt>
      <trkpt lat="47.949" lon="2.18179">
        <ele>103.9597168</ele>
        <time>2012-05-01T10:38:04Z</time>
      </trkpt>
      <trkpt lat="47.94903" lon="2.18186">
        <ele>104.9210205</ele>
        <time>2012-05-01T10:38:16Z</time>
      </trkpt>
      <trkpt lat="47.94906" lon="2.18192">
        <ele>104.9210205</ele>
        <time>2012-05-01T10:38:20Z</time>
      </trkpt>
      <trkpt lat="47.94916" lon="2.18212">
        <ele>102.998291</ele>
        <time>2012-05-01T10:38:33Z</time>
      </trkpt>
      <trkpt lat="47.94919" lon="2.18216">
        <ele>102.998291</ele>
        <time>2012-05-01T10:38:36Z</time>
      </trkpt>
      <trkpt lat="47.94921" lon="2.18221">
        <ele>103.4790039</ele>
        <time>2012-05-01T10:38:39Z</time>
      </trkpt>
      <trkpt lat="47.94925" lon="2.18228">
        <ele>102.998291</ele>
        <time>2012-05-01T10:38:44Z</time>
      </trkpt>
      <trkpt lat="47.94929" lon="2.18235">
        <ele>101.0756836</ele>
        <time>2012-05-01T10:38:49Z</time>
      </trkpt>
      <trkpt lat="47.94933" lon="2.18242">
        <ele>100.114502</ele>
        <time>2012-05-01T10:38:55Z</time>
      </trkpt>
      <trkpt lat="47.94936" lon="2.18253">
        <ele>100.114502</ele>
        <time>2012-05-01T10:39:01Z</time>
      </trkpt>
      <trkpt lat="47.94938" lon="2.18256">
        <ele>100.114502</ele>
        <time>2012-05-01T10:39:03Z</time>
      </trkpt>
      <trkpt lat="47.94946" lon="2.18267">
        <ele>97.2304688</ele>
        <time>2012-05-01T10:39:13Z</time>
      </trkpt>
      <trkpt lat="47.94949" lon="2.18272">
        <ele>96.2692871</ele>
        <time>2012-05-01T10:39:17Z</time>
      </trkpt>
      <trkpt lat="47.94952" lon="2.18274">
        <ele>94.8271484</ele>
        <time>2012-05-01T10:39:20Z</time>
      </trkpt>
      <trkpt lat="47.94957" lon="2.18284">
        <ele>92.904541</ele>
        <time>2012-05-01T10:39:27Z</time>
      </trkpt>
      <trkpt lat="47.94961" lon="2.18301">
        <ele>91.4625244</ele>
        <time>2012-05-01T10:39:36Z</time>
      </trkpt>
      <trkpt lat="47.94965" lon="2.18304">
        <ele>91.4625244</ele>
        <time>2012-05-01T10:39:39Z</time>
      </trkpt>
      <trkpt lat="47.94968" lon="2.18308">
        <ele>91.9432373</ele>
        <time>2012-05-01T10:39:42Z</time>
      </trkpt>
      <trkpt lat="47.94974" lon="2.18322">
        <ele>92.904541</ele>
        <time>2012-05-01T10:39:51Z</time>
      </trkpt>
      <trkpt lat="47.9498" lon="2.18327">
        <ele>91.9432373</ele>
        <time>2012-05-01T10:39:56Z</time>
      </trkpt>
      <trkpt lat="47.94986" lon="2.18334">
        <ele>88.0980225</ele>
        <time>2012-05-01T10:40:03Z</time>
      </trkpt>
      <trkpt lat="47.94988" lon="2.1834">
        <ele>86.175293</ele>
        <time>2012-05-01T10:40:07Z</time>
      </trkpt>
      <trkpt lat="47.94994" lon="2.18348">
        <ele>82.3300781</ele>
        <time>2012-05-01T10:40:15Z</time>
      </trkpt>
      <trkpt lat="47.94996" lon="2.18359">
        <ele>80.4074707</ele>
        <time>2012-05-01T10:40:21Z</time>
      </trkpt>
      <trkpt lat="47.95" lon="2.18365">
        <ele>80.4074707</ele>
        <time>2012-05-01T10:40:32Z</time>
      </trkpt>
      <trkpt lat="47.95" lon="2.18366">
        <ele>80.4074707</ele>
        <time>2012-05-01T10:40:33Z</time>
      </trkpt>
      <trkpt lat="47.95003" lon="2.18372">
        <ele>81.8493652</ele>
        <time>2012-05-01T10:40:48Z</time>
      </trkpt>
      <trkpt lat="47.95008" lon="2.18378">
        <ele>78.4847412</ele>
        <time>2012-05-01T10:41:01Z</time>
      </trkpt>
      <trkpt lat="47.9501" lon="2.18384">
        <ele>80.8881836</ele>
        <time>2012-05-01T10:41:30Z</time>
      </trkpt>
      <trkpt lat="47.95011" lon="2.18388">
        <ele>81.3687744</ele>
        <time>2012-05-01T10:41:57Z</time>
      </trkpt>
      <trkpt lat="47.95014" lon="2.18401">
        <ele>82.3300781</ele>
        <time>2012-05-01T10:42:02Z</time>
      </trkpt>
      <trkpt lat="47.95015" lon="2.18408">
        <ele>82.3300781</ele>
        <time>2012-05-01T10:42:05Z</time>
      </trkpt>
      <trkpt lat="47.95018" lon="2.1841">
        <ele>82.3300781</ele>
        <time>2012-05-01T10:42:07Z</time>
      </trkpt>
      <trkpt lat="47.95022" lon="2.18425">
        <ele>82.3300781</ele>
        <time>2012-05-01T10:42:16Z</time>
      </trkpt>
      <trkpt lat="47.95022" lon="2.18427">
        <ele>81.8493652</ele>
        <time>2012-05-01T10:42:17Z</time>
      </trkpt>
      <trkpt lat="47.95026" lon="2.18448">
        <ele>79.4460449</ele>
        <time>2012-05-01T10:42:30Z</time>
      </trkpt>
      <trkpt lat="47.95031" lon="2.18464">
        <ele>71.2749023</ele>
        <time>2012-05-01T10:42:47Z</time>
      </trkpt>
      <trkpt lat="47.95053" lon="2.18544">
        <ele>62.6229248</ele>
        <time>2012-05-01T10:43:46Z</time>
      </trkpt>
      <trkpt lat="47.95057" lon="2.18557">
        <ele>62.142334</ele>
        <time>2012-05-01T10:43:54Z</time>
      </trkpt>
      <trkpt lat="47.95061" lon="2.18575">
        <ele>70.3134766</ele>
        <time>2012-05-01T10:44:03Z</time>
      </trkpt>
      <trkpt lat="47.95067" lon="2.18585">
        <ele>70.7941895</ele>
        <time>2012-05-01T10:44:13Z</time>
      </trkpt>
      <trkpt lat="47.95071" lon="2.186">
        <ele>66.4682617</ele>
        <time>2012-05-01T10:44:23Z</time>
      </trkpt>
      <trkpt lat="47.95077" lon="2.18648">
        <ele>71.7554932</ele>
        <time>2012-05-01T10:44:45Z</time>
      </trkpt>
      <trkpt lat="47.95097" lon="2.18704">
        <ele>83.2913818</ele>
        <time>2012-05-01T10:47:10Z</time>
      </trkpt>
      <trkpt lat="47.95105" lon="2.18727">
        <ele>82.810791</ele>
        <time>2012-05-01T10:47:26Z</time>
      </trkpt>
      <trkpt lat="47.95106" lon="2.1873">
        <ele>82.810791</ele>
        <time>2012-05-01T10:47:28Z</time>
      </trkpt>
      <trkpt lat="47.95107" lon="2.18745">
        <ele>83.2913818</ele>
        <time>2012-05-01T10:47:36Z</time>
      </trkpt>
      <trkpt lat="47.9511" lon="2.18749">
        <ele>84.7333984</ele>
        <time>2012-05-01T10:47:39Z</time>
      </trkpt>
      <trkpt lat="47.95113" lon="2.18761">
        <ele>83.7719727</ele>
        <time>2012-05-01T10:47:45Z</time>
      </trkpt>
      <trkpt lat="47.9512" lon="2.18773">
        <ele>82.3300781</ele>
        <time>2012-05-01T10:47:54Z</time>
      </trkpt>
      <trkpt lat="47.95128" lon="2.18786">
        <ele>81.8493652</ele>
        <time>2012-05-01T10:48:05Z</time>
      </trkpt>
      <trkpt lat="47.95132" lon="2.18796">
        <ele>78.4847412</ele>
        <time>2012-05-01T10:48:15Z</time>
      </trkpt>
      <trkpt lat="47.95136" lon="2.18809">
        <ele>77.0428467</ele>
        <time>2012-05-01T10:48:23Z</time>
      </trkpt>
      <trkpt lat="47.95139" lon="2.18816">
        <ele>77.5234375</ele>
        <time>2012-05-01T10:48:28Z</time>
      </trkpt>
      <trkpt lat="47.95139" lon="2.1882">
        <ele>78.0040283</ele>
        <time>2012-05-01T10:48:30Z</time>
      </trkpt>
      <trkpt lat="47.95143" lon="2.18832">
        <ele>78.4847412</ele>
        <time>2012-05-01T10:48:38Z</time>
      </trkpt>
      <trkpt lat="47.95145" lon="2.18838">
        <ele>78.9654541</ele>
        <time>2012-05-01T10:48:42Z</time>
      </trkpt>
      <trkpt lat="47.95149" lon="2.18848">
        <ele>79.9266357</ele>
        <time>2012-05-01T10:48:54Z</time>
      </trkpt>
      <trkpt lat="47.95152" lon="2.18853">
        <ele>82.3300781</ele>
        <time>2012-05-01T10:49:18Z</time>
      </trkpt>
      <trkpt lat="47.95156" lon="2.18868">
        <ele>84.7333984</ele>
        <time>2012-05-01T10:49:37Z</time>
      </trkpt>
      <trkpt lat="47.95156" lon="2.18875">
        <ele>85.6945801</ele>
        <time>2012-05-01T10:49:40Z</time>
      </trkpt>
      <trkpt lat="47.95153" lon="2.18894">
        <ele>93.8658447</ele>
        <time>2012-05-01T10:50:00Z</time>
      </trkpt>
      <trkpt lat="47.95154" lon="2.18902">
        <ele>98.1918945</ele>
        <time>2012-05-01T10:50:14Z</time>
      </trkpt>
      <trkpt lat="47.95156" lon="2.1891">
        <ele>99.6337891</ele>
        <time>2012-05-01T10:50:19Z</time>
      </trkpt>
      <trkpt lat="47.95159" lon="2.1892">
        <ele>100.114502</ele>
        <time>2012-05-01T10:50:26Z</time>
      </trkpt>
      <trkpt lat="47.95162" lon="2.18932">
        <ele>101.0756836</ele>
        <time>2012-05-01T10:50:32Z</time>
      </trkpt>
      <trkpt lat="47.95165" lon="2.18937">
        <ele>101.5563965</ele>
        <time>2012-05-01T10:50:35Z</time>
      </trkpt>
      <trkpt lat="47.95171" lon="2.18945">
        <ele>102.0371094</ele>
        <time>2012-05-01T10:50:42Z</time>
      </trkpt>
      <trkpt lat="47.95174" lon="2.18952">
        <ele>101.5563965</ele>
        <time>2012-05-01T10:50:45Z</time>
      </trkpt>
      <trkpt lat="47.95177" lon="2.18964">
        <ele>98.6724854</ele>
        <time>2012-05-01T10:50:52Z</time>
      </trkpt>
      <trkpt lat="47.95179" lon="2.18968">
        <ele>97.7111816</ele>
        <time>2012-05-01T10:50:54Z</time>
      </trkpt>
      <trkpt lat="47.95182" lon="2.18979">
        <ele>95.7884521</ele>
        <time>2012-05-01T10:51:00Z</time>
      </trkpt>
      <trkpt lat="47.95188" lon="2.18994">
        <ele>93.3851318</ele>
        <time>2012-05-01T10:51:08Z</time>
      </trkpt>
      <trkpt lat="47.95192" lon="2.18998">
        <ele>92.4239502</ele>
        <time>2012-05-01T10:51:11Z</time>
      </trkpt>
      <trkpt lat="47.95199" lon="2.1902">
        <ele>89.0593262</ele>
        <time>2012-05-01T10:51:23Z</time>
      </trkpt>
      <trkpt lat="47.95204" lon="2.19032">
        <ele>86.175293</ele>
        <time>2012-05-01T10:51:31Z</time>
      </trkpt>
      <trkpt lat="47.95207" lon="2.19038">
        <ele>85.2139893</ele>
        <time>2012-05-01T10:51:36Z</time>
      </trkpt>
      <trkpt lat="47.9521" lon="2.1905">
        <ele>83.2913818</ele>
        <time>2012-05-01T10:51:42Z</time>
      </trkpt>
      <trkpt lat="47.95211" lon="2.19056">
        <ele>82.810791</ele>
        <time>2012-05-01T10:51:45Z</time>
      </trkpt>
      <trkpt lat="47.95217" lon="2.19073">
        <ele>82.810791</ele>
        <time>2012-05-01T10:51:55Z</time>
      </trkpt>
      <trkpt lat="47.9522" lon="2.19092">
        <ele>83.7719727</ele>
        <time>2012-05-01T10:52:05Z</time>
      </trkpt>
      <trkpt lat="47.95226" lon="2.19106">
        <ele>82.810791</ele>
        <time>2012-05-01T10:52:15Z</time>
      </trkpt>
      <trkpt lat="47.95233" lon="2.19128">
        <ele>83.7719727</ele>
        <time>2012-05-01T10:52:26Z</time>
      </trkpt>
      <trkpt lat="47.95238" lon="2.19141">
        <ele>81.3687744</ele>
        <time>2012-05-01T10:52:34Z</time>
      </trkpt>
      <trkpt lat="47.95246" lon="2.19158">
        <ele>76.0814209</ele>
        <time>2012-05-01T10:52:46Z</time>
      </trkpt>
      <trkpt lat="47.95247" lon="2.1916">
        <ele>74.6395264</ele>
        <time>2012-05-01T10:52:48Z</time>
      </trkpt>
      <trkpt lat="47.9525" lon="2.19166">
        <ele>72.2362061</ele>
        <time>2012-05-01T10:52:53Z</time>
      </trkpt>
      <trkpt lat="47.95251" lon="2.19169">
        <ele>71.2749023</ele>
        <time>2012-05-01T10:52:55Z</time>
      </trkpt>
      <trkpt lat="47.95257" lon="2.19192">
        <ele>68.3908691</ele>
        <time>2012-05-01T10:53:08Z</time>
      </trkpt>
      <trkpt lat="47.95259" lon="2.19201">
        <ele>68.3908691</ele>
        <time>2012-05-01T10:53:12Z</time>
      </trkpt>
      <trkpt lat="47.95261" lon="2.19204">
        <ele>68.3908691</ele>
        <time>2012-05-01T10:53:15Z</time>
      </trkpt>
      <trkpt lat="47.95263" lon="2.19211">
        <ele>68.3908691</ele>
        <time>2012-05-01T10:53:18Z</time>
      </trkpt>
      <trkpt lat="47.95265" lon="2.19217">
        <ele>67.4296875</ele>
        <time>2012-05-01T10:53:23Z</time>
      </trkpt>
      <trkpt lat="47.95268" lon="2.19224">
        <ele>68.3908691</ele>
        <time>2012-05-01T10:53:27Z</time>
      </trkpt>
      <trkpt lat="47.95272" lon="2.19227">
        <ele>68.3908691</ele>
        <time>2012-05-01T10:53:31Z</time>
      </trkpt>
      <trkpt lat="47.95275" lon="2.19241">
        <ele>70.7941895</ele>
        <time>2012-05-01T10:53:37Z</time>
      </trkpt>
      <trkpt lat="47.95276" lon="2.19249">
        <ele>71.2749023</ele>
        <time>2012-05-01T10:53:40Z</time>
      </trkpt>
      <trkpt lat="47.95284" lon="2.19278">
        <ele>72.7169189</ele>
        <time>2012-05-01T10:53:54Z</time>
      </trkpt>
      <trkpt lat="47.95289" lon="2.19301">
        <ele>70.7941895</ele>
        <time>2012-05-01T10:54:06Z</time>
      </trkpt>
      <trkpt lat="47.9529" lon="2.19307">
        <ele>70.3134766</ele>
        <time>2012-05-01T10:54:09Z</time>
      </trkpt>
      <trkpt lat="47.95291" lon="2.1931">
        <ele>69.3522949</ele>
        <time>2012-05-01T10:54:11Z</time>
      </trkpt>
      <trkpt lat="47.95292" lon="2.19313">
        <ele>69.8328857</ele>
        <time>2012-05-01T10:54:13Z</time>
      </trkpt>
      <trkpt lat="47.95296" lon="2.19325">
        <ele>68.871582</ele>
        <time>2012-05-01T10:54:20Z</time>
      </trkpt>
      <trkpt lat="47.95297" lon="2.1933">
        <ele>68.871582</ele>
        <time>2012-05-01T10:54:22Z</time>
      </trkpt>
      <trkpt lat="47.953" lon="2.1934">
        <ele>68.3908691</ele>
        <time>2012-05-01T10:54:28Z</time>
      </trkpt>
      <trkpt lat="47.95306" lon="2.19356">
        <ele>65.5070801</ele>
        <time>2012-05-01T10:54:39Z</time>
      </trkpt>
      <trkpt lat="47.9531" lon="2.1936">
        <ele>65.0263672</ele>
        <time>2012-05-01T10:54:43Z</time>
      </trkpt>
      <trkpt lat="47.95313" lon="2.19363">
        <ele>65.0263672</ele>
        <time>2012-05-01T10:54:46Z</time>
      </trkpt>
      <trkpt lat="47.95316" lon="2.19384">
        <ele>65.0263672</ele>
        <time>2012-05-01T10:54:57Z</time>
      </trkpt>
      <trkpt lat="47.95319" lon="2.194">
        <ele>66.4682617</ele>
        <time>2012-05-01T10:55:04Z</time>
      </trkpt>
      <trkpt lat="47.95324" lon="2.19416">
        <ele>68.3908691</ele>
        <time>2012-05-01T10:55:13Z</time>
      </trkpt>
      <trkpt lat="47.95333" lon="2.19441">
        <ele>70.3134766</ele>
        <time>2012-05-01T10:55:27Z</time>
      </trkpt>
      <trkpt lat="47.95335" lon="2.1945">
        <ele>69.8328857</ele>
        <time>2012-05-01T10:55:32Z</time>
      </trkpt>
      <trkpt lat="47.95341" lon="2.19467">
        <ele>72.2362061</ele>
        <time>2012-05-01T10:55:41Z</time>
      </trkpt>
      <trkpt lat="47.95342" lon="2.19474">
        <ele>74.1588135</ele>
        <time>2012-05-01T10:55:44Z</time>
      </trkpt>
      <trkpt lat="47.95344" lon="2.19485">
        <ele>75.6008301</ele>
        <time>2012-05-01T10:55:49Z</time>
      </trkpt>
      <trkpt lat="47.95349" lon="2.19496">
        <ele>76.0814209</ele>
        <time>2012-05-01T10:55:55Z</time>
      </trkpt>
      <trkpt lat="47.95352" lon="2.19511">
        <ele>77.5234375</ele>
        <time>2012-05-01T10:56:02Z</time>
      </trkpt>
      <trkpt lat="47.95358" lon="2.19522">
        <ele>74.6395264</ele>
        <time>2012-05-01T10:56:09Z</time>
      </trkpt>
      <trkpt lat="47.95365" lon="2.19547">
        <ele>73.6782227</ele>
        <time>2012-05-01T10:56:23Z</time>
      </trkpt>
      <trkpt lat="47.95366" lon="2.19552">
        <ele>73.1976318</ele>
        <time>2012-05-01T10:56:26Z</time>
      </trkpt>
      <trkpt lat="47.9537" lon="2.19562">
        <ele>73.6782227</ele>
        <time>2012-05-01T10:56:32Z</time>
      </trkpt>
      <trkpt lat="47.95372" lon="2.19569">
        <ele>72.2362061</ele>
        <time>2012-05-01T10:56:36Z</time>
      </trkpt>
      <trkpt lat="47.95377" lon="2.19579">
        <ele>71.2749023</ele>
        <time>2012-05-01T10:56:43Z</time>
      </trkpt>
      <trkpt lat="47.95379" lon="2.19588">
        <ele>73.1976318</ele>
        <time>2012-05-01T10:56:48Z</time>
      </trkpt>
      <trkpt lat="47.9538" lon="2.19593">
        <ele>73.6782227</ele>
        <time>2012-05-01T10:56:50Z</time>
      </trkpt>
      <trkpt lat="47.95382" lon="2.19597">
        <ele>74.1588135</ele>
        <time>2012-05-01T10:56:53Z</time>
      </trkpt>
      <trkpt lat="47.95385" lon="2.1961">
        <ele>74.6395264</ele>
        <time>2012-05-01T10:57:00Z</time>
      </trkpt>
      <trkpt lat="47.95389" lon="2.19619">
        <ele>76.5621338</ele>
        <time>2012-05-01T10:57:07Z</time>
      </trkpt>
      <trkpt lat="47.95395" lon="2.19635">
        <ele>75.1202393</ele>
        <time>2012-05-01T10:57:17Z</time>
      </trkpt>
      <trkpt lat="47.95395" lon="2.1964">
        <ele>75.1202393</ele>
        <time>2012-05-01T10:57:19Z</time>
      </trkpt>
      <trkpt lat="47.95404" lon="2.19665">
        <ele>73.1976318</ele>
        <time>2012-05-01T10:57:33Z</time>
      </trkpt>
      <trkpt lat="47.9541" lon="2.19678">
        <ele>75.1202393</ele>
        <time>2012-05-01T10:57:42Z</time>
      </trkpt>
      <trkpt lat="47.95415" lon="2.19697">
        <ele>78.0040283</ele>
        <time>2012-05-01T10:57:52Z</time>
      </trkpt>
      <trkpt lat="47.95417" lon="2.19699">
        <ele>79.9266357</ele>
        <time>2012-05-01T10:57:54Z</time>
      </trkpt>
      <trkpt lat="47.95422" lon="2.19717">
        <ele>82.810791</ele>
        <time>2012-05-01T10:58:03Z</time>
      </trkpt>
      <trkpt lat="47.95425" lon="2.19726">
        <ele>83.7719727</ele>
        <time>2012-05-01T10:58:08Z</time>
      </trkpt>
      <trkpt lat="47.95428" lon="2.19733">
        <ele>83.2913818</ele>
        <time>2012-05-01T10:58:13Z</time>
      </trkpt>
      <trkpt lat="47.95431" lon="2.19744">
        <ele>85.2139893</ele>
        <time>2012-05-01T10:58:18Z</time>
      </trkpt>
      <trkpt lat="47.95432" lon="2.1976">
        <ele>88.0980225</ele>
        <time>2012-05-01T10:58:35Z</time>
      </trkpt>
      <trkpt lat="47.95431" lon="2.19773">
        <ele>95.3077393</ele>
        <time>2012-05-01T10:58:46Z</time>
      </trkpt>
      <trkpt lat="47.95433" lon="2.19786">
        <ele>100.5950928</ele>
        <time>2012-05-01T10:58:53Z</time>
      </trkpt>
      <trkpt lat="47.95443" lon="2.19805">
        <ele>102.998291</ele>
        <time>2012-05-01T10:59:06Z</time>
      </trkpt>
      <trkpt lat="47.95449" lon="2.19817">
        <ele>101.0756836</ele>
        <time>2012-05-01T10:59:14Z</time>
      </trkpt>
      <trkpt lat="47.95453" lon="2.19826">
        <ele>99.1530762</ele>
        <time>2012-05-01T10:59:20Z</time>
      </trkpt>
      <trkpt lat="47.95455" lon="2.19828">
        <ele>98.6724854</ele>
        <time>2012-05-01T10:59:22Z</time>
      </trkpt>
      <trkpt lat="47.95458" lon="2.19839">
        <ele>97.2304688</ele>
        <time>2012-05-01T10:59:28Z</time>
      </trkpt>
      <trkpt lat="47.95458" lon="2.19843">
        <ele>96.2692871</ele>
        <time>2012-05-01T10:59:30Z</time>
      </trkpt>
      <trkpt lat="47.95459" lon="2.19846">
        <ele>96.7498779</ele>
        <time>2012-05-01T10:59:32Z</time>
      </trkpt>
      <trkpt lat="47.95466" lon="2.19862">
        <ele>95.7884521</ele>
        <time>2012-05-01T10:59:43Z</time>
      </trkpt>
      <trkpt lat="47.9547" lon="2.19873">
        <ele>95.7884521</ele>
        <time>2012-05-01T10:59:49Z</time>
      </trkpt>
      <trkpt lat="47.95478" lon="2.19893">
        <ele>96.7498779</ele>
        <time>2012-05-01T11:00:01Z</time>
      </trkpt>
      <trkpt lat="47.95483" lon="2.19914">
        <ele>95.7884521</ele>
        <time>2012-05-01T11:00:14Z</time>
      </trkpt>
      <trkpt lat="47.95487" lon="2.19916">
        <ele>91.9432373</ele>
        <time>2012-05-01T11:00:20Z</time>
      </trkpt>
      <trkpt lat="47.9549" lon="2.19921">
        <ele>90.0206299</ele>
        <time>2012-05-01T11:00:25Z</time>
      </trkpt>
      <trkpt lat="47.95492" lon="2.1993">
        <ele>89.539917</ele>
        <time>2012-05-01T11:00:32Z</time>
      </trkpt>
      <trkpt lat="47.95493" lon="2.19937">
        <ele>90.5013428</ele>
        <time>2012-05-01T11:00:36Z</time>
      </trkpt>
      <trkpt lat="47.95496" lon="2.1995">
        <ele>92.4239502</ele>
        <time>2012-05-01T11:00:48Z</time>
      </trkpt>
      <trkpt lat="47.95496" lon="2.19959">
        <ele>95.7884521</ele>
        <time>2012-05-01T11:01:30Z</time>
      </trkpt>
      <trkpt lat="47.95493" lon="2.19972">
        <ele>103.4790039</ele>
        <time>2012-05-01T11:02:15Z</time>
      </trkpt>
      <trkpt lat="47.95494" lon="2.19976">
        <ele>104.4404297</ele>
        <time>2012-05-01T11:02:40Z</time>
      </trkpt>
      <trkpt lat="47.95496" lon="2.19994">
        <ele>109.2469482</ele>
        <time>2012-05-01T11:02:53Z</time>
      </trkpt>
      <trkpt lat="47.95497" lon="2.19998">
        <ele>110.208252</ele>
        <time>2012-05-01T11:03:15Z</time>
      </trkpt>
      <trkpt lat="47.955" lon="2.20003">
        <ele>110.208252</ele>
        <time>2012-05-01T11:03:43Z</time>
      </trkpt>
      <trkpt lat="47.955" lon="2.20018">
        <ele>109.2469482</ele>
        <time>2012-05-01T11:03:56Z</time>
      </trkpt>
      <trkpt lat="47.955" lon="2.20035">
        <ele>107.3243408</ele>
        <time>2012-05-01T11:04:06Z</time>
      </trkpt>
      <trkpt lat="47.95502" lon="2.20059">
        <ele>101.0756836</ele>
        <time>2012-05-01T11:04:20Z</time>
      </trkpt>
      <trkpt lat="47.95503" lon="2.20063">
        <ele>100.114502</ele>
        <time>2012-05-01T11:04:22Z</time>
      </trkpt>
      <trkpt lat="47.95505" lon="2.20078">
        <ele>95.3077393</ele>
        <time>2012-05-01T11:04:31Z</time>
      </trkpt>
      <trkpt lat="47.95506" lon="2.20095">
        <ele>92.904541</ele>
        <time>2012-05-01T11:04:40Z</time>
      </trkpt>
      <trkpt lat="47.95502" lon="2.20117">
        <ele>94.3465576</ele>
        <time>2012-05-01T11:04:52Z</time>
      </trkpt>
      <trkpt lat="47.95501" lon="2.20121">
        <ele>94.8271484</ele>
        <time>2012-05-01T11:04:54Z</time>
      </trkpt>
      <trkpt lat="47.95499" lon="2.20134">
        <ele>96.7498779</ele>
        <time>2012-05-01T11:04:59Z</time>
      </trkpt>
      <trkpt lat="47.95498" lon="2.20139">
        <ele>97.2304688</ele>
        <time>2012-05-01T11:05:02Z</time>
      </trkpt>
      <trkpt lat="47.95497" lon="2.20169">
        <ele>94.8271484</ele>
        <time>2012-05-01T11:05:18Z</time>
      </trkpt>
      <trkpt lat="47.95496" lon="2.20176">
        <ele>93.8658447</ele>
        <time>2012-05-01T11:05:22Z</time>
      </trkpt>
      <trkpt lat="47.95497" lon="2.20189">
        <ele>89.0593262</ele>
        <time>2012-05-01T11:05:32Z</time>
      </trkpt>
      <trkpt lat="47.95497" lon="2.20203">
        <ele>86.175293</ele>
        <time>2012-05-01T11:05:40Z</time>
      </trkpt>
      <trkpt lat="47.95499" lon="2.20222">
        <ele>83.2913818</ele>
        <time>2012-05-01T11:05:51Z</time>
      </trkpt>
      <trkpt lat="47.955" lon="2.20238">
        <ele>80.4074707</ele>
        <time>2012-05-01T11:06:00Z</time>
      </trkpt>
      <trkpt lat="47.95497" lon="2.20262">
        <ele>79.4460449</ele>
        <time>2012-05-01T11:06:12Z</time>
      </trkpt>
      <trkpt lat="47.95495" lon="2.20394">
        <ele>77.5234375</ele>
        <time>2012-05-01T11:07:12Z</time>
      </trkpt>
      <trkpt lat="47.95489" lon="2.20421">
        <ele>93.3851318</ele>
        <time>2012-05-01T11:07:27Z</time>
      </trkpt>
      <trkpt lat="47.95489" lon="2.20428">
        <ele>101.5563965</ele>
        <time>2012-05-01T11:08:04Z</time>
      </trkpt>
      <trkpt lat="47.95486" lon="2.20451">
        <ele>102.0371094</ele>
        <time>2012-05-01T11:08:18Z</time>
      </trkpt>
      <trkpt lat="47.95487" lon="2.20457">
        <ele>102.5177002</ele>
        <time>2012-05-01T11:08:22Z</time>
      </trkpt>
      <trkpt lat="47.95484" lon="2.20475">
        <ele>99.6337891</ele>
        <time>2012-05-01T11:08:33Z</time>
      </trkpt>
      <trkpt lat="47.95484" lon="2.20488">
        <ele>97.7111816</ele>
        <time>2012-05-01T11:08:41Z</time>
      </trkpt>
      <trkpt lat="47.95482" lon="2.20502">
        <ele>94.8271484</ele>
        <time>2012-05-01T11:08:51Z</time>
      </trkpt>
      <trkpt lat="47.95482" lon="2.20519">
        <ele>93.3851318</ele>
        <time>2012-05-01T11:09:01Z</time>
      </trkpt>
      <trkpt lat="47.95482" lon="2.20522">
        <ele>93.3851318</ele>
        <time>2012-05-01T11:09:02Z</time>
      </trkpt>
      <trkpt lat="47.9548" lon="2.20539">
        <ele>90.9819336</ele>
        <time>2012-05-01T11:09:12Z</time>
      </trkpt>
      <trkpt lat="47.95479" lon="2.20559">
        <ele>88.5787354</ele>
        <time>2012-05-01T11:09:23Z</time>
      </trkpt>
      <trkpt lat="47.95478" lon="2.20586">
        <ele>88.5787354</ele>
        <time>2012-05-01T11:09:36Z</time>
      </trkpt>
      <trkpt lat="47.95476" lon="2.20614">
        <ele>84.7333984</ele>
        <time>2012-05-01T11:09:54Z</time>
      </trkpt>
      <trkpt lat="47.95477" lon="2.20671">
        <ele>77.0428467</ele>
        <time>2012-05-01T11:10:25Z</time>
      </trkpt>
      <trkpt lat="47.95473" lon="2.20692">
        <ele>76.0814209</ele>
        <time>2012-05-01T11:10:33Z</time>
      </trkpt>
      <trkpt lat="47.95472" lon="2.20717">
        <ele>75.1202393</ele>
        <time>2012-05-01T11:10:45Z</time>
      </trkpt>
      <trkpt lat="47.95472" lon="2.20723">
        <ele>78.4847412</ele>
        <time>2012-05-01T11:10:49Z</time>
      </trkpt>
      <trkpt lat="47.95469" lon="2.20746">
        <ele>85.2139893</ele>
        <time>2012-05-01T11:10:59Z</time>
      </trkpt>
      <trkpt lat="47.95466" lon="2.20769">
        <ele>89.539917</ele>
        <time>2012-05-01T11:11:06Z</time>
      </trkpt>
      <trkpt lat="47.95465" lon="2.20779">
        <ele>92.4239502</ele>
        <time>2012-05-01T11:11:10Z</time>
      </trkpt>
      <trkpt lat="47.95464" lon="2.208">
        <ele>96.7498779</ele>
        <time>2012-05-01T11:11:20Z</time>
      </trkpt>
      <trkpt lat="47.95462" lon="2.20814">
        <ele>98.6724854</ele>
        <time>2012-05-01T11:11:26Z</time>
      </trkpt>
      <trkpt lat="47.95463" lon="2.20826">
        <ele>99.1530762</ele>
        <time>2012-05-01T11:11:31Z</time>
      </trkpt>
      <trkpt lat="47.95461" lon="2.20846">
        <ele>101.0756836</ele>
        <time>2012-05-01T11:11:41Z</time>
      </trkpt>
      <trkpt lat="47.95461" lon="2.20853">
        <ele>101.5563965</ele>
        <time>2012-05-01T11:11:44Z</time>
      </trkpt>
      <trkpt lat="47.95459" lon="2.20864">
        <ele>103.4790039</ele>
        <time>2012-05-01T11:11:49Z</time>
      </trkpt>
      <trkpt lat="47.95457" lon="2.20873">
        <ele>104.4404297</ele>
        <time>2012-05-01T11:11:53Z</time>
      </trkpt>
      <trkpt lat="47.95455" lon="2.20884">
        <ele>105.8824463</ele>
        <time>2012-05-01T11:11:58Z</time>
      </trkpt>
      <trkpt lat="47.95452" lon="2.20903">
        <ele>107.8050537</ele>
        <time>2012-05-01T11:12:10Z</time>
      </trkpt>
      <trkpt lat="47.95447" lon="2.20923">
        <ele>107.8050537</ele>
        <time>2012-05-01T11:12:27Z</time>
      </trkpt>
      <trkpt lat="47.95445" lon="2.20933">
        <ele>104.9210205</ele>
        <time>2012-05-01T11:12:41Z</time>
      </trkpt>
      <trkpt lat="47.95437" lon="2.20947">
        <ele>104.9210205</ele>
        <time>2012-05-01T11:12:55Z</time>
      </trkpt>
      <trkpt lat="47.95437" lon="2.20947">
        <ele>104.9210205</ele>
        <time>2012-05-01T11:13:14Z</time>
      </trkpt>
      <trkpt lat="47.95436" lon="2.20955">
        <ele>105.4017334</ele>
        <time>2012-05-01T11:13:29Z</time>
      </trkpt>
      <trkpt lat="47.95434" lon="2.2097">
        <ele>102.5177002</ele>
        <time>2012-05-01T11:14:05Z</time>
      </trkpt>
      <trkpt lat="47.9543" lon="2.20987">
        <ele>99.6337891</ele>
        <time>2012-05-01T11:14:16Z</time>
      </trkpt>
      <trkpt lat="47.95427" lon="2.20998">
        <ele>101.0756836</ele>
        <time>2012-05-01T11:14:21Z</time>
      </trkpt>
      <trkpt lat="47.95421" lon="2.21022">
        <ele>102.5177002</ele>
        <time>2012-05-01T11:14:35Z</time>
      </trkpt>
      <trkpt lat="47.95417" lon="2.21041">
        <ele>101.0756836</ele>
        <time>2012-05-01T11:14:47Z</time>
      </trkpt>
      <trkpt lat="47.95413" lon="2.21063">
        <ele>100.114502</ele>
        <time>2012-05-01T11:15:03Z</time>
      </trkpt>
      <trkpt lat="47.95408" lon="2.21087">
        <ele>98.1918945</ele>
        <time>2012-05-01T11:15:16Z</time>
      </trkpt>
      <trkpt lat="47.95403" lon="2.21101">
        <ele>97.2304688</ele>
        <time>2012-05-01T11:15:25Z</time>
      </trkpt>
      <trkpt lat="47.95402" lon="2.2111">
        <ele>96.7498779</ele>
        <time>2012-05-01T11:15:30Z</time>
      </trkpt>
      <trkpt lat="47.95395" lon="2.21136">
        <ele>95.7884521</ele>
        <time>2012-05-01T11:15:54Z</time>
      </trkpt>
      <trkpt lat="47.95391" lon="2.21155">
        <ele>95.7884521</ele>
        <time>2012-05-01T11:16:05Z</time>
      </trkpt>
      <trkpt lat="47.95383" lon="2.21182">
        <ele>100.114502</ele>
        <time>2012-05-01T11:16:18Z</time>
      </trkpt>
      <trkpt lat="47.95382" lon="2.21195">
        <ele>101.0756836</ele>
        <time>2012-05-01T11:16:25Z</time>
      </trkpt>
      <trkpt lat="47.95377" lon="2.21218">
        <ele>103.9597168</ele>
        <time>2012-05-01T11:16:37Z</time>
      </trkpt>
      <trkpt lat="47.95373" lon="2.2123">
        <ele>103.4790039</ele>
        <time>2012-05-01T11:16:44Z</time>
      </trkpt>
      <trkpt lat="47.95373" lon="2.21236">
        <ele>102.998291</ele>
        <time>2012-05-01T11:16:47Z</time>
      </trkpt>
      <trkpt lat="47.95367" lon="2.2126">
        <ele>102.0371094</ele>
        <time>2012-05-01T11:17:00Z</time>
      </trkpt>
      <trkpt lat="47.95362" lon="2.21283">
        <ele>100.114502</ele>
        <time>2012-05-01T11:17:13Z</time>
      </trkpt>
      <trkpt lat="47.95359" lon="2.21298">
        <ele>100.114502</ele>
        <time>2012-05-01T11:17:29Z</time>
      </trkpt>
      <trkpt lat="47.95356" lon="2.21309">
        <ele>101.5563965</ele>
        <time>2012-05-01T11:17:43Z</time>
      </trkpt>
      <trkpt lat="47.9535" lon="2.21331">
        <ele>104.4404297</ele>
        <time>2012-05-01T11:17:53Z</time>
      </trkpt>
      <trkpt lat="47.95347" lon="2.21339">
        <ele>105.4017334</ele>
        <time>2012-05-01T11:17:58Z</time>
      </trkpt>
      <trkpt lat="47.95342" lon="2.21362">
        <ele>105.8824463</ele>
        <time>2012-05-01T11:18:12Z</time>
      </trkpt>
      <trkpt lat="47.95342" lon="2.21366">
        <ele>104.9210205</ele>
        <time>2012-05-01T11:18:15Z</time>
      </trkpt>
      <trkpt lat="47.95341" lon="2.2137">
        <ele>104.4404297</ele>
        <time>2012-05-01T11:18:17Z</time>
      </trkpt>
      <trkpt lat="47.95337" lon="2.2139">
        <ele>100.5950928</ele>
        <time>2012-05-01T11:18:29Z</time>
      </trkpt>
      <trkpt lat="47.95331" lon="2.21415">
        <ele>99.6337891</ele>
        <time>2012-05-01T11:18:43Z</time>
      </trkpt>
      <trkpt lat="47.95329" lon="2.21428">
        <ele>98.6724854</ele>
        <time>2012-05-01T11:18:50Z</time>
      </trkpt>
      <trkpt lat="47.95324" lon="2.21445">
        <ele>98.1918945</ele>
        <time>2012-05-01T11:18:59Z</time>
      </trkpt>
      <trkpt lat="47.95323" lon="2.21448">
        <ele>98.1918945</ele>
        <time>2012-05-01T11:19:01Z</time>
      </trkpt>
      <trkpt lat="47.95322" lon="2.21459">
        <ele>98.6724854</ele>
        <time>2012-05-01T11:19:06Z</time>
      </trkpt>
      <trkpt lat="47.95315" lon="2.21482">
        <ele>97.7111816</ele>
        <time>2012-05-01T11:19:19Z</time>
      </trkpt>
      <trkpt lat="47.9531" lon="2.21513">
        <ele>99.1530762</ele>
        <time>2012-05-01T11:19:33Z</time>
      </trkpt>
      <trkpt lat="47.95306" lon="2.21542">
        <ele>102.0371094</ele>
        <time>2012-05-01T11:19:46Z</time>
      </trkpt>
      <trkpt lat="47.95299" lon="2.21559">
        <ele>101.5563965</ele>
        <time>2012-05-01T11:19:57Z</time>
      </trkpt>
      <trkpt lat="47.95297" lon="2.21566">
        <ele>100.5950928</ele>
        <time>2012-05-01T11:20:01Z</time>
      </trkpt>
      <trkpt lat="47.95294" lon="2.21574">
        <ele>100.114502</ele>
        <time>2012-05-01T11:20:05Z</time>
      </trkpt>
      <trkpt lat="47.95284" lon="2.21593">
        <ele>100.114502</ele>
        <time>2012-05-01T11:20:17Z</time>
      </trkpt>
      <trkpt lat="47.9528" lon="2.21603">
        <ele>100.114502</ele>
        <time>2012-05-01T11:20:22Z</time>
      </trkpt>
      <trkpt lat="47.95277" lon="2.21609">
        <ele>100.114502</ele>
        <time>2012-05-01T11:20:26Z</time>
      </trkpt>
      <trkpt lat="47.9527" lon="2.2163">
        <ele>100.114502</ele>
        <time>2012-05-01T11:20:38Z</time>
      </trkpt>
      <trkpt lat="47.95263" lon="2.21644">
        <ele>98.6724854</ele>
        <time>2012-05-01T11:20:48Z</time>
      </trkpt>
      <trkpt lat="47.95257" lon="2.21656">
        <ele>96.2692871</ele>
        <time>2012-05-01T11:20:56Z</time>
      </trkpt>
      <trkpt lat="47.95254" lon="2.21664">
        <ele>94.8271484</ele>
        <time>2012-05-01T11:21:01Z</time>
      </trkpt>
      <trkpt lat="47.95251" lon="2.21669">
        <ele>94.3465576</ele>
        <time>2012-05-01T11:21:04Z</time>
      </trkpt>
      <trkpt lat="47.9524" lon="2.21695">
        <ele>92.904541</ele>
        <time>2012-05-01T11:21:19Z</time>
      </trkpt>
      <trkpt lat="47.95233" lon="2.21716">
        <ele>90.9819336</ele>
        <time>2012-05-01T11:21:32Z</time>
      </trkpt>
      <trkpt lat="47.95232" lon="2.21717">
        <ele>91.4625244</ele>
        <time>2012-05-01T11:21:44Z</time>
      </trkpt>
      <trkpt lat="47.95218" lon="2.21742">
        <ele>92.4239502</ele>
        <time>2012-05-01T11:22:01Z</time>
      </trkpt>
      <trkpt lat="47.95215" lon="2.21749">
        <ele>93.3851318</ele>
        <time>2012-05-01T11:22:04Z</time>
      </trkpt>
      <trkpt lat="47.95206" lon="2.21755">
        <ele>95.3077393</ele>
        <time>2012-05-01T11:22:10Z</time>
      </trkpt>
      <trkpt lat="47.95199" lon="2.21764">
        <ele>94.8271484</ele>
        <time>2012-05-01T11:22:18Z</time>
      </trkpt>
      <trkpt lat="47.95198" lon="2.21772">
        <ele>94.3465576</ele>
        <time>2012-05-01T11:22:22Z</time>
      </trkpt>
      <trkpt lat="47.95189" lon="2.21792">
        <ele>95.7884521</ele>
        <time>2012-05-01T11:22:32Z</time>
      </trkpt>
      <trkpt lat="47.95186" lon="2.218">
        <ele>95.7884521</ele>
        <time>2012-05-01T11:22:36Z</time>
      </trkpt>
      <trkpt lat="47.95176" lon="2.21824">
        <ele>96.2692871</ele>
        <time>2012-05-01T11:22:48Z</time>
      </trkpt>
      <trkpt lat="47.9517" lon="2.21835">
        <ele>95.7884521</ele>
        <time>2012-05-01T11:22:54Z</time>
      </trkpt>
      <trkpt lat="47.95169" lon="2.21841">
        <ele>95.7884521</ele>
        <time>2012-05-01T11:22:57Z</time>
      </trkpt>
      <trkpt lat="47.95161" lon="2.21861">
        <ele>96.2692871</ele>
        <time>2012-05-01T11:23:09Z</time>
      </trkpt>
      <trkpt lat="47.9516" lon="2.21864">
        <ele>98.1918945</ele>
        <time>2012-05-01T11:23:42Z</time>
      </trkpt>
      <trkpt lat="47.95159" lon="2.21866">
        <ele>98.6724854</ele>
        <time>2012-05-01T11:23:52Z</time>
      </trkpt>
      <trkpt lat="47.95158" lon="2.21869">
        <ele>99.1530762</ele>
        <time>2012-05-01T11:23:54Z</time>
      </trkpt>
      <trkpt lat="47.95154" lon="2.21888">
        <ele>100.114502</ele>
        <time>2012-05-01T11:24:06Z</time>
      </trkpt>
      <trkpt lat="47.95151" lon="2.21893">
        <ele>101.0756836</ele>
        <time>2012-05-01T11:24:11Z</time>
      </trkpt>
      <trkpt lat="47.9515" lon="2.21904">
        <ele>100.5950928</ele>
        <time>2012-05-01T11:24:19Z</time>
      </trkpt>
      <trkpt lat="47.9515" lon="2.2191">
        <ele>100.114502</ele>
        <time>2012-05-01T11:24:23Z</time>
      </trkpt>
      <trkpt lat="47.95153" lon="2.2193">
        <ele>99.1530762</ele>
        <time>2012-05-01T11:24:34Z</time>
      </trkpt>
      <trkpt lat="47.95153" lon="2.21951">
        <ele>97.7111816</ele>
        <time>2012-05-01T11:24:46Z</time>
      </trkpt>
      <trkpt lat="47.95151" lon="2.21967">
        <ele>96.2692871</ele>
        <time>2012-05-01T11:24:55Z</time>
      </trkpt>
      <trkpt lat="47.9515" lon="2.21977">
        <ele>94.8271484</ele>
        <time>2012-05-01T11:25:01Z</time>
      </trkpt>
      <trkpt lat="47.95146" lon="2.22002">
        <ele>94.8271484</ele>
        <time>2012-05-01T11:25:13Z</time>
      </trkpt>
      <trkpt lat="47.95143" lon="2.22023">
        <ele>93.3851318</ele>
        <time>2012-05-01T11:25:24Z</time>
      </trkpt>
      <trkpt lat="47.9514" lon="2.22036">
        <ele>92.4239502</ele>
        <time>2012-05-01T11:25:30Z</time>
      </trkpt>
      <trkpt lat="47.95141" lon="2.22043">
        <ele>91.9432373</ele>
        <time>2012-05-01T11:25:34Z</time>
      </trkpt>
      <trkpt lat="47.95137" lon="2.2207">
        <ele>90.9819336</ele>
        <time>2012-05-01T11:25:47Z</time>
      </trkpt>
      <trkpt lat="47.95134" lon="2.22093">
        <ele>90.5013428</ele>
        <time>2012-05-01T11:26:01Z</time>
      </trkpt>
      <trkpt lat="47.95133" lon="2.22096">
        <ele>90.0206299</ele>
        <time>2012-05-01T11:26:03Z</time>
      </trkpt>
      <trkpt lat="47.95132" lon="2.22106">
        <ele>89.0593262</ele>
        <time>2012-05-01T11:26:09Z</time>
      </trkpt>
      <trkpt lat="47.95128" lon="2.22136">
        <ele>90.5013428</ele>
        <time>2012-05-01T11:26:23Z</time>
      </trkpt>
      <trkpt lat="47.95127" lon="2.22146">
        <ele>90.0206299</ele>
        <time>2012-05-01T11:26:27Z</time>
      </trkpt>
      <trkpt lat="47.95127" lon="2.22163">
        <ele>89.539917</ele>
        <time>2012-05-01T11:26:36Z</time>
      </trkpt>
      <trkpt lat="47.95125" lon="2.22166">
        <ele>89.0593262</ele>
        <time>2012-05-01T11:26:38Z</time>
      </trkpt>
      <trkpt lat="47.95122" lon="2.22194">
        <ele>90.0206299</ele>
        <time>2012-05-01T11:26:51Z</time>
      </trkpt>
      <trkpt lat="47.95118" lon="2.22214">
        <ele>91.9432373</ele>
        <time>2012-05-01T11:27:01Z</time>
      </trkpt>
      <trkpt lat="47.95117" lon="2.22235">
        <ele>90.5013428</ele>
        <time>2012-05-01T11:27:14Z</time>
      </trkpt>
      <trkpt lat="47.95115" lon="2.22249">
        <ele>91.9432373</ele>
        <time>2012-05-01T11:27:26Z</time>
      </trkpt>
      <trkpt lat="47.95107" lon="2.22274">
        <ele>91.9432373</ele>
        <time>2012-05-01T11:27:48Z</time>
      </trkpt>
      <trkpt lat="47.95095" lon="2.22298">
        <ele>94.8271484</ele>
        <time>2012-05-01T11:28:00Z</time>
      </trkpt>
      <trkpt lat="47.95092" lon="2.22302">
        <ele>95.3077393</ele>
        <time>2012-05-01T11:28:02Z</time>
      </trkpt>
      <trkpt lat="47.9508" lon="2.22318">
        <ele>93.3851318</ele>
        <time>2012-05-01T11:28:14Z</time>
      </trkpt>
      <trkpt lat="47.95079" lon="2.2232">
        <ele>92.904541</ele>
        <time>2012-05-01T11:28:16Z</time>
      </trkpt>
      <trkpt lat="47.95069" lon="2.22336">
        <ele>90.9819336</ele>
        <time>2012-05-01T11:28:27Z</time>
      </trkpt>
      <trkpt lat="47.95069" lon="2.22338">
        <ele>90.5013428</ele>
        <time>2012-05-01T11:28:28Z</time>
      </trkpt>
      <trkpt lat="47.95067" lon="2.2234">
        <ele>89.539917</ele>
        <time>2012-05-01T11:28:30Z</time>
      </trkpt>
      <trkpt lat="47.95064" lon="2.22348">
        <ele>89.0593262</ele>
        <time>2012-05-01T11:28:34Z</time>
      </trkpt>
      <trkpt lat="47.95058" lon="2.22357">
        <ele>88.0980225</ele>
        <time>2012-05-01T11:28:40Z</time>
      </trkpt>
      <trkpt lat="47.95054" lon="2.22364">
        <ele>87.6171875</ele>
        <time>2012-05-01T11:28:44Z</time>
      </trkpt>
      <trkpt lat="47.95046" lon="2.22376">
        <ele>86.6560059</ele>
        <time>2012-05-01T11:28:52Z</time>
      </trkpt>
      <trkpt lat="47.95043" lon="2.22384">
        <ele>84.2526855</ele>
        <time>2012-05-01T11:28:57Z</time>
      </trkpt>
      <trkpt lat="47.9503" lon="2.22399">
        <ele>82.3300781</ele>
        <time>2012-05-01T11:29:09Z</time>
      </trkpt>
      <trkpt lat="47.95028" lon="2.224">
        <ele>82.3300781</ele>
        <time>2012-05-01T11:29:10Z</time>
      </trkpt>
      <trkpt lat="47.95023" lon="2.2241">
        <ele>79.4460449</ele>
        <time>2012-05-01T11:29:18Z</time>
      </trkpt>
      <trkpt lat="47.95008" lon="2.22424">
        <ele>75.1202393</ele>
        <time>2012-05-01T11:29:31Z</time>
      </trkpt>
      <trkpt lat="47.95002" lon="2.22431">
        <ele>77.0428467</ele>
        <time>2012-05-01T11:29:37Z</time>
      </trkpt>
      <trkpt lat="47.94999" lon="2.22437">
        <ele>77.0428467</ele>
        <time>2012-05-01T11:29:40Z</time>
      </trkpt>
      <trkpt lat="47.94985" lon="2.2245">
        <ele>77.5234375</ele>
        <time>2012-05-01T11:29:52Z</time>
      </trkpt>
      <trkpt lat="47.94984" lon="2.22455">
        <ele>77.5234375</ele>
        <time>2012-05-01T11:29:54Z</time>
      </trkpt>
      <trkpt lat="47.94974" lon="2.22466">
        <ele>72.2362061</ele>
        <time>2012-05-01T11:30:06Z</time>
      </trkpt>
      <trkpt lat="47.94973" lon="2.22467">
        <ele>71.7554932</ele>
        <time>2012-05-01T11:30:07Z</time>
      </trkpt>
      <trkpt lat="47.94971" lon="2.22473">
        <ele>69.3522949</ele>
        <time>2012-05-01T11:30:11Z</time>
      </trkpt>
      <trkpt lat="47.94963" lon="2.22484">
        <ele>64.5456543</ele>
        <time>2012-05-01T11:30:20Z</time>
      </trkpt>
      <trkpt lat="47.94962" lon="2.22488">
        <ele>64.0650635</ele>
        <time>2012-05-01T11:30:22Z</time>
      </trkpt>
      <trkpt lat="47.94959" lon="2.22494">
        <ele>62.142334</ele>
        <time>2012-05-01T11:30:26Z</time>
      </trkpt>
      <trkpt lat="47.94958" lon="2.22499">
        <ele>62.142334</ele>
        <time>2012-05-01T11:30:29Z</time>
      </trkpt>
      <trkpt lat="47.94956" lon="2.22508">
        <ele>65.0263672</ele>
        <time>2012-05-01T11:30:45Z</time>
      </trkpt>
      <trkpt lat="47.94955" lon="2.22511">
        <ele>65.9876709</ele>
        <time>2012-05-01T11:30:48Z</time>
      </trkpt>
      <trkpt lat="47.94951" lon="2.22513">
        <ele>66.9489746</ele>
        <time>2012-05-01T11:30:51Z</time>
      </trkpt>
      <trkpt lat="47.94947" lon="2.22519">
        <ele>68.3908691</ele>
        <time>2012-05-01T11:30:55Z</time>
      </trkpt>
      <trkpt lat="47.94936" lon="2.22537">
        <ele>75.6008301</ele>
        <time>2012-05-01T11:31:06Z</time>
      </trkpt>
      <trkpt lat="47.94919" lon="2.22559">
        <ele>86.175293</ele>
        <time>2012-05-01T11:31:19Z</time>
      </trkpt>
      <trkpt lat="47.94905" lon="2.22585">
        <ele>92.4239502</ele>
        <time>2012-05-01T11:31:33Z</time>
      </trkpt>
      <trkpt lat="47.949" lon="2.22594">
        <ele>92.904541</ele>
        <time>2012-05-01T11:31:38Z</time>
      </trkpt>
      <trkpt lat="47.94892" lon="2.22614">
        <ele>94.3465576</ele>
        <time>2012-05-01T11:31:49Z</time>
      </trkpt>
      <trkpt lat="47.94887" lon="2.22622">
        <ele>94.8271484</ele>
        <time>2012-05-01T11:31:54Z</time>
      </trkpt>
      <trkpt lat="47.94886" lon="2.22636">
        <ele>95.7884521</ele>
        <time>2012-05-01T11:32:07Z</time>
      </trkpt>
      <trkpt lat="47.94886" lon="2.22636">
        <ele>95.7884521</ele>
        <time>2012-05-01T11:32:12Z</time>
      </trkpt>
      <trkpt lat="47.94889" lon="2.22657">
        <ele>100.114502</ele>
        <time>2012-05-01T11:32:21Z</time>
      </trkpt>
      <trkpt lat="47.94893" lon="2.22669">
        <ele>101.0756836</ele>
        <time>2012-05-01T11:32:28Z</time>
      </trkpt>
      <trkpt lat="47.94898" lon="2.22682">
        <ele>101.5563965</ele>
        <time>2012-05-01T11:32:36Z</time>
      </trkpt>
      <trkpt lat="47.949" lon="2.22686">
        <ele>101.5563965</ele>
        <time>2012-05-01T11:32:38Z</time>
      </trkpt>
      <trkpt lat="47.94902" lon="2.22689">
        <ele>102.0371094</ele>
        <time>2012-05-01T11:32:40Z</time>
      </trkpt>
      <trkpt lat="47.94907" lon="2.22699">
        <ele>102.998291</ele>
        <time>2012-05-01T11:32:52Z</time>
      </trkpt>
      <trkpt lat="47.9491" lon="2.22699">
        <ele>103.4790039</ele>
        <time>2012-05-01T11:33:14Z</time>
      </trkpt>
      <trkpt lat="47.94916" lon="2.2271">
        <ele>105.4017334</ele>
        <time>2012-05-01T11:33:24Z</time>
      </trkpt>
      <trkpt lat="47.94917" lon="2.22713">
        <ele>105.4017334</ele>
        <time>2012-05-01T11:33:26Z</time>
      </trkpt>
      <trkpt lat="47.94925" lon="2.2273">
        <ele>105.8824463</ele>
        <time>2012-05-01T11:33:36Z</time>
      </trkpt>
      <trkpt lat="47.94932" lon="2.22753">
        <ele>111.1695557</ele>
        <time>2012-05-01T11:33:56Z</time>
      </trkpt>
      <trkpt lat="47.94936" lon="2.2276">
        <ele>113.572998</ele>
        <time>2012-05-01T11:34:00Z</time>
      </trkpt>
      <trkpt lat="47.9494" lon="2.2277">
        <ele>115.4956055</ele>
        <time>2012-05-01T11:34:07Z</time>
      </trkpt>
      <trkpt lat="47.94946" lon="2.22782">
        <ele>116.4567871</ele>
        <time>2012-05-01T11:34:14Z</time>
      </trkpt>
      <trkpt lat="47.94951" lon="2.2279">
        <ele>116.9375</ele>
        <time>2012-05-01T11:34:20Z</time>
      </trkpt>
      <trkpt lat="47.94953" lon="2.228">
        <ele>115.9761963</ele>
        <time>2012-05-01T11:34:33Z</time>
      </trkpt>
      <trkpt lat="47.94955" lon="2.22806">
        <ele>116.4567871</ele>
        <time>2012-05-01T11:34:46Z</time>
      </trkpt>
      <trkpt lat="47.94958" lon="2.2282">
        <ele>115.0148926</ele>
        <time>2012-05-01T11:34:59Z</time>
      </trkpt>
      <trkpt lat="47.94964" lon="2.22837">
        <ele>115.0148926</ele>
        <time>2012-05-01T11:35:16Z</time>
      </trkpt>
      <trkpt lat="47.94965" lon="2.22841">
        <ele>114.5341797</ele>
        <time>2012-05-01T11:35:18Z</time>
      </trkpt>
      <trkpt lat="47.94968" lon="2.2285">
        <ele>114.5341797</ele>
        <time>2012-05-01T11:35:23Z</time>
      </trkpt>
      <trkpt lat="47.94972" lon="2.22857">
        <ele>114.5341797</ele>
        <time>2012-05-01T11:35:27Z</time>
      </trkpt>
      <trkpt lat="47.94975" lon="2.22872">
        <ele>113.572998</ele>
        <time>2012-05-01T11:35:35Z</time>
      </trkpt>
      <trkpt lat="47.94978" lon="2.22876">
        <ele>113.572998</ele>
        <time>2012-05-01T11:35:38Z</time>
      </trkpt>
      <trkpt lat="47.94982" lon="2.22884">
        <ele>113.0922852</ele>
        <time>2012-05-01T11:35:43Z</time>
      </trkpt>
      <trkpt lat="47.94988" lon="2.22903">
        <ele>112.1309814</ele>
        <time>2012-05-01T11:35:54Z</time>
      </trkpt>
      <trkpt lat="47.94989" lon="2.22905">
        <ele>111.6502686</ele>
        <time>2012-05-01T11:35:55Z</time>
      </trkpt>
      <trkpt lat="47.9499" lon="2.22908">
        <ele>111.6502686</ele>
        <time>2012-05-01T11:35:57Z</time>
      </trkpt>
      <trkpt lat="47.94993" lon="2.22914">
        <ele>110.6888428</ele>
        <time>2012-05-01T11:36:01Z</time>
      </trkpt>
      <trkpt lat="47.95004" lon="2.22942">
        <ele>109.7276611</ele>
        <time>2012-05-01T11:36:17Z</time>
      </trkpt>
      <trkpt lat="47.95012" lon="2.22967">
        <ele>112.6115723</ele>
        <time>2012-05-01T11:36:31Z</time>
      </trkpt>
      <trkpt lat="47.95017" lon="2.22979">
        <ele>114.0535889</ele>
        <time>2012-05-01T11:36:37Z</time>
      </trkpt>
      <trkpt lat="47.95025" lon="2.23">
        <ele>116.9375</ele>
        <time>2012-05-01T11:36:51Z</time>
      </trkpt>
      <trkpt lat="47.95035" lon="2.23017">
        <ele>117.4182129</ele>
        <time>2012-05-01T11:37:15Z</time>
      </trkpt>
      <trkpt lat="47.95048" lon="2.23052">
        <ele>119.8214111</ele>
        <time>2012-05-01T11:37:29Z</time>
      </trkpt>
      <trkpt lat="47.95056" lon="2.23079">
        <ele>120.302124</ele>
        <time>2012-05-01T11:37:43Z</time>
      </trkpt>
      <trkpt lat="47.95065" lon="2.23107">
        <ele>120.302124</ele>
        <time>2012-05-01T11:37:57Z</time>
      </trkpt>
      <trkpt lat="47.95072" lon="2.23124">
        <ele>120.302124</ele>
        <time>2012-05-01T11:38:07Z</time>
      </trkpt>
      <trkpt lat="47.95078" lon="2.23144">
        <ele>123.1861572</ele>
        <time>2012-05-01T11:38:17Z</time>
      </trkpt>
      <trkpt lat="47.95081" lon="2.23149">
        <ele>123.666748</ele>
        <time>2012-05-01T11:38:21Z</time>
      </trkpt>
      <trkpt lat="47.95084" lon="2.23157">
        <ele>124.6280518</ele>
        <time>2012-05-01T11:38:25Z</time>
      </trkpt>
      <trkpt lat="47.95093" lon="2.23184">
        <ele>126.0699463</ele>
        <time>2012-05-01T11:38:40Z</time>
      </trkpt>
      <trkpt lat="47.95102" lon="2.23205">
        <ele>122.7054443</ele>
        <time>2012-05-01T11:38:53Z</time>
      </trkpt>
      <trkpt lat="47.95108" lon="2.23228">
        <ele>125.1087646</ele>
        <time>2012-05-01T11:39:05Z</time>
      </trkpt>
      <trkpt lat="47.95116" lon="2.23247">
        <ele>125.1087646</ele>
        <time>2012-05-01T11:39:16Z</time>
      </trkpt>
      <trkpt lat="47.95126" lon="2.23273">
        <ele>126.5506592</ele>
        <time>2012-05-01T11:39:31Z</time>
      </trkpt>
      <trkpt lat="47.95129" lon="2.23287">
        <ele>127.5119629</ele>
        <time>2012-05-01T11:39:38Z</time>
      </trkpt>
      <trkpt lat="47.95137" lon="2.23302">
        <ele>128.4733887</ele>
        <time>2012-05-01T11:39:47Z</time>
      </trkpt>
      <trkpt lat="47.95141" lon="2.2332">
        <ele>130.3959961</ele>
        <time>2012-05-01T11:39:56Z</time>
      </trkpt>
      <trkpt lat="47.95144" lon="2.23326">
        <ele>131.3572998</ele>
        <time>2012-05-01T11:40:00Z</time>
      </trkpt>
      <trkpt lat="47.95147" lon="2.23331">
        <ele>131.3572998</ele>
        <time>2012-05-01T11:40:03Z</time>
      </trkpt>
      <trkpt lat="47.95154" lon="2.23353">
        <ele>130.3959961</ele>
        <time>2012-05-01T11:40:16Z</time>
      </trkpt>
      <trkpt lat="47.95162" lon="2.23376">
        <ele>130.876709</ele>
        <time>2012-05-01T11:40:29Z</time>
      </trkpt>
      <trkpt lat="47.95172" lon="2.23392">
        <ele>129.9152832</ele>
        <time>2012-05-01T11:40:41Z</time>
      </trkpt>
      <trkpt lat="47.95178" lon="2.23412">
        <ele>130.3959961</ele>
        <time>2012-05-01T11:40:53Z</time>
      </trkpt>
      <trkpt lat="47.95183" lon="2.23424">
        <ele>128.9541016</ele>
        <time>2012-05-01T11:41:00Z</time>
      </trkpt>
      <trkpt lat="47.95187" lon="2.23436">
        <ele>128.9541016</ele>
        <time>2012-05-01T11:41:06Z</time>
      </trkpt>
      <trkpt lat="47.95193" lon="2.23452">
        <ele>127.9925537</ele>
        <time>2012-05-01T11:41:14Z</time>
      </trkpt>
      <trkpt lat="47.95199" lon="2.23461">
        <ele>128.4733887</ele>
        <time>2012-05-01T11:41:21Z</time>
      </trkpt>
      <trkpt lat="47.95206" lon="2.23471">
        <ele>127.0313721</ele>
        <time>2012-05-01T11:41:27Z</time>
      </trkpt>
      <trkpt lat="47.95208" lon="2.23477">
        <ele>126.0699463</ele>
        <time>2012-05-01T11:41:31Z</time>
      </trkpt>
      <trkpt lat="47.95214" lon="2.23485">
        <ele>124.1473389</ele>
        <time>2012-05-01T11:41:38Z</time>
      </trkpt>
      <trkpt lat="47.95226" lon="2.23503">
        <ele>121.2635498</ele>
        <time>2012-05-01T11:41:50Z</time>
      </trkpt>
      <trkpt lat="47.95228" lon="2.23507">
        <ele>121.2635498</ele>
        <time>2012-05-01T11:41:53Z</time>
      </trkpt>
      <trkpt lat="47.95239" lon="2.2352">
        <ele>121.7441406</ele>
        <time>2012-05-01T11:42:02Z</time>
      </trkpt>
      <trkpt lat="47.95242" lon="2.23529">
        <ele>120.302124</ele>
        <time>2012-05-01T11:42:07Z</time>
      </trkpt>
      <trkpt lat="47.95253" lon="2.23543">
        <ele>124.1473389</ele>
        <time>2012-05-01T11:42:20Z</time>
      </trkpt>
      <trkpt lat="47.95254" lon="2.23546">
        <ele>126.5506592</ele>
        <time>2012-05-01T11:42:35Z</time>
      </trkpt>
      <trkpt lat="47.95259" lon="2.23553">
        <ele>127.9925537</ele>
        <time>2012-05-01T11:42:58Z</time>
      </trkpt>
      <trkpt lat="47.95267" lon="2.23561">
        <ele>127.9925537</ele>
        <time>2012-05-01T11:43:02Z</time>
      </trkpt>
      <trkpt lat="47.9527" lon="2.23564">
        <ele>127.9925537</ele>
        <time>2012-05-01T11:43:04Z</time>
      </trkpt>
      <trkpt lat="47.95283" lon="2.23584">
        <ele>125.5893555</ele>
        <time>2012-05-01T11:43:16Z</time>
      </trkpt>
      <trkpt lat="47.95293" lon="2.23603">
        <ele>122.2247314</ele>
        <time>2012-05-01T11:43:29Z</time>
      </trkpt>
      <trkpt lat="47.95296" lon="2.23607">
        <ele>122.7054443</ele>
        <time>2012-05-01T11:43:50Z</time>
      </trkpt>
      <trkpt lat="47.95299" lon="2.23611">
        <ele>122.2247314</ele>
        <time>2012-05-01T11:43:56Z</time>
      </trkpt>
      <trkpt lat="47.95303" lon="2.23616">
        <ele>122.2247314</ele>
        <time>2012-05-01T11:44:12Z</time>
      </trkpt>
      <trkpt lat="47.95305" lon="2.23617">
        <ele>122.7054443</ele>
        <time>2012-05-01T11:44:13Z</time>
      </trkpt>
      <trkpt lat="47.95309" lon="2.23628">
        <ele>124.1473389</ele>
        <time>2012-05-01T11:44:28Z</time>
      </trkpt>
      <trkpt lat="47.9531" lon="2.23629">
        <ele>124.1473389</ele>
        <time>2012-05-01T11:45:26Z</time>
      </trkpt>
      <trkpt lat="47.95318" lon="2.23646">
        <ele>125.5893555</ele>
        <time>2012-05-01T11:45:35Z</time>
      </trkpt>
      <trkpt lat="47.9532" lon="2.23649">
        <ele>125.1087646</ele>
        <time>2012-05-01T11:45:38Z</time>
      </trkpt>
      <trkpt lat="47.9533" lon="2.23668">
        <ele>125.1087646</ele>
        <time>2012-05-01T11:45:52Z</time>
      </trkpt>
      <trkpt lat="47.95334" lon="2.23678">
        <ele>126.5506592</ele>
        <time>2012-05-01T11:45:57Z</time>
      </trkpt>
      <trkpt lat="47.95341" lon="2.23686">
        <ele>125.5893555</ele>
        <time>2012-05-01T11:46:03Z</time>
      </trkpt>
      <trkpt lat="47.95346" lon="2.23691">
        <ele>126.0699463</ele>
        <time>2012-05-01T11:46:07Z</time>
      </trkpt>
      <trkpt lat="47.95352" lon="2.23701">
        <ele>125.5893555</ele>
        <time>2012-05-01T11:46:13Z</time>
      </trkpt>
      <trkpt lat="47.95356" lon="2.2371">
        <ele>125.5893555</ele>
        <time>2012-05-01T11:46:18Z</time>
      </trkpt>
      <trkpt lat="47.95369" lon="2.23728">
        <ele>125.5893555</ele>
        <time>2012-05-01T11:46:31Z</time>
      </trkpt>
      <trkpt lat="47.9538" lon="2.23748">
        <ele>124.6280518</ele>
        <time>2012-05-01T11:46:45Z</time>
      </trkpt>
      <trkpt lat="47.95384" lon="2.23754">
        <ele>125.5893555</ele>
        <time>2012-05-01T11:46:52Z</time>
      </trkpt>
      <trkpt lat="47.95387" lon="2.23759">
        <ele>126.5506592</ele>
        <time>2012-05-01T11:46:56Z</time>
      </trkpt>
      <trkpt lat="47.95402" lon="2.2378">
        <ele>131.8378906</ele>
        <time>2012-05-01T11:47:11Z</time>
      </trkpt>
      <trkpt lat="47.9541" lon="2.23793">
        <ele>132.7993164</ele>
        <time>2012-05-01T11:47:20Z</time>
      </trkpt>
      <trkpt lat="47.95412" lon="2.23797">
        <ele>133.2799072</ele>
        <time>2012-05-01T11:47:30Z</time>
      </trkpt>
      <trkpt lat="47.95425" lon="2.23817">
        <ele>130.876709</ele>
        <time>2012-05-01T11:47:44Z</time>
      </trkpt>
      <trkpt lat="47.95427" lon="2.2382">
        <ele>130.3959961</ele>
        <time>2012-05-01T11:47:46Z</time>
      </trkpt>
      <trkpt lat="47.95434" lon="2.23838">
        <ele>130.876709</ele>
        <time>2012-05-01T11:48:01Z</time>
      </trkpt>
      <trkpt lat="47.95442" lon="2.23865">
        <ele>130.876709</ele>
        <time>2012-05-01T11:48:15Z</time>
      </trkpt>
      <trkpt lat="47.95447" lon="2.23895">
        <ele>132.3186035</ele>
        <time>2012-05-01T11:48:30Z</time>
      </trkpt>
      <trkpt lat="47.95448" lon="2.239">
        <ele>132.7993164</ele>
        <time>2012-05-01T11:48:32Z</time>
      </trkpt>
      <trkpt lat="47.95454" lon="2.23932">
        <ele>135.2025146</ele>
        <time>2012-05-01T11:48:49Z</time>
      </trkpt>
      <trkpt lat="47.95458" lon="2.23946">
        <ele>134.7219238</ele>
        <time>2012-05-01T11:48:58Z</time>
      </trkpt>
      <trkpt lat="47.9546" lon="2.23958">
        <ele>131.8378906</ele>
        <time>2012-05-01T11:49:04Z</time>
      </trkpt>
      <trkpt lat="47.95462" lon="2.23974">
        <ele>130.3959961</ele>
        <time>2012-05-01T11:49:12Z</time>
      </trkpt>
      <trkpt lat="47.95466" lon="2.23988">
        <ele>129.4346924</ele>
        <time>2012-05-01T11:49:19Z</time>
      </trkpt>
      <trkpt lat="47.95468" lon="2.23992">
        <ele>128.4733887</ele>
        <time>2012-05-01T11:49:22Z</time>
      </trkpt>
      <trkpt lat="47.95471" lon="2.24003">
        <ele>127.9925537</ele>
        <time>2012-05-01T11:49:28Z</time>
      </trkpt>
      <trkpt lat="47.95471" lon="2.24011">
        <ele>127.9925537</ele>
        <time>2012-05-01T11:49:32Z</time>
      </trkpt>
      <trkpt lat="47.95479" lon="2.24039">
        <ele>126.0699463</ele>
        <time>2012-05-01T11:49:46Z</time>
      </trkpt>
      <trkpt lat="47.95483" lon="2.24066">
        <ele>125.5893555</ele>
        <time>2012-05-01T11:50:00Z</time>
      </trkpt>
      <trkpt lat="47.95487" lon="2.24087">
        <ele>126.0699463</ele>
        <time>2012-05-01T11:50:12Z</time>
      </trkpt>
      <trkpt lat="47.95492" lon="2.24107">
        <ele>126.5506592</ele>
        <time>2012-05-01T11:50:23Z</time>
      </trkpt>
      <trkpt lat="47.95496" lon="2.24124">
        <ele>125.1087646</ele>
        <time>2012-05-01T11:50:33Z</time>
      </trkpt>
      <trkpt lat="47.95497" lon="2.24132">
        <ele>123.666748</ele>
        <time>2012-05-01T11:50:49Z</time>
      </trkpt>
      <trkpt lat="47.95502" lon="2.2416">
        <ele>122.7054443</ele>
        <time>2012-05-01T11:51:03Z</time>
      </trkpt>
      <trkpt lat="47.95504" lon="2.24165">
        <ele>122.2247314</ele>
        <time>2012-05-01T11:51:06Z</time>
      </trkpt>
      <trkpt lat="47.95507" lon="2.2418">
        <ele>123.666748</ele>
        <time>2012-05-01T11:51:13Z</time>
      </trkpt>
      <trkpt lat="47.95508" lon="2.24191">
        <ele>124.1473389</ele>
        <time>2012-05-01T11:51:18Z</time>
      </trkpt>
      <trkpt lat="47.95511" lon="2.24214">
        <ele>127.9925537</ele>
        <time>2012-05-01T11:51:32Z</time>
      </trkpt>
      <trkpt lat="47.95522" lon="2.24244">
        <ele>122.2247314</ele>
        <time>2012-05-01T11:52:02Z</time>
      </trkpt>
      <trkpt lat="47.95527" lon="2.24301">
        <ele>120.302124</ele>
        <time>2012-05-01T11:52:17Z</time>
      </trkpt>
      <trkpt lat="47.9553" lon="2.24312">
        <ele>122.7054443</ele>
        <time>2012-05-01T11:52:23Z</time>
      </trkpt>
      <trkpt lat="47.95533" lon="2.24322">
        <ele>124.6280518</ele>
        <time>2012-05-01T11:52:28Z</time>
      </trkpt>
      <trkpt lat="47.95538" lon="2.24335">
        <ele>127.0313721</ele>
        <time>2012-05-01T11:52:44Z</time>
      </trkpt>
      <trkpt lat="47.95541" lon="2.24347">
        <ele>127.0313721</ele>
        <time>2012-05-01T11:52:56Z</time>
      </trkpt>
      <trkpt lat="47.95546" lon="2.24365">
        <ele>127.0313721</ele>
        <time>2012-05-01T11:53:06Z</time>
      </trkpt>
      <trkpt lat="47.95549" lon="2.24374">
        <ele>125.1087646</ele>
        <time>2012-05-01T11:53:21Z</time>
      </trkpt>
      <trkpt lat="47.95552" lon="2.24385">
        <ele>126.5506592</ele>
        <time>2012-05-01T11:53:57Z</time>
      </trkpt>
      <trkpt lat="47.95553" lon="2.2439">
        <ele>126.5506592</ele>
        <time>2012-05-01T11:54:41Z</time>
      </trkpt>
      <trkpt lat="47.9556" lon="2.24414">
        <ele>127.9925537</ele>
        <time>2012-05-01T11:55:08Z</time>
      </trkpt>
      <trkpt lat="47.95567" lon="2.24438">
        <ele>128.9541016</ele>
        <time>2012-05-01T11:55:20Z</time>
      </trkpt>
      <trkpt lat="47.95571" lon="2.24449">
        <ele>126.0699463</ele>
        <time>2012-05-01T11:55:26Z</time>
      </trkpt>
      <trkpt lat="47.95579" lon="2.24479">
        <ele>126.0699463</ele>
        <time>2012-05-01T11:55:42Z</time>
      </trkpt>
      <trkpt lat="47.95581" lon="2.2449">
        <ele>127.5119629</ele>
        <time>2012-05-01T11:55:47Z</time>
      </trkpt>
      <trkpt lat="47.95589" lon="2.24517">
        <ele>127.9925537</ele>
        <time>2012-05-01T11:56:01Z</time>
      </trkpt>
      <trkpt lat="47.95591" lon="2.24526">
        <ele>127.9925537</ele>
        <time>2012-05-01T11:56:07Z</time>
      </trkpt>
      <trkpt lat="47.95592" lon="2.24534">
        <ele>128.4733887</ele>
        <time>2012-05-01T11:56:20Z</time>
      </trkpt>
      <trkpt lat="47.95592" lon="2.24534">
        <ele>128.4733887</ele>
        <time>2012-05-01T11:56:21Z</time>
      </trkpt>
      <trkpt lat="47.95589" lon="2.24538">
        <ele>128.9541016</ele>
        <time>2012-05-01T11:56:25Z</time>
      </trkpt>
      <trkpt lat="47.9558" lon="2.24546">
        <ele>127.5119629</ele>
        <time>2012-05-01T11:56:35Z</time>
      </trkpt>
      <trkpt lat="47.95577" lon="2.24552">
        <ele>126.5506592</ele>
        <time>2012-05-01T11:56:41Z</time>
      </trkpt>
      <trkpt lat="47.95564" lon="2.24574">
        <ele>124.6280518</ele>
        <time>2012-05-01T11:56:54Z</time>
      </trkpt>
      <trkpt lat="47.95559" lon="2.24582">
        <ele>123.666748</ele>
        <time>2012-05-01T11:56:59Z</time>
      </trkpt>
      <trkpt lat="47.95556" lon="2.24585">
        <ele>123.1861572</ele>
        <time>2012-05-01T11:57:02Z</time>
      </trkpt>
      <trkpt lat="47.95549" lon="2.24593">
        <ele>119.8214111</ele>
        <time>2012-05-01T11:57:11Z</time>
      </trkpt>
      <trkpt lat="47.95548" lon="2.24594">
        <ele>119.8214111</ele>
        <time>2012-05-01T11:57:12Z</time>
      </trkpt>
      <trkpt lat="47.95543" lon="2.24604">
        <ele>115.9761963</ele>
        <time>2012-05-01T11:57:23Z</time>
      </trkpt>
      <trkpt lat="47.95537" lon="2.24613">
        <ele>114.0535889</ele>
        <time>2012-05-01T11:57:33Z</time>
      </trkpt>
      <trkpt lat="47.95538" lon="2.24618">
        <ele>114.0535889</ele>
        <time>2012-05-01T11:58:22Z</time>
      </trkpt>
      <trkpt lat="47.95537" lon="2.24618">
        <ele>114.0535889</ele>
        <time>2012-05-01T11:59:49Z</time>
      </trkpt>
      <trkpt lat="47.95526" lon="2.24632">
        <ele>138.5672607</ele>
        <time>2012-05-01T12:23:00Z</time>
      </trkpt>
      <trkpt lat="47.9553" lon="2.24629">
        <ele>140.4898682</ele>
        <time>2012-05-01T12:32:33Z</time>
      </trkpt>
      <trkpt lat="47.95528" lon="2.24628">
        <ele>140.4898682</ele>
        <time>2012-05-01T12:33:12Z</time>
      </trkpt>
      <trkpt lat="47.95525" lon="2.24625">
        <ele>140.0091553</ele>
        <time>2012-05-01T12:33:16Z</time>
      </trkpt>
      <trkpt lat="47.95521" lon="2.24626">
        <ele>140.0091553</ele>
        <time>2012-05-01T12:33:19Z</time>
      </trkpt>
      <trkpt lat="47.95516" lon="2.24632">
        <ele>136.1639404</ele>
        <time>2012-05-01T12:33:25Z</time>
      </trkpt>
      <trkpt lat="47.95511" lon="2.24643">
        <ele>133.2799072</ele>
        <time>2012-05-01T12:33:32Z</time>
      </trkpt>
      <trkpt lat="47.95504" lon="2.24648">
        <ele>132.3186035</ele>
        <time>2012-05-01T12:33:39Z</time>
      </trkpt>
      <trkpt lat="47.95499" lon="2.24653">
        <ele>131.3572998</ele>
        <time>2012-05-01T12:33:44Z</time>
      </trkpt>
      <trkpt lat="47.95487" lon="2.24665">
        <ele>129.4346924</ele>
        <time>2012-05-01T12:33:59Z</time>
      </trkpt>
      <trkpt lat="47.9548" lon="2.24671">
        <ele>129.4346924</ele>
        <time>2012-05-01T12:34:15Z</time>
      </trkpt>
      <trkpt lat="47.95469" lon="2.24679">
        <ele>128.9541016</ele>
        <time>2012-05-01T12:34:27Z</time>
      </trkpt>
      <trkpt lat="47.9546" lon="2.24684">
        <ele>128.4733887</ele>
        <time>2012-05-01T12:34:52Z</time>
      </trkpt>
      <trkpt lat="47.95454" lon="2.24689">
        <ele>126.5506592</ele>
        <time>2012-05-01T12:34:59Z</time>
      </trkpt>
      <trkpt lat="47.9544" lon="2.24702">
        <ele>121.7441406</ele>
        <time>2012-05-01T12:35:12Z</time>
      </trkpt>
      <trkpt lat="47.95429" lon="2.24708">
        <ele>114.0535889</ele>
        <time>2012-05-01T12:35:31Z</time>
      </trkpt>
      <trkpt lat="47.95416" lon="2.24718">
        <ele>109.7276611</ele>
        <time>2012-05-01T12:35:43Z</time>
      </trkpt>
      <trkpt lat="47.95413" lon="2.24721">
        <ele>108.7662354</ele>
        <time>2012-05-01T12:35:45Z</time>
      </trkpt>
      <trkpt lat="47.95399" lon="2.2473">
        <ele>102.998291</ele>
        <time>2012-05-01T12:35:56Z</time>
      </trkpt>
      <trkpt lat="47.95386" lon="2.24732">
        <ele>101.5563965</ele>
        <time>2012-05-01T12:36:08Z</time>
      </trkpt>
      <trkpt lat="47.95386" lon="2.24731">
        <ele>101.5563965</ele>
        <time>2012-05-01T12:36:12Z</time>
      </trkpt>
      <trkpt lat="47.9538" lon="2.24717">
        <ele>102.998291</ele>
        <time>2012-05-01T12:36:27Z</time>
      </trkpt>
      <trkpt lat="47.95379" lon="2.24713">
        <ele>102.998291</ele>
        <time>2012-05-01T12:36:30Z</time>
      </trkpt>
      <trkpt lat="47.95377" lon="2.24708">
        <ele>106.3630371</ele>
        <time>2012-05-01T12:36:41Z</time>
      </trkpt>
      <trkpt lat="47.95374" lon="2.24697">
        <ele>107.8050537</ele>
        <time>2012-05-01T12:36:54Z</time>
      </trkpt>
      <trkpt lat="47.95365" lon="2.24667">
        <ele>116.4567871</ele>
        <time>2012-05-01T12:37:08Z</time>
      </trkpt>
      <trkpt lat="47.95361" lon="2.24658">
        <ele>118.3793945</ele>
        <time>2012-05-01T12:37:22Z</time>
      </trkpt>
      <trkpt lat="47.95352" lon="2.24629">
        <ele>121.7441406</ele>
        <time>2012-05-01T12:37:36Z</time>
      </trkpt>
      <trkpt lat="47.9535" lon="2.24625">
        <ele>121.7441406</ele>
        <time>2012-05-01T12:37:39Z</time>
      </trkpt>
      <trkpt lat="47.95346" lon="2.2461">
        <ele>122.2247314</ele>
        <time>2012-05-01T12:37:55Z</time>
      </trkpt>
      <trkpt lat="47.95342" lon="2.246">
        <ele>123.1861572</ele>
        <time>2012-05-01T12:38:10Z</time>
      </trkpt>
      <trkpt lat="47.95332" lon="2.24576">
        <ele>121.7441406</ele>
        <time>2012-05-01T12:38:25Z</time>
      </trkpt>
      <trkpt lat="47.95324" lon="2.24547">
        <ele>121.2635498</ele>
        <time>2012-05-01T12:38:40Z</time>
      </trkpt>
      <trkpt lat="47.95314" lon="2.24522">
        <ele>121.2635498</ele>
        <time>2012-05-01T12:38:54Z</time>
      </trkpt>
      <trkpt lat="47.95306" lon="2.24494">
        <ele>119.3408203</ele>
        <time>2012-05-01T12:39:10Z</time>
      </trkpt>
      <trkpt lat="47.95297" lon="2.24468">
        <ele>119.3408203</ele>
        <time>2012-05-01T12:39:24Z</time>
      </trkpt>
      <trkpt lat="47.95287" lon="2.2444">
        <ele>119.8214111</ele>
        <time>2012-05-01T12:39:40Z</time>
      </trkpt>
      <trkpt lat="47.95283" lon="2.24427">
        <ele>119.3408203</ele>
        <time>2012-05-01T12:39:47Z</time>
      </trkpt>
      <trkpt lat="47.95273" lon="2.24403">
        <ele>116.9375</ele>
        <time>2012-05-01T12:40:02Z</time>
      </trkpt>
      <trkpt lat="47.95264" lon="2.24375">
        <ele>115.4956055</ele>
        <time>2012-05-01T12:40:18Z</time>
      </trkpt>
      <trkpt lat="47.95259" lon="2.24363">
        <ele>115.9761963</ele>
        <time>2012-05-01T12:40:25Z</time>
      </trkpt>
      <trkpt lat="47.95257" lon="2.24354">
        <ele>115.9761963</ele>
        <time>2012-05-01T12:40:30Z</time>
      </trkpt>
      <trkpt lat="47.95248" lon="2.24327">
        <ele>116.9375</ele>
        <time>2012-05-01T12:40:45Z</time>
      </trkpt>
      <trkpt lat="47.95243" lon="2.24316">
        <ele>116.9375</ele>
        <time>2012-05-01T12:40:51Z</time>
      </trkpt>
      <trkpt lat="47.9524" lon="2.24301">
        <ele>117.8988037</ele>
        <time>2012-05-01T12:40:59Z</time>
      </trkpt>
      <trkpt lat="47.95233" lon="2.24289">
        <ele>118.8601074</ele>
        <time>2012-05-01T12:41:07Z</time>
      </trkpt>
      <trkpt lat="47.95224" lon="2.24258">
        <ele>118.3793945</ele>
        <time>2012-05-01T12:41:24Z</time>
      </trkpt>
      <trkpt lat="47.95215" lon="2.24232">
        <ele>118.3793945</ele>
        <time>2012-05-01T12:41:39Z</time>
      </trkpt>
      <trkpt lat="47.95205" lon="2.24203">
        <ele>119.3408203</ele>
        <time>2012-05-01T12:41:55Z</time>
      </trkpt>
      <trkpt lat="47.95196" lon="2.24179">
        <ele>118.3793945</ele>
        <time>2012-05-01T12:42:09Z</time>
      </trkpt>
      <trkpt lat="47.95194" lon="2.24175">
        <ele>117.4182129</ele>
        <time>2012-05-01T12:42:22Z</time>
      </trkpt>
      <trkpt lat="47.95183" lon="2.24142">
        <ele>114.0535889</ele>
        <time>2012-05-01T12:42:43Z</time>
      </trkpt>
      <trkpt lat="47.95172" lon="2.24118">
        <ele>112.6115723</ele>
        <time>2012-05-01T12:42:58Z</time>
      </trkpt>
      <trkpt lat="47.95157" lon="2.24099">
        <ele>110.6888428</ele>
        <time>2012-05-01T12:43:13Z</time>
      </trkpt>
      <trkpt lat="47.95152" lon="2.24092">
        <ele>111.1695557</ele>
        <time>2012-05-01T12:43:29Z</time>
      </trkpt>
      <trkpt lat="47.9515" lon="2.2409">
        <ele>111.1695557</ele>
        <time>2012-05-01T12:43:31Z</time>
      </trkpt>
      <trkpt lat="47.95131" lon="2.24073">
        <ele>112.6115723</ele>
        <time>2012-05-01T12:43:48Z</time>
      </trkpt>
      <trkpt lat="47.95125" lon="2.2407">
        <ele>113.0922852</ele>
        <time>2012-05-01T12:44:01Z</time>
      </trkpt>
      <trkpt lat="47.95103" lon="2.24055">
        <ele>113.572998</ele>
        <time>2012-05-01T12:44:33Z</time>
      </trkpt>
      <trkpt lat="47.95083" lon="2.24034">
        <ele>109.7276611</ele>
        <time>2012-05-01T12:44:48Z</time>
      </trkpt>
      <trkpt lat="47.95075" lon="2.24028">
        <ele>109.2469482</ele>
        <time>2012-05-01T12:44:53Z</time>
      </trkpt>
      <trkpt lat="47.95058" lon="2.24012">
        <ele>112.1309814</ele>
        <time>2012-05-01T12:45:09Z</time>
      </trkpt>
      <trkpt lat="47.95037" lon="2.23997">
        <ele>112.1309814</ele>
        <time>2012-05-01T12:45:24Z</time>
      </trkpt>
      <trkpt lat="47.9502" lon="2.2398">
        <ele>109.7276611</ele>
        <time>2012-05-01T12:45:39Z</time>
      </trkpt>
      <trkpt lat="47.94999" lon="2.23965">
        <ele>112.1309814</ele>
        <time>2012-05-01T12:45:55Z</time>
      </trkpt>
      <trkpt lat="47.94982" lon="2.23946">
        <ele>113.572998</ele>
        <time>2012-05-01T12:46:10Z</time>
      </trkpt>
      <trkpt lat="47.94963" lon="2.23931">
        <ele>114.5341797</ele>
        <time>2012-05-01T12:46:25Z</time>
      </trkpt>
      <trkpt lat="47.94946" lon="2.23918">
        <ele>114.0535889</ele>
        <time>2012-05-01T12:46:38Z</time>
      </trkpt>
      <trkpt lat="47.94928" lon="2.239">
        <ele>113.572998</ele>
        <time>2012-05-01T12:46:54Z</time>
      </trkpt>
      <trkpt lat="47.94911" lon="2.23889">
        <ele>113.572998</ele>
        <time>2012-05-01T12:47:07Z</time>
      </trkpt>
      <trkpt lat="47.94905" lon="2.23883">
        <ele>112.6115723</ele>
        <time>2012-05-01T12:47:22Z</time>
      </trkpt>
      <trkpt lat="47.94895" lon="2.23877">
        <ele>111.6502686</ele>
        <time>2012-05-01T12:47:57Z</time>
      </trkpt>
      <trkpt lat="47.94885" lon="2.23869">
        <ele>110.208252</ele>
        <time>2012-05-01T12:48:06Z</time>
      </trkpt>
      <trkpt lat="47.94876" lon="2.23862">
        <ele>109.2469482</ele>
        <time>2012-05-01T12:48:14Z</time>
      </trkpt>
      <trkpt lat="47.94858" lon="2.23839">
        <ele>108.2856445</ele>
        <time>2012-05-01T12:48:27Z</time>
      </trkpt>
      <trkpt lat="47.94843" lon="2.23827">
        <ele>108.2856445</ele>
        <time>2012-05-01T12:48:40Z</time>
      </trkpt>
      <trkpt lat="47.94827" lon="2.23819">
        <ele>107.3243408</ele>
        <time>2012-05-01T12:48:52Z</time>
      </trkpt>
      <trkpt lat="47.94809" lon="2.23803">
        <ele>108.2856445</ele>
        <time>2012-05-01T12:49:07Z</time>
      </trkpt>
      <trkpt lat="47.94795" lon="2.23794">
        <ele>110.208252</ele>
        <time>2012-05-01T12:49:17Z</time>
      </trkpt>
      <trkpt lat="47.94782" lon="2.23785">
        <ele>110.6888428</ele>
        <time>2012-05-01T12:49:28Z</time>
      </trkpt>
      <trkpt lat="47.94771" lon="2.23773">
        <ele>110.208252</ele>
        <time>2012-05-01T12:49:38Z</time>
      </trkpt>
      <trkpt lat="47.9476" lon="2.23762">
        <ele>110.208252</ele>
        <time>2012-05-01T12:49:48Z</time>
      </trkpt>
      <trkpt lat="47.94744" lon="2.23751">
        <ele>108.7662354</ele>
        <time>2012-05-01T12:49:57Z</time>
      </trkpt>
      <trkpt lat="47.94737" lon="2.2374">
        <ele>109.2469482</ele>
        <time>2012-05-01T12:50:03Z</time>
      </trkpt>
      <trkpt lat="47.9473" lon="2.23731">
        <ele>110.6888428</ele>
        <time>2012-05-01T12:50:09Z</time>
      </trkpt>
      <trkpt lat="47.94722" lon="2.23724">
        <ele>112.6115723</ele>
        <time>2012-05-01T12:50:20Z</time>
      </trkpt>
      <trkpt lat="47.94712" lon="2.23717">
        <ele>113.572998</ele>
        <time>2012-05-01T12:51:04Z</time>
      </trkpt>
      <trkpt lat="47.94701" lon="2.23709">
        <ele>112.1309814</ele>
        <time>2012-05-01T12:51:11Z</time>
      </trkpt>
      <trkpt lat="47.94695" lon="2.23703">
        <ele>111.1695557</ele>
        <time>2012-05-01T12:51:34Z</time>
      </trkpt>
      <trkpt lat="47.94694" lon="2.237">
        <ele>118.8601074</ele>
        <time>2012-05-01T12:51:53Z</time>
      </trkpt>
      <trkpt lat="47.94691" lon="2.23699">
        <ele>117.4182129</ele>
        <time>2012-05-01T12:52:05Z</time>
      </trkpt>
      <trkpt lat="47.9468" lon="2.2369">
        <ele>116.9375</ele>
        <time>2012-05-01T12:52:35Z</time>
      </trkpt>
      <trkpt lat="47.94664" lon="2.23679">
        <ele>117.4182129</ele>
        <time>2012-05-01T12:52:48Z</time>
      </trkpt>
      <trkpt lat="47.94655" lon="2.2367">
        <ele>117.4182129</ele>
        <time>2012-05-01T12:53:02Z</time>
      </trkpt>
      <trkpt lat="47.94652" lon="2.23668">
        <ele>116.9375</ele>
        <time>2012-05-01T12:53:05Z</time>
      </trkpt>
      <trkpt lat="47.94639" lon="2.23654">
        <ele>115.4956055</ele>
        <time>2012-05-01T12:53:19Z</time>
      </trkpt>
      <trkpt lat="47.9464" lon="2.23652">
        <ele>115.0148926</ele>
        <time>2012-05-01T12:54:14Z</time>
      </trkpt>
      <trkpt lat="47.94641" lon="2.23645">
        <ele>114.5341797</ele>
        <time>2012-05-01T12:54:33Z</time>
      </trkpt>
      <trkpt lat="47.9464" lon="2.23631">
        <ele>115.9761963</ele>
        <time>2012-05-01T12:54:41Z</time>
      </trkpt>
      <trkpt lat="47.9464" lon="2.23618">
        <ele>114.0535889</ele>
        <time>2012-05-01T12:54:50Z</time>
      </trkpt>
      <trkpt lat="47.94639" lon="2.23603">
        <ele>109.2469482</ele>
        <time>2012-05-01T12:55:14Z</time>
      </trkpt>
      <trkpt lat="47.94639" lon="2.23598">
        <ele>109.2469482</ele>
        <time>2012-05-01T12:55:17Z</time>
      </trkpt>
      <trkpt lat="47.94637" lon="2.23591">
        <ele>108.2856445</ele>
        <time>2012-05-01T12:55:21Z</time>
      </trkpt>
      <trkpt lat="47.94635" lon="2.23584">
        <ele>107.3243408</ele>
        <time>2012-05-01T12:55:25Z</time>
      </trkpt>
      <trkpt lat="47.94635" lon="2.2358">
        <ele>107.3243408</ele>
        <time>2012-05-01T12:55:27Z</time>
      </trkpt>
      <trkpt lat="47.94635" lon="2.23576">
        <ele>106.8436279</ele>
        <time>2012-05-01T12:55:29Z</time>
      </trkpt>
      <trkpt lat="47.94638" lon="2.23549">
        <ele>105.4017334</ele>
        <time>2012-05-01T12:55:42Z</time>
      </trkpt>
      <trkpt lat="47.94639" lon="2.23538">
        <ele>104.9210205</ele>
        <time>2012-05-01T12:55:59Z</time>
      </trkpt>
      <trkpt lat="47.94638" lon="2.23526">
        <ele>103.9597168</ele>
        <time>2012-05-01T12:56:05Z</time>
      </trkpt>
      <trkpt lat="47.94638" lon="2.23508">
        <ele>101.0756836</ele>
        <time>2012-05-01T12:56:14Z</time>
      </trkpt>
      <trkpt lat="47.94639" lon="2.23487">
        <ele>97.7111816</ele>
        <time>2012-05-01T12:56:25Z</time>
      </trkpt>
      <trkpt lat="47.94636" lon="2.23468">
        <ele>93.8658447</ele>
        <time>2012-05-01T12:56:35Z</time>
      </trkpt>
      <trkpt lat="47.94637" lon="2.23441">
        <ele>98.6724854</ele>
        <time>2012-05-01T12:56:48Z</time>
      </trkpt>
      <trkpt lat="47.94638" lon="2.23421">
        <ele>100.114502</ele>
        <time>2012-05-01T12:56:57Z</time>
      </trkpt>
      <trkpt lat="47.9464" lon="2.23402">
        <ele>98.6724854</ele>
        <time>2012-05-01T12:57:08Z</time>
      </trkpt>
      <trkpt lat="47.94639" lon="2.23383">
        <ele>97.2304688</ele>
        <time>2012-05-01T12:57:19Z</time>
      </trkpt>
      <trkpt lat="47.94637" lon="2.23365">
        <ele>93.8658447</ele>
        <time>2012-05-01T12:57:30Z</time>
      </trkpt>
      <trkpt lat="47.94631" lon="2.23342">
        <ele>92.4239502</ele>
        <time>2012-05-01T12:57:45Z</time>
      </trkpt>
      <trkpt lat="47.9463" lon="2.23336">
        <ele>92.4239502</ele>
        <time>2012-05-01T12:57:48Z</time>
      </trkpt>
      <trkpt lat="47.9463" lon="2.23332">
        <ele>92.4239502</ele>
        <time>2012-05-01T12:57:50Z</time>
      </trkpt>
      <trkpt lat="47.94631" lon="2.2331">
        <ele>88.5787354</ele>
        <time>2012-05-01T12:58:02Z</time>
      </trkpt>
      <trkpt lat="47.94631" lon="2.23308">
        <ele>88.0980225</ele>
        <time>2012-05-01T12:58:03Z</time>
      </trkpt>
      <trkpt lat="47.94631" lon="2.233">
        <ele>86.6560059</ele>
        <time>2012-05-01T12:58:08Z</time>
      </trkpt>
      <trkpt lat="47.94633" lon="2.2329">
        <ele>84.7333984</ele>
        <time>2012-05-01T12:58:14Z</time>
      </trkpt>
      <trkpt lat="47.94633" lon="2.23285">
        <ele>84.2526855</ele>
        <time>2012-05-01T12:58:16Z</time>
      </trkpt>
      <trkpt lat="47.94632" lon="2.23278">
        <ele>82.810791</ele>
        <time>2012-05-01T12:58:20Z</time>
      </trkpt>
      <trkpt lat="47.94632" lon="2.23269">
        <ele>81.3687744</ele>
        <time>2012-05-01T12:58:24Z</time>
      </trkpt>
      <trkpt lat="47.94631" lon="2.23243">
        <ele>77.5234375</ele>
        <time>2012-05-01T12:58:35Z</time>
      </trkpt>
      <trkpt lat="47.9463" lon="2.23224">
        <ele>74.1588135</ele>
        <time>2012-05-01T12:58:46Z</time>
      </trkpt>
      <trkpt lat="47.94629" lon="2.23217">
        <ele>73.6782227</ele>
        <time>2012-05-01T12:58:49Z</time>
      </trkpt>
      <trkpt lat="47.9463" lon="2.23198">
        <ele>71.7554932</ele>
        <time>2012-05-01T12:59:00Z</time>
      </trkpt>
      <trkpt lat="47.94631" lon="2.23196">
        <ele>71.7554932</ele>
        <time>2012-05-01T12:59:01Z</time>
      </trkpt>
      <trkpt lat="47.94631" lon="2.23182">
        <ele>69.8328857</ele>
        <time>2012-05-01T12:59:07Z</time>
      </trkpt>
      <trkpt lat="47.94633" lon="2.23171">
        <ele>68.871582</ele>
        <time>2012-05-01T12:59:11Z</time>
      </trkpt>
      <trkpt lat="47.94631" lon="2.2316">
        <ele>65.9876709</ele>
        <time>2012-05-01T12:59:16Z</time>
      </trkpt>
      <trkpt lat="47.94631" lon="2.23148">
        <ele>73.6782227</ele>
        <time>2012-05-01T12:59:20Z</time>
      </trkpt>
      <trkpt lat="47.94632" lon="2.23142">
        <ele>74.6395264</ele>
        <time>2012-05-01T12:59:23Z</time>
      </trkpt>
      <trkpt lat="47.94629" lon="2.23117">
        <ele>74.6395264</ele>
        <time>2012-05-01T12:59:35Z</time>
      </trkpt>
      <trkpt lat="47.94631" lon="2.23103">
        <ele>67.4296875</ele>
        <time>2012-05-01T12:59:46Z</time>
      </trkpt>
      <trkpt lat="47.94632" lon="2.231">
        <ele>65.5070801</ele>
        <time>2012-05-01T12:59:48Z</time>
      </trkpt>
      <trkpt lat="47.94631" lon="2.2309">
        <ele>63.5843506</ele>
        <time>2012-05-01T12:59:52Z</time>
      </trkpt>
      <trkpt lat="47.9463" lon="2.23067">
        <ele>59.2584229</ele>
        <time>2012-05-01T13:00:04Z</time>
      </trkpt>
      <trkpt lat="47.9463" lon="2.23065">
        <ele>58.2971191</ele>
        <time>2012-05-01T13:00:06Z</time>
      </trkpt>
      <trkpt lat="47.94631" lon="2.23048">
        <ele>54.4517822</ele>
        <time>2012-05-01T13:00:17Z</time>
      </trkpt>
      <trkpt lat="47.94628" lon="2.23028">
        <ele>55.8937988</ele>
        <time>2012-05-01T13:00:25Z</time>
      </trkpt>
      <trkpt lat="47.94627" lon="2.22997">
        <ele>59.7391357</ele>
        <time>2012-05-01T13:00:37Z</time>
      </trkpt>
      <trkpt lat="47.94626" lon="2.2297">
        <ele>60.7003174</ele>
        <time>2012-05-01T13:00:51Z</time>
      </trkpt>
      <trkpt lat="47.94623" lon="2.22945">
        <ele>63.1036377</ele>
        <time>2012-05-01T13:01:01Z</time>
      </trkpt>
      <trkpt lat="47.94623" lon="2.22932">
        <ele>64.0650635</ele>
        <time>2012-05-01T13:01:06Z</time>
      </trkpt>
      <trkpt lat="47.94621" lon="2.22907">
        <ele>65.0263672</ele>
        <time>2012-05-01T13:01:23Z</time>
      </trkpt>
      <trkpt lat="47.94624" lon="2.22903">
        <ele>69.3522949</ele>
        <time>2012-05-01T13:01:47Z</time>
      </trkpt>
      <trkpt lat="47.94633" lon="2.22893">
        <ele>82.3300781</ele>
        <time>2012-05-01T13:01:59Z</time>
      </trkpt>
      <trkpt lat="47.94641" lon="2.22887">
        <ele>87.6171875</ele>
        <time>2012-05-01T13:02:15Z</time>
      </trkpt>
      <trkpt lat="47.94652" lon="2.22879">
        <ele>90.0206299</ele>
        <time>2012-05-01T13:02:24Z</time>
      </trkpt>
      <trkpt lat="47.94671" lon="2.22864">
        <ele>101.0756836</ele>
        <time>2012-05-01T13:02:34Z</time>
      </trkpt>
      <trkpt lat="47.9468" lon="2.22854">
        <ele>104.9210205</ele>
        <time>2012-05-01T13:02:44Z</time>
      </trkpt>
      <trkpt lat="47.94682" lon="2.2285">
        <ele>105.4017334</ele>
        <time>2012-05-01T13:02:46Z</time>
      </trkpt>
      <trkpt lat="47.94691" lon="2.22843">
        <ele>107.8050537</ele>
        <time>2012-05-01T13:02:55Z</time>
      </trkpt>
      <trkpt lat="47.94701" lon="2.22838">
        <ele>108.2856445</ele>
        <time>2012-05-01T13:03:03Z</time>
      </trkpt>
      <trkpt lat="47.94708" lon="2.22837">
        <ele>107.8050537</ele>
        <time>2012-05-01T13:03:10Z</time>
      </trkpt>
      <trkpt lat="47.94713" lon="2.22836">
        <ele>107.8050537</ele>
        <time>2012-05-01T13:03:26Z</time>
      </trkpt>
      <trkpt lat="47.94714" lon="2.22836">
        <ele>107.8050537</ele>
        <time>2012-05-01T13:03:47Z</time>
      </trkpt>
      <trkpt lat="47.94714" lon="2.22832">
        <ele>106.8436279</ele>
        <time>2012-05-01T13:03:50Z</time>
      </trkpt>
      <trkpt lat="47.94716" lon="2.22824">
        <ele>102.998291</ele>
        <time>2012-05-01T13:03:57Z</time>
      </trkpt>
      <trkpt lat="47.94722" lon="2.22818">
        <ele>94.8271484</ele>
        <time>2012-05-01T13:04:17Z</time>
      </trkpt>
      <trkpt lat="47.94722" lon="2.22819">
        <ele>93.8658447</ele>
        <time>2012-05-01T13:04:22Z</time>
      </trkpt>
      <trkpt lat="47.94721" lon="2.22802">
        <ele>91.4625244</ele>
        <time>2012-05-01T13:04:42Z</time>
      </trkpt>
      <trkpt lat="47.94722" lon="2.22787">
        <ele>90.9819336</ele>
        <time>2012-05-01T13:05:04Z</time>
      </trkpt>
      <trkpt lat="47.94723" lon="2.22777">
        <ele>93.3851318</ele>
        <time>2012-05-01T13:05:15Z</time>
      </trkpt>
      <trkpt lat="47.94724" lon="2.22765">
        <ele>95.3077393</ele>
        <time>2012-05-01T13:05:19Z</time>
      </trkpt>
      <trkpt lat="47.94725" lon="2.22756">
        <ele>96.7498779</ele>
        <time>2012-05-01T13:05:22Z</time>
      </trkpt>
      <trkpt lat="47.94724" lon="2.22739">
        <ele>98.6724854</ele>
        <time>2012-05-01T13:05:29Z</time>
      </trkpt>
      <trkpt lat="47.94723" lon="2.22722">
        <ele>98.6724854</ele>
        <time>2012-05-01T13:05:36Z</time>
      </trkpt>
      <trkpt lat="47.94723" lon="2.22719">
        <ele>97.7111816</ele>
        <time>2012-05-01T13:05:38Z</time>
      </trkpt>
      <trkpt lat="47.94722" lon="2.22697">
        <ele>96.7498779</ele>
        <time>2012-05-01T13:05:52Z</time>
      </trkpt>
      <trkpt lat="47.94722" lon="2.22676">
        <ele>96.2692871</ele>
        <time>2012-05-01T13:06:02Z</time>
      </trkpt>
      <trkpt lat="47.94724" lon="2.22668">
        <ele>95.3077393</ele>
        <time>2012-05-01T13:06:06Z</time>
      </trkpt>
      <trkpt lat="47.94726" lon="2.22645">
        <ele>93.8658447</ele>
        <time>2012-05-01T13:06:16Z</time>
      </trkpt>
      <trkpt lat="47.94725" lon="2.22626">
        <ele>91.9432373</ele>
        <time>2012-05-01T13:06:26Z</time>
      </trkpt>
      <trkpt lat="47.94724" lon="2.22619">
        <ele>91.4625244</ele>
        <time>2012-05-01T13:06:30Z</time>
      </trkpt>
      <trkpt lat="47.94721" lon="2.22608">
        <ele>90.9819336</ele>
        <time>2012-05-01T13:06:54Z</time>
      </trkpt>
      <trkpt lat="47.94719" lon="2.22605">
        <ele>91.9432373</ele>
        <time>2012-05-01T13:07:03Z</time>
      </trkpt>
      <trkpt lat="47.94718" lon="2.22582">
        <ele>92.4239502</ele>
        <time>2012-05-01T13:07:14Z</time>
      </trkpt>
      <trkpt lat="47.94717" lon="2.22579">
        <ele>92.4239502</ele>
        <time>2012-05-01T13:07:16Z</time>
      </trkpt>
      <trkpt lat="47.94717" lon="2.22572">
        <ele>92.4239502</ele>
        <time>2012-05-01T13:07:36Z</time>
      </trkpt>
      <trkpt lat="47.94717" lon="2.22555">
        <ele>94.8271484</ele>
        <time>2012-05-01T13:08:10Z</time>
      </trkpt>
      <trkpt lat="47.94717" lon="2.22551">
        <ele>94.8271484</ele>
        <time>2012-05-01T13:08:44Z</time>
      </trkpt>
      <trkpt lat="47.94715" lon="2.22531">
        <ele>96.2692871</ele>
        <time>2012-05-01T13:08:59Z</time>
      </trkpt>
      <trkpt lat="47.94715" lon="2.22523">
        <ele>96.7498779</ele>
        <time>2012-05-01T13:09:37Z</time>
      </trkpt>
      <trkpt lat="47.94713" lon="2.22506">
        <ele>98.1918945</ele>
        <time>2012-05-01T13:10:09Z</time>
      </trkpt>
      <trkpt lat="47.94715" lon="2.22475">
        <ele>97.7111816</ele>
        <time>2012-05-01T13:10:22Z</time>
      </trkpt>
      <trkpt lat="47.94715" lon="2.22451">
        <ele>97.2304688</ele>
        <time>2012-05-01T13:10:32Z</time>
      </trkpt>
      <trkpt lat="47.94711" lon="2.2244">
        <ele>96.2692871</ele>
        <time>2012-05-01T13:10:37Z</time>
      </trkpt>
      <trkpt lat="47.94708" lon="2.22412">
        <ele>99.6337891</ele>
        <time>2012-05-01T13:10:50Z</time>
      </trkpt>
      <trkpt lat="47.94707" lon="2.22405">
        <ele>99.6337891</ele>
        <time>2012-05-01T13:10:54Z</time>
      </trkpt>
      <trkpt lat="47.94702" lon="2.22375">
        <ele>98.6724854</ele>
        <time>2012-05-01T13:11:08Z</time>
      </trkpt>
      <trkpt lat="47.94702" lon="2.22368">
        <ele>97.7111816</ele>
        <time>2012-05-01T13:11:12Z</time>
      </trkpt>
      <trkpt lat="47.94702" lon="2.22356">
        <ele>96.7498779</ele>
        <time>2012-05-01T13:11:18Z</time>
      </trkpt>
      <trkpt lat="47.94702" lon="2.22342">
        <ele>97.2304688</ele>
        <time>2012-05-01T13:11:29Z</time>
      </trkpt>
      <trkpt lat="47.94699" lon="2.22335">
        <ele>96.7498779</ele>
        <time>2012-05-01T13:11:43Z</time>
      </trkpt>
      <trkpt lat="47.94699" lon="2.22326">
        <ele>94.8271484</ele>
        <time>2012-05-01T13:11:48Z</time>
      </trkpt>
      <trkpt lat="47.94701" lon="2.22319">
        <ele>93.8658447</ele>
        <time>2012-05-01T13:11:51Z</time>
      </trkpt>
      <trkpt lat="47.94703" lon="2.22284">
        <ele>94.8271484</ele>
        <time>2012-05-01T13:12:05Z</time>
      </trkpt>
      <trkpt lat="47.94698" lon="2.22264">
        <ele>97.7111816</ele>
        <time>2012-05-01T13:12:20Z</time>
      </trkpt>
      <trkpt lat="47.94696" lon="2.22247">
        <ele>94.3465576</ele>
        <time>2012-05-01T13:12:32Z</time>
      </trkpt>
      <trkpt lat="47.94692" lon="2.22229">
        <ele>87.6171875</ele>
        <time>2012-05-01T13:12:44Z</time>
      </trkpt>
      <trkpt lat="47.9469" lon="2.22207">
        <ele>80.4074707</ele>
        <time>2012-05-01T13:12:56Z</time>
      </trkpt>
      <trkpt lat="47.94691" lon="2.22195">
        <ele>79.4460449</ele>
        <time>2012-05-01T13:13:18Z</time>
      </trkpt>
      <trkpt lat="47.94685" lon="2.22181">
        <ele>82.3300781</ele>
        <time>2012-05-01T13:13:47Z</time>
      </trkpt>
      <trkpt lat="47.94676" lon="2.2215">
        <ele>92.904541</ele>
        <time>2012-05-01T13:14:11Z</time>
      </trkpt>
      <trkpt lat="47.94672" lon="2.22112">
        <ele>101.5563965</ele>
        <time>2012-05-01T13:14:44Z</time>
      </trkpt>
      <trkpt lat="47.94668" lon="2.221">
        <ele>101.5563965</ele>
        <time>2012-05-01T13:15:13Z</time>
      </trkpt>
      <trkpt lat="47.94661" lon="2.22079">
        <ele>103.9597168</ele>
        <time>2012-05-01T13:15:25Z</time>
      </trkpt>
      <trkpt lat="47.94658" lon="2.22074">
        <ele>105.4017334</ele>
        <time>2012-05-01T13:15:33Z</time>
      </trkpt>
      <trkpt lat="47.94656" lon="2.22069">
        <ele>106.8436279</ele>
        <time>2012-05-01T13:16:10Z</time>
      </trkpt>
      <trkpt lat="47.9465" lon="2.22056">
        <ele>108.2856445</ele>
        <time>2012-05-01T13:16:31Z</time>
      </trkpt>
      <trkpt lat="47.94637" lon="2.22025">
        <ele>112.6115723</ele>
        <time>2012-05-01T13:16:45Z</time>
      </trkpt>
      <trkpt lat="47.94631" lon="2.22004">
        <ele>117.4182129</ele>
        <time>2012-05-01T13:16:59Z</time>
      </trkpt>
      <trkpt lat="47.9463" lon="2.22002">
        <ele>117.4182129</ele>
        <time>2012-05-01T13:17:05Z</time>
      </trkpt>
      <trkpt lat="47.94624" lon="2.21986">
        <ele>117.8988037</ele>
        <time>2012-05-01T13:17:12Z</time>
      </trkpt>
      <trkpt lat="47.9462" lon="2.21975">
        <ele>118.3793945</ele>
        <time>2012-05-01T13:17:29Z</time>
      </trkpt>
      <trkpt lat="47.94614" lon="2.21958">
        <ele>117.4182129</ele>
        <time>2012-05-01T13:17:48Z</time>
      </trkpt>
      <trkpt lat="47.94608" lon="2.21945">
        <ele>116.9375</ele>
        <time>2012-05-01T13:18:04Z</time>
      </trkpt>
      <trkpt lat="47.94603" lon="2.21935">
        <ele>116.4567871</ele>
        <time>2012-05-01T13:18:17Z</time>
      </trkpt>
      <trkpt lat="47.94601" lon="2.21926">
        <ele>114.5341797</ele>
        <time>2012-05-01T13:18:22Z</time>
      </trkpt>
      <trkpt lat="47.94596" lon="2.21913">
        <ele>112.1309814</ele>
        <time>2012-05-01T13:18:29Z</time>
      </trkpt>
      <trkpt lat="47.9459" lon="2.21892">
        <ele>107.8050537</ele>
        <time>2012-05-01T13:18:42Z</time>
      </trkpt>
      <trkpt lat="47.94582" lon="2.21873">
        <ele>105.4017334</ele>
        <time>2012-05-01T13:19:01Z</time>
      </trkpt>
      <trkpt lat="47.94571" lon="2.21852">
        <ele>106.8436279</ele>
        <time>2012-05-01T13:19:19Z</time>
      </trkpt>
      <trkpt lat="47.9457" lon="2.21848">
        <ele>106.3630371</ele>
        <time>2012-05-01T13:19:21Z</time>
      </trkpt>
      <trkpt lat="47.94563" lon="2.21831">
        <ele>103.9597168</ele>
        <time>2012-05-01T13:19:33Z</time>
      </trkpt>
      <trkpt lat="47.94556" lon="2.21813">
        <ele>99.6337891</ele>
        <time>2012-05-01T13:19:45Z</time>
      </trkpt>
      <trkpt lat="47.9455" lon="2.218">
        <ele>99.1530762</ele>
        <time>2012-05-01T13:19:51Z</time>
      </trkpt>
      <trkpt lat="47.94547" lon="2.21797">
        <ele>98.1918945</ele>
        <time>2012-05-01T13:19:54Z</time>
      </trkpt>
      <trkpt lat="47.94537" lon="2.21775">
        <ele>95.3077393</ele>
        <time>2012-05-01T13:20:06Z</time>
      </trkpt>
      <trkpt lat="47.94526" lon="2.21752">
        <ele>95.7884521</ele>
        <time>2012-05-01T13:20:18Z</time>
      </trkpt>
      <trkpt lat="47.94524" lon="2.21747">
        <ele>94.8271484</ele>
        <time>2012-05-01T13:20:21Z</time>
      </trkpt>
      <trkpt lat="47.94521" lon="2.21732">
        <ele>92.904541</ele>
        <time>2012-05-01T13:20:29Z</time>
      </trkpt>
      <trkpt lat="47.94515" lon="2.21713">
        <ele>93.3851318</ele>
        <time>2012-05-01T13:20:45Z</time>
      </trkpt>
      <trkpt lat="47.9451" lon="2.21692">
        <ele>94.3465576</ele>
        <time>2012-05-01T13:20:55Z</time>
      </trkpt>
      <trkpt lat="47.94503" lon="2.21671">
        <ele>97.7111816</ele>
        <time>2012-05-01T13:21:07Z</time>
      </trkpt>
      <trkpt lat="47.94494" lon="2.21636">
        <ele>101.0756836</ele>
        <time>2012-05-01T13:21:22Z</time>
      </trkpt>
      <trkpt lat="47.94493" lon="2.21631">
        <ele>101.0756836</ele>
        <time>2012-05-01T13:21:24Z</time>
      </trkpt>
      <trkpt lat="47.9449" lon="2.21624">
        <ele>99.6337891</ele>
        <time>2012-05-01T13:21:29Z</time>
      </trkpt>
      <trkpt lat="47.94483" lon="2.2161">
        <ele>94.8271484</ele>
        <time>2012-05-01T13:21:40Z</time>
      </trkpt>
      <trkpt lat="47.94475" lon="2.21591">
        <ele>92.904541</ele>
        <time>2012-05-01T13:21:50Z</time>
      </trkpt>
      <trkpt lat="47.94465" lon="2.21576">
        <ele>94.8271484</ele>
        <time>2012-05-01T13:21:59Z</time>
      </trkpt>
      <trkpt lat="47.94458" lon="2.21554">
        <ele>95.7884521</ele>
        <time>2012-05-01T13:22:17Z</time>
      </trkpt>
      <trkpt lat="47.94456" lon="2.21546">
        <ele>95.7884521</ele>
        <time>2012-05-01T13:22:30Z</time>
      </trkpt>
      <trkpt lat="47.94442" lon="2.21506">
        <ele>95.7884521</ele>
        <time>2012-05-01T13:22:51Z</time>
      </trkpt>
      <trkpt lat="47.94435" lon="2.21489">
        <ele>99.6337891</ele>
        <time>2012-05-01T13:23:01Z</time>
      </trkpt>
      <trkpt lat="47.94428" lon="2.21475">
        <ele>103.4790039</ele>
        <time>2012-05-01T13:23:10Z</time>
      </trkpt>
      <trkpt lat="47.94415" lon="2.21452">
        <ele>109.7276611</ele>
        <time>2012-05-01T13:23:25Z</time>
      </trkpt>
      <trkpt lat="47.94404" lon="2.21444">
        <ele>112.6115723</ele>
        <time>2012-05-01T13:23:35Z</time>
      </trkpt>
      <trkpt lat="47.94397" lon="2.21447">
        <ele>111.6502686</ele>
        <time>2012-05-01T13:23:51Z</time>
      </trkpt>
      <trkpt lat="47.9439" lon="2.21453">
        <ele>111.1695557</ele>
        <time>2012-05-01T13:24:08Z</time>
      </trkpt>
      <trkpt lat="47.94381" lon="2.21462">
        <ele>109.2469482</ele>
        <time>2012-05-01T13:24:36Z</time>
      </trkpt>
      <trkpt lat="47.94372" lon="2.21471">
        <ele>106.8436279</ele>
        <time>2012-05-01T13:24:44Z</time>
      </trkpt>
      <trkpt lat="47.94364" lon="2.21474">
        <ele>105.4017334</ele>
        <time>2012-05-01T13:24:56Z</time>
      </trkpt>
      <trkpt lat="47.94361" lon="2.21475">
        <ele>105.4017334</ele>
        <time>2012-05-01T13:25:07Z</time>
      </trkpt>
      <trkpt lat="47.94357" lon="2.21478">
        <ele>103.9597168</ele>
        <time>2012-05-01T13:25:13Z</time>
      </trkpt>
      <trkpt lat="47.94355" lon="2.21481">
        <ele>103.9597168</ele>
        <time>2012-05-01T13:25:15Z</time>
      </trkpt>
      <trkpt lat="47.9434" lon="2.21502">
        <ele>102.5177002</ele>
        <time>2012-05-01T13:25:27Z</time>
      </trkpt>
      <trkpt lat="47.94328" lon="2.21507">
        <ele>100.114502</ele>
        <time>2012-05-01T13:25:37Z</time>
      </trkpt>
      <trkpt lat="47.94318" lon="2.21512">
        <ele>96.7498779</ele>
        <time>2012-05-01T13:25:46Z</time>
      </trkpt>
      <trkpt lat="47.94315" lon="2.21514">
        <ele>95.3077393</ele>
        <time>2012-05-01T13:25:49Z</time>
      </trkpt>
      <trkpt lat="47.94306" lon="2.21524">
        <ele>95.7884521</ele>
        <time>2012-05-01T13:25:57Z</time>
      </trkpt>
      <trkpt lat="47.94294" lon="2.21529">
        <ele>99.1530762</ele>
        <time>2012-05-01T13:26:07Z</time>
      </trkpt>
      <trkpt lat="47.94282" lon="2.2154">
        <ele>100.114502</ele>
        <time>2012-05-01T13:26:16Z</time>
      </trkpt>
      <trkpt lat="47.94274" lon="2.21548">
        <ele>102.5177002</ele>
        <time>2012-05-01T13:26:32Z</time>
      </trkpt>
      <trkpt lat="47.94268" lon="2.21547">
        <ele>103.9597168</ele>
        <time>2012-05-01T13:26:36Z</time>
      </trkpt>
      <trkpt lat="47.94255" lon="2.21554">
        <ele>103.4790039</ele>
        <time>2012-05-01T13:26:46Z</time>
      </trkpt>
      <trkpt lat="47.94239" lon="2.21569">
        <ele>102.0371094</ele>
        <time>2012-05-01T13:27:00Z</time>
      </trkpt>
      <trkpt lat="47.94229" lon="2.21575">
        <ele>102.0371094</ele>
        <time>2012-05-01T13:27:10Z</time>
      </trkpt>
      <trkpt lat="47.94217" lon="2.21583">
        <ele>101.5563965</ele>
        <time>2012-05-01T13:27:21Z</time>
      </trkpt>
      <trkpt lat="47.94215" lon="2.21586">
        <ele>101.0756836</ele>
        <time>2012-05-01T13:27:24Z</time>
      </trkpt>
      <trkpt lat="47.94202" lon="2.21595">
        <ele>102.0371094</ele>
        <time>2012-05-01T13:27:35Z</time>
      </trkpt>
      <trkpt lat="47.94196" lon="2.216">
        <ele>102.0371094</ele>
        <time>2012-05-01T13:27:40Z</time>
      </trkpt>
      <trkpt lat="47.94179" lon="2.21616">
        <ele>99.6337891</ele>
        <time>2012-05-01T13:27:55Z</time>
      </trkpt>
      <trkpt lat="47.9417" lon="2.21623">
        <ele>97.7111816</ele>
        <time>2012-05-01T13:28:06Z</time>
      </trkpt>
      <trkpt lat="47.94157" lon="2.21632">
        <ele>97.2304688</ele>
        <time>2012-05-01T13:28:27Z</time>
      </trkpt>
      <trkpt lat="47.94144" lon="2.21645">
        <ele>96.2692871</ele>
        <time>2012-05-01T13:28:39Z</time>
      </trkpt>
      <trkpt lat="47.94139" lon="2.21653">
        <ele>95.3077393</ele>
        <time>2012-05-01T13:29:01Z</time>
      </trkpt>
      <trkpt lat="47.94136" lon="2.21654">
        <ele>95.3077393</ele>
        <time>2012-05-01T13:29:03Z</time>
      </trkpt>
      <trkpt lat="47.94127" lon="2.21663">
        <ele>104.9210205</ele>
        <time>2012-05-01T13:29:19Z</time>
      </trkpt>
      <trkpt lat="47.94118" lon="2.21671">
        <ele>105.4017334</ele>
        <time>2012-05-01T13:29:40Z</time>
      </trkpt>
      <trkpt lat="47.94106" lon="2.21682">
        <ele>109.2469482</ele>
        <time>2012-05-01T13:29:55Z</time>
      </trkpt>
      <trkpt lat="47.94104" lon="2.21683">
        <ele>109.7276611</ele>
        <time>2012-05-01T13:30:12Z</time>
      </trkpt>
      <trkpt lat="47.94087" lon="2.21693">
        <ele>107.3243408</ele>
        <time>2012-05-01T13:30:27Z</time>
      </trkpt>
      <trkpt lat="47.94083" lon="2.21698">
        <ele>105.8824463</ele>
        <time>2012-05-01T13:30:33Z</time>
      </trkpt>
      <trkpt lat="47.94069" lon="2.21706">
        <ele>106.3630371</ele>
        <time>2012-05-01T13:30:46Z</time>
      </trkpt>
      <trkpt lat="47.94067" lon="2.21708">
        <ele>106.8436279</ele>
        <time>2012-05-01T13:30:50Z</time>
      </trkpt>
      <trkpt lat="47.9406" lon="2.21716">
        <ele>107.3243408</ele>
        <time>2012-05-01T13:30:57Z</time>
      </trkpt>
      <trkpt lat="47.9405" lon="2.21725">
        <ele>107.8050537</ele>
        <time>2012-05-01T13:31:05Z</time>
      </trkpt>
      <trkpt lat="47.94042" lon="2.21738">
        <ele>106.8436279</ele>
        <time>2012-05-01T13:31:13Z</time>
      </trkpt>
      <trkpt lat="47.9404" lon="2.21743">
        <ele>106.3630371</ele>
        <time>2012-05-01T13:31:15Z</time>
      </trkpt>
      <trkpt lat="47.94034" lon="2.21756">
        <ele>105.4017334</ele>
        <time>2012-05-01T13:31:26Z</time>
      </trkpt>
      <trkpt lat="47.94031" lon="2.21773">
        <ele>103.9597168</ele>
        <time>2012-05-01T13:31:41Z</time>
      </trkpt>
      <trkpt lat="47.94029" lon="2.2179">
        <ele>102.998291</ele>
        <time>2012-05-01T13:31:51Z</time>
      </trkpt>
      <trkpt lat="47.9402" lon="2.218">
        <ele>102.0371094</ele>
        <time>2012-05-01T13:31:58Z</time>
      </trkpt>
      <trkpt lat="47.9401" lon="2.21806">
        <ele>103.4790039</ele>
        <time>2012-05-01T13:32:14Z</time>
      </trkpt>
      <trkpt lat="47.94008" lon="2.21806">
        <ele>103.9597168</ele>
        <time>2012-05-01T13:32:16Z</time>
      </trkpt>
      <trkpt lat="47.93994" lon="2.21802">
        <ele>100.114502</ele>
        <time>2012-05-01T13:32:31Z</time>
      </trkpt>
      <trkpt lat="47.9398" lon="2.21796">
        <ele>96.2692871</ele>
        <time>2012-05-01T13:32:43Z</time>
      </trkpt>
      <trkpt lat="47.93962" lon="2.21789">
        <ele>88.5787354</ele>
        <time>2012-05-01T13:32:57Z</time>
      </trkpt>
      <trkpt lat="47.93945" lon="2.21781">
        <ele>78.0040283</ele>
        <time>2012-05-01T13:33:11Z</time>
      </trkpt>
      <trkpt lat="47.93933" lon="2.21776">
        <ele>74.6395264</ele>
        <time>2012-05-01T13:33:21Z</time>
      </trkpt>
      <trkpt lat="47.93916" lon="2.21764">
        <ele>76.0814209</ele>
        <time>2012-05-01T13:33:35Z</time>
      </trkpt>
      <trkpt lat="47.93904" lon="2.21758">
        <ele>77.5234375</ele>
        <time>2012-05-01T13:33:43Z</time>
      </trkpt>
      <trkpt lat="47.93901" lon="2.21757">
        <ele>76.5621338</ele>
        <time>2012-05-01T13:33:46Z</time>
      </trkpt>
      <trkpt lat="47.93893" lon="2.21753">
        <ele>78.4847412</ele>
        <time>2012-05-01T13:33:51Z</time>
      </trkpt>
      <trkpt lat="47.93882" lon="2.21753">
        <ele>83.7719727</ele>
        <time>2012-05-01T13:33:58Z</time>
      </trkpt>
      <trkpt lat="47.93877" lon="2.21759">
        <ele>89.539917</ele>
        <time>2012-05-01T13:34:05Z</time>
      </trkpt>
      <trkpt lat="47.93876" lon="2.21766">
        <ele>93.3851318</ele>
        <time>2012-05-01T13:34:18Z</time>
      </trkpt>
      <trkpt lat="47.93875" lon="2.21769">
        <ele>94.3465576</ele>
        <time>2012-05-01T13:36:12Z</time>
      </trkpt>
      <trkpt lat="47.93871" lon="2.21751">
        <ele>102.998291</ele>
        <time>2012-05-01T13:36:25Z</time>
      </trkpt>
      <trkpt lat="47.9387" lon="2.21746">
        <ele>103.4790039</ele>
        <time>2012-05-01T13:36:28Z</time>
      </trkpt>
      <trkpt lat="47.93852" lon="2.21738">
        <ele>102.5177002</ele>
        <time>2012-05-01T13:36:44Z</time>
      </trkpt>
      <trkpt lat="47.93843" lon="2.21737">
        <ele>102.998291</ele>
        <time>2012-05-01T13:37:15Z</time>
      </trkpt>
      <trkpt lat="47.93838" lon="2.21736">
        <ele>103.9597168</ele>
        <time>2012-05-01T13:37:58Z</time>
      </trkpt>
      <trkpt lat="47.93829" lon="2.21737">
        <ele>103.9597168</ele>
        <time>2012-05-01T13:38:13Z</time>
      </trkpt>
      <trkpt lat="47.93804" lon="2.21734">
        <ele>103.4790039</ele>
        <time>2012-05-01T13:38:31Z</time>
      </trkpt>
      <trkpt lat="47.93784" lon="2.21733">
        <ele>104.9210205</ele>
        <time>2012-05-01T13:38:46Z</time>
      </trkpt>
      <trkpt lat="47.93772" lon="2.21732">
        <ele>105.8824463</ele>
        <time>2012-05-01T13:39:00Z</time>
      </trkpt>
      <trkpt lat="47.93759" lon="2.21731">
        <ele>107.3243408</ele>
        <time>2012-05-01T13:39:24Z</time>
      </trkpt>
      <trkpt lat="47.93739" lon="2.2173">
        <ele>107.8050537</ele>
        <time>2012-05-01T13:39:39Z</time>
      </trkpt>
      <trkpt lat="47.9373" lon="2.2173">
        <ele>108.2856445</ele>
        <time>2012-05-01T13:39:54Z</time>
      </trkpt>
      <trkpt lat="47.93717" lon="2.21729">
        <ele>109.2469482</ele>
        <time>2012-05-01T13:40:12Z</time>
      </trkpt>
      <trkpt lat="47.93698" lon="2.2173">
        <ele>108.7662354</ele>
        <time>2012-05-01T13:40:27Z</time>
      </trkpt>
      <trkpt lat="47.9368" lon="2.21731">
        <ele>111.1695557</ele>
        <time>2012-05-01T13:40:41Z</time>
      </trkpt>
      <trkpt lat="47.93675" lon="2.2173">
        <ele>112.1309814</ele>
        <time>2012-05-01T13:41:05Z</time>
      </trkpt>
      <trkpt lat="47.93671" lon="2.2173">
        <ele>112.1309814</ele>
        <time>2012-05-01T13:41:44Z</time>
      </trkpt>
      <trkpt lat="47.93667" lon="2.21729">
        <ele>112.1309814</ele>
        <time>2012-05-01T13:41:57Z</time>
      </trkpt>
      <trkpt lat="47.93659" lon="2.21728">
        <ele>112.1309814</ele>
        <time>2012-05-01T13:42:36Z</time>
      </trkpt>
      <trkpt lat="47.93654" lon="2.21728">
        <ele>111.6502686</ele>
        <time>2012-05-01T13:42:44Z</time>
      </trkpt>
      <trkpt lat="47.93642" lon="2.21728">
        <ele>112.6115723</ele>
        <time>2012-05-01T13:43:16Z</time>
      </trkpt>
      <trkpt lat="47.93628" lon="2.21727">
        <ele>112.1309814</ele>
        <time>2012-05-01T13:43:29Z</time>
      </trkpt>
      <trkpt lat="47.93623" lon="2.21727">
        <ele>112.6115723</ele>
        <time>2012-05-01T13:44:12Z</time>
      </trkpt>
      <trkpt lat="47.93609" lon="2.21727">
        <ele>110.6888428</ele>
        <time>2012-05-01T13:44:38Z</time>
      </trkpt>
      <trkpt lat="47.93602" lon="2.21726">
        <ele>110.6888428</ele>
        <time>2012-05-01T13:44:49Z</time>
      </trkpt>
      <trkpt lat="47.93597" lon="2.21726">
        <ele>110.208252</ele>
        <time>2012-05-01T13:45:26Z</time>
      </trkpt>
      <trkpt lat="47.93587" lon="2.21722">
        <ele>110.208252</ele>
        <time>2012-05-01T13:45:48Z</time>
      </trkpt>
      <trkpt lat="47.93581" lon="2.21723">
        <ele>109.7276611</ele>
        <time>2012-05-01T13:46:02Z</time>
      </trkpt>
      <trkpt lat="47.93553" lon="2.21723">
        <ele>111.6502686</ele>
        <time>2012-05-01T13:46:21Z</time>
      </trkpt>
      <trkpt lat="47.93527" lon="2.21722">
        <ele>112.1309814</ele>
        <time>2012-05-01T13:46:39Z</time>
      </trkpt>
      <trkpt lat="47.93516" lon="2.21727">
        <ele>112.1309814</ele>
        <time>2012-05-01T13:46:51Z</time>
      </trkpt>
      <trkpt lat="47.93515" lon="2.2173">
        <ele>111.6502686</ele>
        <time>2012-05-01T13:47:21Z</time>
      </trkpt>
      <trkpt lat="47.93514" lon="2.21736">
        <ele>111.1695557</ele>
        <time>2012-05-01T13:47:38Z</time>
      </trkpt>
      <trkpt lat="47.93518" lon="2.21755">
        <ele>110.208252</ele>
        <time>2012-05-01T13:47:53Z</time>
      </trkpt>
      <trkpt lat="47.93526" lon="2.21779">
        <ele>110.208252</ele>
        <time>2012-05-01T13:48:05Z</time>
      </trkpt>
      <trkpt lat="47.93527" lon="2.21794">
        <ele>111.6502686</ele>
        <time>2012-05-01T13:48:12Z</time>
      </trkpt>
      <trkpt lat="47.93528" lon="2.21799">
        <ele>111.6502686</ele>
        <time>2012-05-01T13:48:14Z</time>
      </trkpt>
      <trkpt lat="47.93533" lon="2.21812">
        <ele>112.6115723</ele>
        <time>2012-05-01T13:48:21Z</time>
      </trkpt>
      <trkpt lat="47.93537" lon="2.21833">
        <ele>113.0922852</ele>
        <time>2012-05-01T13:48:31Z</time>
      </trkpt>
      <trkpt lat="47.93542" lon="2.21856">
        <ele>113.0922852</ele>
        <time>2012-05-01T13:48:43Z</time>
      </trkpt>
      <trkpt lat="47.93544" lon="2.21862">
        <ele>113.0922852</ele>
        <time>2012-05-01T13:48:47Z</time>
      </trkpt>
      <trkpt lat="47.93547" lon="2.21876">
        <ele>112.6115723</ele>
        <time>2012-05-01T13:49:01Z</time>
      </trkpt>
      <trkpt lat="47.93547" lon="2.21881">
        <ele>112.1309814</ele>
        <time>2012-05-01T13:49:04Z</time>
      </trkpt>
      <trkpt lat="47.93548" lon="2.2189">
        <ele>111.1695557</ele>
        <time>2012-05-01T13:49:23Z</time>
      </trkpt>
      <trkpt lat="47.93553" lon="2.21912">
        <ele>110.208252</ele>
        <time>2012-05-01T13:49:37Z</time>
      </trkpt>
      <trkpt lat="47.9356" lon="2.21934">
        <ele>109.7276611</ele>
        <time>2012-05-01T13:49:55Z</time>
      </trkpt>
      <trkpt lat="47.93563" lon="2.21942">
        <ele>109.2469482</ele>
        <time>2012-05-01T13:50:05Z</time>
      </trkpt>
      <trkpt lat="47.93574" lon="2.21966">
        <ele>109.2469482</ele>
        <time>2012-05-01T13:50:18Z</time>
      </trkpt>
      <trkpt lat="47.93576" lon="2.2197">
        <ele>110.208252</ele>
        <time>2012-05-01T13:50:20Z</time>
      </trkpt>
      <trkpt lat="47.93577" lon="2.2198">
        <ele>110.208252</ele>
        <time>2012-05-01T13:50:25Z</time>
      </trkpt>
      <trkpt lat="47.93581" lon="2.22007">
        <ele>109.2469482</ele>
        <time>2012-05-01T13:50:39Z</time>
      </trkpt>
      <trkpt lat="47.93582" lon="2.22011">
        <ele>109.2469482</ele>
        <time>2012-05-01T13:50:41Z</time>
      </trkpt>
      <trkpt lat="47.93581" lon="2.22019">
        <ele>108.2856445</ele>
        <time>2012-05-01T13:50:47Z</time>
      </trkpt>
      <trkpt lat="47.93583" lon="2.22028">
        <ele>107.8050537</ele>
        <time>2012-05-01T13:50:51Z</time>
      </trkpt>
      <trkpt lat="47.93581" lon="2.22055">
        <ele>104.9210205</ele>
        <time>2012-05-01T13:51:05Z</time>
      </trkpt>
      <trkpt lat="47.93581" lon="2.22057">
        <ele>104.9210205</ele>
        <time>2012-05-01T13:51:06Z</time>
      </trkpt>
      <trkpt lat="47.93584" lon="2.2208">
        <ele>103.9597168</ele>
        <time>2012-05-01T13:51:18Z</time>
      </trkpt>
      <trkpt lat="47.93581" lon="2.221">
        <ele>103.9597168</ele>
        <time>2012-05-01T13:51:29Z</time>
      </trkpt>
      <trkpt lat="47.9358" lon="2.22117">
        <ele>102.998291</ele>
        <time>2012-05-01T13:51:38Z</time>
      </trkpt>
      <trkpt lat="47.93581" lon="2.22127">
        <ele>103.4790039</ele>
        <time>2012-05-01T13:51:51Z</time>
      </trkpt>
      <trkpt lat="47.93581" lon="2.22139">
        <ele>104.4404297</ele>
        <time>2012-05-01T13:52:12Z</time>
      </trkpt>
      <trkpt lat="47.93582" lon="2.22162">
        <ele>104.9210205</ele>
        <time>2012-05-01T13:52:30Z</time>
      </trkpt>
      <trkpt lat="47.93581" lon="2.2218">
        <ele>102.5177002</ele>
        <time>2012-05-01T13:52:40Z</time>
      </trkpt>
      <trkpt lat="47.93581" lon="2.22205">
        <ele>100.114502</ele>
        <time>2012-05-01T13:52:53Z</time>
      </trkpt>
      <trkpt lat="47.93581" lon="2.22212">
        <ele>99.6337891</ele>
        <time>2012-05-01T13:52:56Z</time>
      </trkpt>
      <trkpt lat="47.93584" lon="2.22245">
        <ele>100.5950928</ele>
        <time>2012-05-01T13:53:12Z</time>
      </trkpt>
      <trkpt lat="47.93585" lon="2.22271">
        <ele>101.5563965</ele>
        <time>2012-05-01T13:53:25Z</time>
      </trkpt>
      <trkpt lat="47.93586" lon="2.22292">
        <ele>101.5563965</ele>
        <time>2012-05-01T13:53:36Z</time>
      </trkpt>
      <trkpt lat="47.93587" lon="2.22304">
        <ele>102.5177002</ele>
        <time>2012-05-01T13:53:41Z</time>
      </trkpt>
      <trkpt lat="47.93586" lon="2.22329">
        <ele>102.5177002</ele>
        <time>2012-05-01T13:53:53Z</time>
      </trkpt>
      <trkpt lat="47.93589" lon="2.22344">
        <ele>102.998291</ele>
        <time>2012-05-01T13:54:01Z</time>
      </trkpt>
      <trkpt lat="47.93591" lon="2.22353">
        <ele>102.998291</ele>
        <time>2012-05-01T13:54:05Z</time>
      </trkpt>
      <trkpt lat="47.93592" lon="2.22361">
        <ele>102.0371094</ele>
        <time>2012-05-01T13:54:09Z</time>
      </trkpt>
      <trkpt lat="47.93596" lon="2.22381">
        <ele>102.0371094</ele>
        <time>2012-05-01T13:54:19Z</time>
      </trkpt>
      <trkpt lat="47.93598" lon="2.22384">
        <ele>102.0371094</ele>
        <time>2012-05-01T13:54:21Z</time>
      </trkpt>
      <trkpt lat="47.93603" lon="2.22392">
        <ele>102.5177002</ele>
        <time>2012-05-01T13:54:26Z</time>
      </trkpt>
      <trkpt lat="47.93612" lon="2.2241">
        <ele>102.5177002</ele>
        <time>2012-05-01T13:54:36Z</time>
      </trkpt>
      <trkpt lat="47.93614" lon="2.22419">
        <ele>101.5563965</ele>
        <time>2012-05-01T13:54:41Z</time>
      </trkpt>
      <trkpt lat="47.93624" lon="2.22439">
        <ele>103.9597168</ele>
        <time>2012-05-01T13:54:53Z</time>
      </trkpt>
      <trkpt lat="47.93629" lon="2.22446">
        <ele>104.4404297</ele>
        <time>2012-05-01T13:54:57Z</time>
      </trkpt>
      <trkpt lat="47.93635" lon="2.22463">
        <ele>104.9210205</ele>
        <time>2012-05-01T13:55:08Z</time>
      </trkpt>
      <trkpt lat="47.93643" lon="2.22473">
        <ele>103.9597168</ele>
        <time>2012-05-01T13:55:16Z</time>
      </trkpt>
      <trkpt lat="47.93646" lon="2.22483">
        <ele>103.9597168</ele>
        <time>2012-05-01T13:55:21Z</time>
      </trkpt>
      <trkpt lat="47.93649" lon="2.22494">
        <ele>102.998291</ele>
        <time>2012-05-01T13:55:27Z</time>
      </trkpt>
      <trkpt lat="47.93653" lon="2.22504">
        <ele>99.6337891</ele>
        <time>2012-05-01T13:55:34Z</time>
      </trkpt>
      <trkpt lat="47.93654" lon="2.2251">
        <ele>98.6724854</ele>
        <time>2012-05-01T13:55:37Z</time>
      </trkpt>
      <trkpt lat="47.93652" lon="2.22516">
        <ele>98.1918945</ele>
        <time>2012-05-01T13:55:40Z</time>
      </trkpt>
      <trkpt lat="47.93646" lon="2.22533">
        <ele>98.1918945</ele>
        <time>2012-05-01T13:55:50Z</time>
      </trkpt>
      <trkpt lat="47.93645" lon="2.22536">
        <ele>98.6724854</ele>
        <time>2012-05-01T13:55:56Z</time>
      </trkpt>
      <trkpt lat="47.93642" lon="2.22539">
        <ele>98.6724854</ele>
        <time>2012-05-01T13:56:11Z</time>
      </trkpt>
      <trkpt lat="47.93634" lon="2.22551">
        <ele>98.6724854</ele>
        <time>2012-05-01T13:56:31Z</time>
      </trkpt>
      <trkpt lat="47.93625" lon="2.22566">
        <ele>97.2304688</ele>
        <time>2012-05-01T13:56:43Z</time>
      </trkpt>
      <trkpt lat="47.93616" lon="2.22584">
        <ele>97.2304688</ele>
        <time>2012-05-01T13:56:57Z</time>
      </trkpt>
      <trkpt lat="47.93616" lon="2.22586">
        <ele>97.7111816</ele>
        <time>2012-05-01T13:57:11Z</time>
      </trkpt>
      <trkpt lat="47.93608" lon="2.22603">
        <ele>100.5950928</ele>
        <time>2012-05-01T13:57:27Z</time>
      </trkpt>
      <trkpt lat="47.93605" lon="2.22608">
        <ele>101.0756836</ele>
        <time>2012-05-01T13:57:32Z</time>
      </trkpt>
      <trkpt lat="47.93596" lon="2.22625">
        <ele>103.4790039</ele>
        <time>2012-05-01T13:57:54Z</time>
      </trkpt>
      <trkpt lat="47.93595" lon="2.22628">
        <ele>103.4790039</ele>
        <time>2012-05-01T13:58:07Z</time>
      </trkpt>
      <trkpt lat="47.93577" lon="2.22645">
        <ele>103.9597168</ele>
        <time>2012-05-01T13:58:25Z</time>
      </trkpt>
      <trkpt lat="47.93564" lon="2.22662">
        <ele>103.9597168</ele>
        <time>2012-05-01T13:58:45Z</time>
      </trkpt>
      <trkpt lat="47.93548" lon="2.22673">
        <ele>108.7662354</ele>
        <time>2012-05-01T13:59:01Z</time>
      </trkpt>
      <trkpt lat="47.93538" lon="2.2268">
        <ele>112.6115723</ele>
        <time>2012-05-01T13:59:12Z</time>
      </trkpt>
      <trkpt lat="47.93524" lon="2.22689">
        <ele>115.0148926</ele>
        <time>2012-05-01T13:59:24Z</time>
      </trkpt>
      <trkpt lat="47.93518" lon="2.22693">
        <ele>114.5341797</ele>
        <time>2012-05-01T13:59:29Z</time>
      </trkpt>
      <trkpt lat="47.93513" lon="2.22697">
        <ele>113.572998</ele>
        <time>2012-05-01T13:59:41Z</time>
      </trkpt>
      <trkpt lat="47.93502" lon="2.22702">
        <ele>108.2856445</ele>
        <time>2012-05-01T14:00:01Z</time>
      </trkpt>
      <trkpt lat="47.93488" lon="2.22705">
        <ele>105.8824463</ele>
        <time>2012-05-01T14:00:11Z</time>
      </trkpt>
      <trkpt lat="47.93472" lon="2.22705">
        <ele>106.8436279</ele>
        <time>2012-05-01T14:00:23Z</time>
      </trkpt>
      <trkpt lat="47.93449" lon="2.22694">
        <ele>107.8050537</ele>
        <time>2012-05-01T14:00:38Z</time>
      </trkpt>
      <trkpt lat="47.93438" lon="2.22692">
        <ele>107.3243408</ele>
        <time>2012-05-01T14:00:46Z</time>
      </trkpt>
      <trkpt lat="47.93434" lon="2.22694">
        <ele>107.3243408</ele>
        <time>2012-05-01T14:00:58Z</time>
      </trkpt>
      <trkpt lat="47.93432" lon="2.22695">
        <ele>107.3243408</ele>
        <time>2012-05-01T14:01:05Z</time>
      </trkpt>
      <trkpt lat="47.93426" lon="2.22693">
        <ele>108.7662354</ele>
        <time>2012-05-01T14:01:21Z</time>
      </trkpt>
      <trkpt lat="47.93424" lon="2.22694">
        <ele>108.2856445</ele>
        <time>2012-05-01T14:02:29Z</time>
      </trkpt>
      <trkpt lat="47.93421" lon="2.227">
        <ele>108.2856445</ele>
        <time>2012-05-01T14:02:40Z</time>
      </trkpt>
      <trkpt lat="47.93419" lon="2.2269">
        <ele>105.8824463</ele>
        <time>2012-05-01T14:04:52Z</time>
      </trkpt>
      <trkpt lat="47.93415" lon="2.22674">
        <ele>103.9597168</ele>
        <time>2012-05-01T14:04:59Z</time>
      </trkpt>
      <trkpt lat="47.9341" lon="2.22651">
        <ele>105.4017334</ele>
        <time>2012-05-01T14:05:11Z</time>
      </trkpt>
      <trkpt lat="47.93407" lon="2.22633">
        <ele>104.4404297</ele>
        <time>2012-05-01T14:05:39Z</time>
      </trkpt>
      <trkpt lat="47.93401" lon="2.22611">
        <ele>102.5177002</ele>
        <time>2012-05-01T14:05:51Z</time>
      </trkpt>
      <trkpt lat="47.934" lon="2.22602">
        <ele>102.0371094</ele>
        <time>2012-05-01T14:05:55Z</time>
      </trkpt>
      <trkpt lat="47.93398" lon="2.22576">
        <ele>99.6337891</ele>
        <time>2012-05-01T14:06:08Z</time>
      </trkpt>
      <trkpt lat="47.93395" lon="2.22552">
        <ele>100.114502</ele>
        <time>2012-05-01T14:06:20Z</time>
      </trkpt>
      <trkpt lat="47.93392" lon="2.2253">
        <ele>97.7111816</ele>
        <time>2012-05-01T14:06:32Z</time>
      </trkpt>
      <trkpt lat="47.9339" lon="2.2252">
        <ele>97.7111816</ele>
        <time>2012-05-01T14:06:37Z</time>
      </trkpt>
      <trkpt lat="47.9339" lon="2.22504">
        <ele>97.2304688</ele>
        <time>2012-05-01T14:06:45Z</time>
      </trkpt>
      <trkpt lat="47.93391" lon="2.22491">
        <ele>97.7111816</ele>
        <time>2012-05-01T14:06:51Z</time>
      </trkpt>
      <trkpt lat="47.93389" lon="2.22466">
        <ele>99.6337891</ele>
        <time>2012-05-01T14:07:04Z</time>
      </trkpt>
      <trkpt lat="47.93386" lon="2.22441">
        <ele>101.0756836</ele>
        <time>2012-05-01T14:07:17Z</time>
      </trkpt>
      <trkpt lat="47.93385" lon="2.2243">
        <ele>102.5177002</ele>
        <time>2012-05-01T14:07:22Z</time>
      </trkpt>
      <trkpt lat="47.93383" lon="2.22404">
        <ele>102.998291</ele>
        <time>2012-05-01T14:07:34Z</time>
      </trkpt>
      <trkpt lat="47.93382" lon="2.224">
        <ele>102.998291</ele>
        <time>2012-05-01T14:07:46Z</time>
      </trkpt>
      <trkpt lat="47.93382" lon="2.22397">
        <ele>103.4790039</ele>
        <time>2012-05-01T14:07:59Z</time>
      </trkpt>
      <trkpt lat="47.9338" lon="2.2238">
        <ele>105.8824463</ele>
        <time>2012-05-01T14:08:13Z</time>
      </trkpt>
      <trkpt lat="47.93377" lon="2.22348">
        <ele>105.4017334</ele>
        <time>2012-05-01T14:08:26Z</time>
      </trkpt>
      <trkpt lat="47.93373" lon="2.22321">
        <ele>103.9597168</ele>
        <time>2012-05-01T14:08:38Z</time>
      </trkpt>
      <trkpt lat="47.93373" lon="2.22315">
        <ele>102.998291</ele>
        <time>2012-05-01T14:08:41Z</time>
      </trkpt>
      <trkpt lat="47.93368" lon="2.22283">
        <ele>103.4790039</ele>
        <time>2012-05-01T14:08:56Z</time>
      </trkpt>
      <trkpt lat="47.93368" lon="2.22258">
        <ele>102.998291</ele>
        <time>2012-05-01T14:09:08Z</time>
      </trkpt>
      <trkpt lat="47.93361" lon="2.22234">
        <ele>102.0371094</ele>
        <time>2012-05-01T14:09:21Z</time>
      </trkpt>
      <trkpt lat="47.9336" lon="2.2222">
        <ele>102.998291</ele>
        <time>2012-05-01T14:09:28Z</time>
      </trkpt>
      <trkpt lat="47.93356" lon="2.22199">
        <ele>101.0756836</ele>
        <time>2012-05-01T14:09:40Z</time>
      </trkpt>
      <trkpt lat="47.93354" lon="2.22183">
        <ele>100.5950928</ele>
        <time>2012-05-01T14:09:48Z</time>
      </trkpt>
      <trkpt lat="47.93352" lon="2.22156">
        <ele>102.0371094</ele>
        <time>2012-05-01T14:10:01Z</time>
      </trkpt>
      <trkpt lat="47.93351" lon="2.22148">
        <ele>102.0371094</ele>
        <time>2012-05-01T14:10:05Z</time>
      </trkpt>
      <trkpt lat="47.9335" lon="2.22142">
        <ele>102.5177002</ele>
        <time>2012-05-01T14:10:08Z</time>
      </trkpt>
      <trkpt lat="47.93349" lon="2.22128">
        <ele>102.998291</ele>
        <time>2012-05-01T14:10:15Z</time>
      </trkpt>
      <trkpt lat="47.93349" lon="2.22119">
        <ele>103.4790039</ele>
        <time>2012-05-01T14:10:31Z</time>
      </trkpt>
      <trkpt lat="47.93348" lon="2.22114">
        <ele>103.4790039</ele>
        <time>2012-05-01T14:10:35Z</time>
      </trkpt>
      <trkpt lat="47.93344" lon="2.22098">
        <ele>101.5563965</ele>
        <time>2012-05-01T14:10:44Z</time>
      </trkpt>
      <trkpt lat="47.9334" lon="2.22079">
        <ele>99.6337891</ele>
        <time>2012-05-01T14:10:54Z</time>
      </trkpt>
      <trkpt lat="47.93338" lon="2.22063">
        <ele>97.7111816</ele>
        <time>2012-05-01T14:11:04Z</time>
      </trkpt>
      <trkpt lat="47.93336" lon="2.22049">
        <ele>95.3077393</ele>
        <time>2012-05-01T14:11:12Z</time>
      </trkpt>
      <trkpt lat="47.93334" lon="2.22042">
        <ele>93.8658447</ele>
        <time>2012-05-01T14:11:25Z</time>
      </trkpt>
      <trkpt lat="47.93334" lon="2.2204">
        <ele>94.3465576</ele>
        <time>2012-05-01T14:11:29Z</time>
      </trkpt>
      <trkpt lat="47.93333" lon="2.22029">
        <ele>94.3465576</ele>
        <time>2012-05-01T14:11:35Z</time>
      </trkpt>
      <trkpt lat="47.93329" lon="2.22001">
        <ele>93.3851318</ele>
        <time>2012-05-01T14:11:50Z</time>
      </trkpt>
      <trkpt lat="47.93329" lon="2.21998">
        <ele>92.904541</ele>
        <time>2012-05-01T14:11:52Z</time>
      </trkpt>
      <trkpt lat="47.93327" lon="2.21992">
        <ele>92.4239502</ele>
        <time>2012-05-01T14:11:56Z</time>
      </trkpt>
      <trkpt lat="47.93325" lon="2.21967">
        <ele>91.4625244</ele>
        <time>2012-05-01T14:12:10Z</time>
      </trkpt>
      <trkpt lat="47.93323" lon="2.21938">
        <ele>92.4239502</ele>
        <time>2012-05-01T14:12:23Z</time>
      </trkpt>
      <trkpt lat="47.93321" lon="2.21929">
        <ele>92.904541</ele>
        <time>2012-05-01T14:12:28Z</time>
      </trkpt>
      <trkpt lat="47.93319" lon="2.21912">
        <ele>93.8658447</ele>
        <time>2012-05-01T14:12:37Z</time>
      </trkpt>
      <trkpt lat="47.93314" lon="2.21888">
        <ele>93.8658447</ele>
        <time>2012-05-01T14:12:49Z</time>
      </trkpt>
      <trkpt lat="47.93315" lon="2.21877">
        <ele>93.8658447</ele>
        <time>2012-05-01T14:12:54Z</time>
      </trkpt>
      <trkpt lat="47.93311" lon="2.21864">
        <ele>92.904541</ele>
        <time>2012-05-01T14:13:01Z</time>
      </trkpt>
      <trkpt lat="47.9331" lon="2.2185">
        <ele>91.4625244</ele>
        <time>2012-05-01T14:13:09Z</time>
      </trkpt>
      <trkpt lat="47.93306" lon="2.21823">
        <ele>93.8658447</ele>
        <time>2012-05-01T14:13:22Z</time>
      </trkpt>
      <trkpt lat="47.93304" lon="2.21794">
        <ele>93.3851318</ele>
        <time>2012-05-01T14:13:37Z</time>
      </trkpt>
      <trkpt lat="47.93303" lon="2.2179">
        <ele>93.3851318</ele>
        <time>2012-05-01T14:13:40Z</time>
      </trkpt>
      <trkpt lat="47.93299" lon="2.21776">
        <ele>92.904541</ele>
        <time>2012-05-01T14:13:52Z</time>
      </trkpt>
      <trkpt lat="47.93298" lon="2.21761">
        <ele>94.8271484</ele>
        <time>2012-05-01T14:14:19Z</time>
      </trkpt>
      <trkpt lat="47.93297" lon="2.21733">
        <ele>98.6724854</ele>
        <time>2012-05-01T14:14:32Z</time>
      </trkpt>
      <trkpt lat="47.93297" lon="2.21712">
        <ele>101.5563965</ele>
        <time>2012-05-01T14:14:43Z</time>
      </trkpt>
      <trkpt lat="47.93297" lon="2.21694">
        <ele>102.5177002</ele>
        <time>2012-05-01T14:14:52Z</time>
      </trkpt>
      <trkpt lat="47.93292" lon="2.21666">
        <ele>101.5563965</ele>
        <time>2012-05-01T14:15:07Z</time>
      </trkpt>
      <trkpt lat="47.9329" lon="2.21658">
        <ele>101.0756836</ele>
        <time>2012-05-01T14:15:12Z</time>
      </trkpt>
      <trkpt lat="47.93286" lon="2.21625">
        <ele>100.5950928</ele>
        <time>2012-05-01T14:15:29Z</time>
      </trkpt>
      <trkpt lat="47.93283" lon="2.21603">
        <ele>100.5950928</ele>
        <time>2012-05-01T14:15:40Z</time>
      </trkpt>
      <trkpt lat="47.93283" lon="2.21603">
        <ele>100.5950928</ele>
        <time>2012-05-01T14:16:03Z</time>
      </trkpt>
      <trkpt lat="47.93283" lon="2.21591">
        <ele>102.998291</ele>
        <time>2012-05-01T14:16:19Z</time>
      </trkpt>
      <trkpt lat="47.93283" lon="2.21589">
        <ele>102.998291</ele>
        <time>2012-05-01T14:16:28Z</time>
      </trkpt>
      <trkpt lat="47.93282" lon="2.21567">
        <ele>103.9597168</ele>
        <time>2012-05-01T14:16:37Z</time>
      </trkpt>
      <trkpt lat="47.93282" lon="2.21557">
        <ele>104.4404297</ele>
        <time>2012-05-01T14:16:42Z</time>
      </trkpt>
      <trkpt lat="47.9328" lon="2.21541">
        <ele>104.9210205</ele>
        <time>2012-05-01T14:16:52Z</time>
      </trkpt>
      <trkpt lat="47.93277" lon="2.21511">
        <ele>104.4404297</ele>
        <time>2012-05-01T14:17:04Z</time>
      </trkpt>
      <trkpt lat="47.9327" lon="2.21487">
        <ele>102.5177002</ele>
        <time>2012-05-01T14:17:16Z</time>
      </trkpt>
      <trkpt lat="47.93266" lon="2.21457">
        <ele>99.6337891</ele>
        <time>2012-05-01T14:17:30Z</time>
      </trkpt>
      <trkpt lat="47.93266" lon="2.21454">
        <ele>99.1530762</ele>
        <time>2012-05-01T14:17:32Z</time>
      </trkpt>
      <trkpt lat="47.93263" lon="2.21447">
        <ele>98.1918945</ele>
        <time>2012-05-01T14:17:42Z</time>
      </trkpt>
      <trkpt lat="47.93263" lon="2.21442">
        <ele>97.7111816</ele>
        <time>2012-05-01T14:17:46Z</time>
      </trkpt>
      <trkpt lat="47.93261" lon="2.2143">
        <ele>99.1530762</ele>
        <time>2012-05-01T14:18:02Z</time>
      </trkpt>
      <trkpt lat="47.93258" lon="2.2141">
        <ele>97.7111816</ele>
        <time>2012-05-01T14:18:12Z</time>
      </trkpt>
      <trkpt lat="47.93254" lon="2.21396">
        <ele>96.2692871</ele>
        <time>2012-05-01T14:18:20Z</time>
      </trkpt>
      <trkpt lat="47.93253" lon="2.21391">
        <ele>95.7884521</ele>
        <time>2012-05-01T14:18:23Z</time>
      </trkpt>
      <trkpt lat="47.93251" lon="2.2138">
        <ele>95.7884521</ele>
        <time>2012-05-01T14:18:28Z</time>
      </trkpt>
      <trkpt lat="47.93251" lon="2.21372">
        <ele>96.2692871</ele>
        <time>2012-05-01T14:18:33Z</time>
      </trkpt>
      <trkpt lat="47.93248" lon="2.21363">
        <ele>97.2304688</ele>
        <time>2012-05-01T14:18:37Z</time>
      </trkpt>
      <trkpt lat="47.93242" lon="2.21331">
        <ele>100.5950928</ele>
        <time>2012-05-01T14:18:53Z</time>
      </trkpt>
      <trkpt lat="47.93237" lon="2.21303">
        <ele>101.0756836</ele>
        <time>2012-05-01T14:19:06Z</time>
      </trkpt>
      <trkpt lat="47.93237" lon="2.213">
        <ele>101.0756836</ele>
        <time>2012-05-01T14:19:08Z</time>
      </trkpt>
      <trkpt lat="47.93233" lon="2.21282">
        <ele>102.5177002</ele>
        <time>2012-05-01T14:19:18Z</time>
      </trkpt>
      <trkpt lat="47.9323" lon="2.21267">
        <ele>102.5177002</ele>
        <time>2012-05-01T14:19:25Z</time>
      </trkpt>
      <trkpt lat="47.93225" lon="2.21249">
        <ele>102.998291</ele>
        <time>2012-05-01T14:19:35Z</time>
      </trkpt>
      <trkpt lat="47.93225" lon="2.21246">
        <ele>102.998291</ele>
        <time>2012-05-01T14:19:37Z</time>
      </trkpt>
      <trkpt lat="47.93223" lon="2.21235">
        <ele>102.998291</ele>
        <time>2012-05-01T14:19:49Z</time>
      </trkpt>
      <trkpt lat="47.93219" lon="2.21219">
        <ele>102.998291</ele>
        <time>2012-05-01T14:20:17Z</time>
      </trkpt>
      <trkpt lat="47.93217" lon="2.21211">
        <ele>102.0371094</ele>
        <time>2012-05-01T14:20:24Z</time>
      </trkpt>
      <trkpt lat="47.93209" lon="2.21192">
        <ele>104.9210205</ele>
        <time>2012-05-01T14:20:37Z</time>
      </trkpt>
      <trkpt lat="47.93204" lon="2.21176">
        <ele>106.3630371</ele>
        <time>2012-05-01T14:21:09Z</time>
      </trkpt>
      <trkpt lat="47.93201" lon="2.21168">
        <ele>106.3630371</ele>
        <time>2012-05-01T14:21:13Z</time>
      </trkpt>
      <trkpt lat="47.93193" lon="2.21145">
        <ele>106.8436279</ele>
        <time>2012-05-01T14:21:26Z</time>
      </trkpt>
      <trkpt lat="47.93192" lon="2.21143">
        <ele>106.8436279</ele>
        <time>2012-05-01T14:21:42Z</time>
      </trkpt>
      <trkpt lat="47.93183" lon="2.21122">
        <ele>107.3243408</ele>
        <time>2012-05-01T14:22:05Z</time>
      </trkpt>
      <trkpt lat="47.93174" lon="2.21103">
        <ele>105.8824463</ele>
        <time>2012-05-01T14:22:18Z</time>
      </trkpt>
      <trkpt lat="47.93164" lon="2.21085">
        <ele>104.9210205</ele>
        <time>2012-05-01T14:22:31Z</time>
      </trkpt>
      <trkpt lat="47.93161" lon="2.21075">
        <ele>103.4790039</ele>
        <time>2012-05-01T14:22:37Z</time>
      </trkpt>
      <trkpt lat="47.93154" lon="2.21058">
        <ele>103.9597168</ele>
        <time>2012-05-01T14:22:47Z</time>
      </trkpt>
      <trkpt lat="47.93149" lon="2.21049">
        <ele>103.9597168</ele>
        <time>2012-05-01T14:22:52Z</time>
      </trkpt>
      <trkpt lat="47.9314" lon="2.21026">
        <ele>104.4404297</ele>
        <time>2012-05-01T14:23:04Z</time>
      </trkpt>
      <trkpt lat="47.93133" lon="2.21013">
        <ele>104.4404297</ele>
        <time>2012-05-01T14:23:12Z</time>
      </trkpt>
      <trkpt lat="47.93128" lon="2.20989">
        <ele>105.4017334</ele>
        <time>2012-05-01T14:23:25Z</time>
      </trkpt>
      <trkpt lat="47.93121" lon="2.20965">
        <ele>106.3630371</ele>
        <time>2012-05-01T14:23:38Z</time>
      </trkpt>
      <trkpt lat="47.93119" lon="2.2096">
        <ele>106.3630371</ele>
        <time>2012-05-01T14:23:40Z</time>
      </trkpt>
      <trkpt lat="47.93119" lon="2.20955">
        <ele>106.3630371</ele>
        <time>2012-05-01T14:23:43Z</time>
      </trkpt>
      <trkpt lat="47.93112" lon="2.20928">
        <ele>107.3243408</ele>
        <time>2012-05-01T14:23:57Z</time>
      </trkpt>
      <trkpt lat="47.93109" lon="2.20916">
        <ele>107.8050537</ele>
        <time>2012-05-01T14:24:04Z</time>
      </trkpt>
      <trkpt lat="47.93105" lon="2.20909">
        <ele>108.2856445</ele>
        <time>2012-05-01T14:24:08Z</time>
      </trkpt>
      <trkpt lat="47.93104" lon="2.20903">
        <ele>107.8050537</ele>
        <time>2012-05-01T14:24:11Z</time>
      </trkpt>
      <trkpt lat="47.93103" lon="2.20897">
        <ele>108.2856445</ele>
        <time>2012-05-01T14:24:32Z</time>
      </trkpt>
      <trkpt lat="47.93097" lon="2.20874">
        <ele>108.7662354</ele>
        <time>2012-05-01T14:24:46Z</time>
      </trkpt>
      <trkpt lat="47.93092" lon="2.20859">
        <ele>106.8436279</ele>
        <time>2012-05-01T14:24:55Z</time>
      </trkpt>
      <trkpt lat="47.93086" lon="2.20827">
        <ele>105.4017334</ele>
        <time>2012-05-01T14:25:14Z</time>
      </trkpt>
      <trkpt lat="47.93082" lon="2.20798">
        <ele>105.4017334</ele>
        <time>2012-05-01T14:25:28Z</time>
      </trkpt>
      <trkpt lat="47.93081" lon="2.20793">
        <ele>104.9210205</ele>
        <time>2012-05-01T14:25:31Z</time>
      </trkpt>
      <trkpt lat="47.93078" lon="2.20785">
        <ele>104.9210205</ele>
        <time>2012-05-01T14:25:37Z</time>
      </trkpt>
      <trkpt lat="47.93075" lon="2.20771">
        <ele>103.4790039</ele>
        <time>2012-05-01T14:25:51Z</time>
      </trkpt>
      <trkpt lat="47.93075" lon="2.20769">
        <ele>103.4790039</ele>
        <time>2012-05-01T14:25:52Z</time>
      </trkpt>
      <trkpt lat="47.93074" lon="2.20759">
        <ele>102.998291</ele>
        <time>2012-05-01T14:25:57Z</time>
      </trkpt>
      <trkpt lat="47.93072" lon="2.20744">
        <ele>102.5177002</ele>
        <time>2012-05-01T14:26:05Z</time>
      </trkpt>
      <trkpt lat="47.9307" lon="2.20739">
        <ele>102.0371094</ele>
        <time>2012-05-01T14:26:08Z</time>
      </trkpt>
      <trkpt lat="47.93066" lon="2.20713">
        <ele>101.5563965</ele>
        <time>2012-05-01T14:26:22Z</time>
      </trkpt>
      <trkpt lat="47.93064" lon="2.20708">
        <ele>102.0371094</ele>
        <time>2012-05-01T14:26:25Z</time>
      </trkpt>
      <trkpt lat="47.93061" lon="2.207">
        <ele>102.998291</ele>
        <time>2012-05-01T14:26:29Z</time>
      </trkpt>
      <trkpt lat="47.9306" lon="2.20689">
        <ele>103.4790039</ele>
        <time>2012-05-01T14:26:35Z</time>
      </trkpt>
      <trkpt lat="47.93059" lon="2.20684">
        <ele>102.998291</ele>
        <time>2012-05-01T14:26:38Z</time>
      </trkpt>
      <trkpt lat="47.93055" lon="2.20674">
        <ele>102.0371094</ele>
        <time>2012-05-01T14:26:44Z</time>
      </trkpt>
      <trkpt lat="47.93056" lon="2.20666">
        <ele>101.5563965</ele>
        <time>2012-05-01T14:26:48Z</time>
      </trkpt>
      <trkpt lat="47.93055" lon="2.20657">
        <ele>100.114502</ele>
        <time>2012-05-01T14:26:53Z</time>
      </trkpt>
      <trkpt lat="47.93053" lon="2.20652">
        <ele>100.114502</ele>
        <time>2012-05-01T14:26:56Z</time>
      </trkpt>
      <trkpt lat="47.93049" lon="2.20635">
        <ele>100.114502</ele>
        <time>2012-05-01T14:27:05Z</time>
      </trkpt>
      <trkpt lat="47.9305" lon="2.20627">
        <ele>100.114502</ele>
        <time>2012-05-01T14:27:09Z</time>
      </trkpt>
      <trkpt lat="47.93048" lon="2.20617">
        <ele>100.5950928</ele>
        <time>2012-05-01T14:27:13Z</time>
      </trkpt>
      <trkpt lat="47.93044" lon="2.20605">
        <ele>101.5563965</ele>
        <time>2012-05-01T14:27:19Z</time>
      </trkpt>
      <trkpt lat="47.93043" lon="2.20594">
        <ele>102.0371094</ele>
        <time>2012-05-01T14:27:24Z</time>
      </trkpt>
      <trkpt lat="47.93043" lon="2.20562">
        <ele>105.8824463</ele>
        <time>2012-05-01T14:27:39Z</time>
      </trkpt>
      <trkpt lat="47.93043" lon="2.2056">
        <ele>105.8824463</ele>
        <time>2012-05-01T14:27:40Z</time>
      </trkpt>
      <trkpt lat="47.93042" lon="2.20551">
        <ele>105.4017334</ele>
        <time>2012-05-01T14:27:45Z</time>
      </trkpt>
      <trkpt lat="47.9304" lon="2.20528">
        <ele>102.998291</ele>
        <time>2012-05-01T14:27:57Z</time>
      </trkpt>
      <trkpt lat="47.9304" lon="2.20508">
        <ele>99.6337891</ele>
        <time>2012-05-01T14:28:08Z</time>
      </trkpt>
      <trkpt lat="47.9304" lon="2.20506">
        <ele>99.1530762</ele>
        <time>2012-05-01T14:28:09Z</time>
      </trkpt>
      <trkpt lat="47.9304" lon="2.20477">
        <ele>99.1530762</ele>
        <time>2012-05-01T14:28:23Z</time>
      </trkpt>
      <trkpt lat="47.93041" lon="2.20472">
        <ele>99.1530762</ele>
        <time>2012-05-01T14:28:26Z</time>
      </trkpt>
      <trkpt lat="47.93041" lon="2.20449">
        <ele>98.1918945</ele>
        <time>2012-05-01T14:28:37Z</time>
      </trkpt>
      <trkpt lat="47.93043" lon="2.20434">
        <ele>97.7111816</ele>
        <time>2012-05-01T14:28:45Z</time>
      </trkpt>
      <trkpt lat="47.93044" lon="2.20422">
        <ele>97.2304688</ele>
        <time>2012-05-01T14:28:51Z</time>
      </trkpt>
      <trkpt lat="47.93042" lon="2.20416">
        <ele>96.7498779</ele>
        <time>2012-05-01T14:28:54Z</time>
      </trkpt>
      <trkpt lat="47.93042" lon="2.20405">
        <ele>94.3465576</ele>
        <time>2012-05-01T14:29:00Z</time>
      </trkpt>
      <trkpt lat="47.93042" lon="2.20398">
        <ele>91.9432373</ele>
        <time>2012-05-01T14:29:04Z</time>
      </trkpt>
      <trkpt lat="47.93043" lon="2.20377">
        <ele>90.5013428</ele>
        <time>2012-05-01T14:29:15Z</time>
      </trkpt>
      <trkpt lat="47.93043" lon="2.20368">
        <ele>89.539917</ele>
        <time>2012-05-01T14:29:19Z</time>
      </trkpt>
      <trkpt lat="47.93047" lon="2.20356">
        <ele>88.5787354</ele>
        <time>2012-05-01T14:29:26Z</time>
      </trkpt>
      <trkpt lat="47.93048" lon="2.20346">
        <ele>87.1365967</ele>
        <time>2012-05-01T14:29:31Z</time>
      </trkpt>
      <trkpt lat="47.93047" lon="2.20323">
        <ele>80.8881836</ele>
        <time>2012-05-01T14:29:44Z</time>
      </trkpt>
      <trkpt lat="47.93046" lon="2.20299">
        <ele>76.0814209</ele>
        <time>2012-05-01T14:29:57Z</time>
      </trkpt>
      <trkpt lat="47.93048" lon="2.20288">
        <ele>75.1202393</ele>
        <time>2012-05-01T14:30:03Z</time>
      </trkpt>
      <trkpt lat="47.93049" lon="2.20281">
        <ele>74.6395264</ele>
        <time>2012-05-01T14:30:07Z</time>
      </trkpt>
      <trkpt lat="47.93054" lon="2.20263">
        <ele>76.5621338</ele>
        <time>2012-05-01T14:30:24Z</time>
      </trkpt>
      <trkpt lat="47.93057" lon="2.20254">
        <ele>78.4847412</ele>
        <time>2012-05-01T14:31:01Z</time>
      </trkpt>
      <trkpt lat="47.93059" lon="2.20246">
        <ele>78.4847412</ele>
        <time>2012-05-01T14:31:05Z</time>
      </trkpt>
      <trkpt lat="47.93065" lon="2.20223">
        <ele>80.8881836</ele>
        <time>2012-05-01T14:31:18Z</time>
      </trkpt>
      <trkpt lat="47.9307" lon="2.20205">
        <ele>80.8881836</ele>
        <time>2012-05-01T14:31:29Z</time>
      </trkpt>
      <trkpt lat="47.93071" lon="2.20199">
        <ele>81.3687744</ele>
        <time>2012-05-01T14:31:32Z</time>
      </trkpt>
      <trkpt lat="47.93078" lon="2.20168">
        <ele>84.7333984</ele>
        <time>2012-05-01T14:31:47Z</time>
      </trkpt>
      <trkpt lat="47.93081" lon="2.20155">
        <ele>85.2139893</ele>
        <time>2012-05-01T14:31:54Z</time>
      </trkpt>
      <trkpt lat="47.93086" lon="2.20136">
        <ele>86.6560059</ele>
        <time>2012-05-01T14:32:06Z</time>
      </trkpt>
      <trkpt lat="47.93087" lon="2.20135">
        <ele>86.6560059</ele>
        <time>2012-05-01T14:32:23Z</time>
      </trkpt>
      <trkpt lat="47.93093" lon="2.20102">
        <ele>91.4625244</ele>
        <time>2012-05-01T14:32:35Z</time>
      </trkpt>
      <trkpt lat="47.9309" lon="2.20087">
        <ele>94.8271484</ele>
        <time>2012-05-01T14:32:41Z</time>
      </trkpt>
      <trkpt lat="47.9309" lon="2.20072">
        <ele>93.8658447</ele>
        <time>2012-05-01T14:32:53Z</time>
      </trkpt>
      <trkpt lat="47.93089" lon="2.20045">
        <ele>92.4239502</ele>
        <time>2012-05-01T14:33:15Z</time>
      </trkpt>
      <trkpt lat="47.93089" lon="2.20043">
        <ele>93.3851318</ele>
        <time>2012-05-01T14:33:45Z</time>
      </trkpt>
      <trkpt lat="47.93089" lon="2.2003">
        <ele>97.7111816</ele>
        <time>2012-05-01T14:34:06Z</time>
      </trkpt>
      <trkpt lat="47.93089" lon="2.20026">
        <ele>100.114502</ele>
        <time>2012-05-01T14:34:25Z</time>
      </trkpt>
      <trkpt lat="47.93088" lon="2.20022">
        <ele>101.0756836</ele>
        <time>2012-05-01T14:34:50Z</time>
      </trkpt>
      <trkpt lat="47.93086" lon="2.20012">
        <ele>101.5563965</ele>
        <time>2012-05-01T14:35:02Z</time>
      </trkpt>
      <trkpt lat="47.93086" lon="2.20012">
        <ele>101.5563965</ele>
        <time>2012-05-01T14:35:06Z</time>
      </trkpt>
      <trkpt lat="47.93085" lon="2.19999">
        <ele>102.0371094</ele>
        <time>2012-05-01T14:35:13Z</time>
      </trkpt>
      <trkpt lat="47.93082" lon="2.19985">
        <ele>99.6337891</ele>
        <time>2012-05-01T14:35:23Z</time>
      </trkpt>
      <trkpt lat="47.93082" lon="2.19984">
        <ele>99.6337891</ele>
        <time>2012-05-01T14:35:32Z</time>
      </trkpt>
      <trkpt lat="47.93074" lon="2.19959">
        <ele>98.1918945</ele>
        <time>2012-05-01T14:35:50Z</time>
      </trkpt>
      <trkpt lat="47.9307" lon="2.19942">
        <ele>99.6337891</ele>
        <time>2012-05-01T14:36:06Z</time>
      </trkpt>
      <trkpt lat="47.93068" lon="2.19936">
        <ele>99.6337891</ele>
        <time>2012-05-01T14:36:17Z</time>
      </trkpt>
      <trkpt lat="47.93061" lon="2.19912">
        <ele>101.5563965</ele>
        <time>2012-05-01T14:36:36Z</time>
      </trkpt>
      <trkpt lat="47.93058" lon="2.19904">
        <ele>102.0371094</ele>
        <time>2012-05-01T14:36:41Z</time>
      </trkpt>
      <trkpt lat="47.93055" lon="2.19887">
        <ele>103.9597168</ele>
        <time>2012-05-01T14:36:56Z</time>
      </trkpt>
      <trkpt lat="47.93056" lon="2.19874">
        <ele>104.9210205</ele>
        <time>2012-05-01T14:37:02Z</time>
      </trkpt>
      <trkpt lat="47.93054" lon="2.19868">
        <ele>105.4017334</ele>
        <time>2012-05-01T14:37:06Z</time>
      </trkpt>
      <trkpt lat="47.93052" lon="2.19855">
        <ele>105.4017334</ele>
        <time>2012-05-01T14:37:12Z</time>
      </trkpt>
      <trkpt lat="47.93052" lon="2.19842">
        <ele>104.9210205</ele>
        <time>2012-05-01T14:37:26Z</time>
      </trkpt>
      <trkpt lat="47.93049" lon="2.19824">
        <ele>105.4017334</ele>
        <time>2012-05-01T14:37:47Z</time>
      </trkpt>
      <trkpt lat="47.93048" lon="2.19806">
        <ele>106.3630371</ele>
        <time>2012-05-01T14:38:00Z</time>
      </trkpt>
      <trkpt lat="47.93046" lon="2.19782">
        <ele>106.8436279</ele>
        <time>2012-05-01T14:38:13Z</time>
      </trkpt>
      <trkpt lat="47.9305" lon="2.19756">
        <ele>105.4017334</ele>
        <time>2012-05-01T14:38:28Z</time>
      </trkpt>
      <trkpt lat="47.93053" lon="2.19753">
        <ele>105.8824463</ele>
        <time>2012-05-01T14:38:43Z</time>
      </trkpt>
      <trkpt lat="47.93053" lon="2.19751">
        <ele>106.3630371</ele>
        <time>2012-05-01T14:38:57Z</time>
      </trkpt>
      <trkpt lat="47.93052" lon="2.19746">
        <ele>105.8824463</ele>
        <time>2012-05-01T14:39:00Z</time>
      </trkpt>
      <trkpt lat="47.93048" lon="2.19738">
        <ele>105.8824463</ele>
        <time>2012-05-01T14:39:06Z</time>
      </trkpt>
      <trkpt lat="47.93045" lon="2.19725">
        <ele>106.3630371</ele>
        <time>2012-05-01T14:39:20Z</time>
      </trkpt>
      <trkpt lat="47.93044" lon="2.19723">
        <ele>106.8436279</ele>
        <time>2012-05-01T14:39:26Z</time>
      </trkpt>
      <trkpt lat="47.93032" lon="2.19719">
        <ele>105.4017334</ele>
        <time>2012-05-01T14:39:39Z</time>
      </trkpt>
      <trkpt lat="47.93026" lon="2.19721">
        <ele>103.9597168</ele>
        <time>2012-05-01T14:39:54Z</time>
      </trkpt>
      <trkpt lat="47.93004" lon="2.19716">
        <ele>101.5563965</ele>
        <time>2012-05-01T14:40:10Z</time>
      </trkpt>
      <trkpt lat="47.92983" lon="2.19708">
        <ele>98.6724854</ele>
        <time>2012-05-01T14:40:24Z</time>
      </trkpt>
      <trkpt lat="47.9298" lon="2.19701">
        <ele>96.7498779</ele>
        <time>2012-05-01T14:40:31Z</time>
      </trkpt>
      <trkpt lat="47.92977" lon="2.19689">
        <ele>98.1918945</ele>
        <time>2012-05-01T14:40:37Z</time>
      </trkpt>
      <trkpt lat="47.92983" lon="2.19659">
        <ele>101.0756836</ele>
        <time>2012-05-01T14:40:53Z</time>
      </trkpt>
      <trkpt lat="47.92986" lon="2.19627">
        <ele>103.9597168</ele>
        <time>2012-05-01T14:41:08Z</time>
      </trkpt>
      <trkpt lat="47.92987" lon="2.19612">
        <ele>103.9597168</ele>
        <time>2012-05-01T14:41:23Z</time>
      </trkpt>
      <trkpt lat="47.92982" lon="2.19593">
        <ele>103.4790039</ele>
        <time>2012-05-01T14:41:35Z</time>
      </trkpt>
      <trkpt lat="47.92975" lon="2.19583">
        <ele>104.4404297</ele>
        <time>2012-05-01T14:42:13Z</time>
      </trkpt>
      <trkpt lat="47.92971" lon="2.19577">
        <ele>104.9210205</ele>
        <time>2012-05-01T14:42:18Z</time>
      </trkpt>
      <trkpt lat="47.92967" lon="2.1956">
        <ele>101.5563965</ele>
        <time>2012-05-01T14:42:29Z</time>
      </trkpt>
      <trkpt lat="47.92966" lon="2.19548">
        <ele>96.2692871</ele>
        <time>2012-05-01T14:42:40Z</time>
      </trkpt>
      <trkpt lat="47.9296" lon="2.19532">
        <ele>90.5013428</ele>
        <time>2012-05-01T14:42:50Z</time>
      </trkpt>
      <trkpt lat="47.92959" lon="2.19528">
        <ele>90.5013428</ele>
        <time>2012-05-01T14:42:52Z</time>
      </trkpt>
      <trkpt lat="47.92959" lon="2.19525">
        <ele>90.5013428</ele>
        <time>2012-05-01T14:42:54Z</time>
      </trkpt>
      <trkpt lat="47.92956" lon="2.19518">
        <ele>90.0206299</ele>
        <time>2012-05-01T14:42:58Z</time>
      </trkpt>
      <trkpt lat="47.92951" lon="2.195">
        <ele>88.0980225</ele>
        <time>2012-05-01T14:43:08Z</time>
      </trkpt>
      <trkpt lat="47.92949" lon="2.19496">
        <ele>87.6171875</ele>
        <time>2012-05-01T14:43:10Z</time>
      </trkpt>
      <trkpt lat="47.92945" lon="2.19484">
        <ele>86.6560059</ele>
        <time>2012-05-01T14:43:17Z</time>
      </trkpt>
      <trkpt lat="47.92934" lon="2.19457">
        <ele>88.0980225</ele>
        <time>2012-05-01T14:43:32Z</time>
      </trkpt>
      <trkpt lat="47.92928" lon="2.19437">
        <ele>89.539917</ele>
        <time>2012-05-01T14:43:42Z</time>
      </trkpt>
      <trkpt lat="47.92924" lon="2.19431">
        <ele>88.5787354</ele>
        <time>2012-05-01T14:43:46Z</time>
      </trkpt>
      <trkpt lat="47.92919" lon="2.19425">
        <ele>88.5787354</ele>
        <time>2012-05-01T14:43:50Z</time>
      </trkpt>
      <trkpt lat="47.92917" lon="2.19417">
        <ele>88.5787354</ele>
        <time>2012-05-01T14:43:54Z</time>
      </trkpt>
      <trkpt lat="47.92911" lon="2.19395">
        <ele>87.6171875</ele>
        <time>2012-05-01T14:44:06Z</time>
      </trkpt>
      <trkpt lat="47.92908" lon="2.19392">
        <ele>87.6171875</ele>
        <time>2012-05-01T14:44:09Z</time>
      </trkpt>
      <trkpt lat="47.92901" lon="2.19372">
        <ele>86.6560059</ele>
        <time>2012-05-01T14:44:21Z</time>
      </trkpt>
      <trkpt lat="47.92898" lon="2.19361">
        <ele>87.1365967</ele>
        <time>2012-05-01T14:44:26Z</time>
      </trkpt>
      <trkpt lat="47.92894" lon="2.19349">
        <ele>85.2139893</ele>
        <time>2012-05-01T14:44:42Z</time>
      </trkpt>
      <trkpt lat="47.92892" lon="2.19342">
        <ele>84.7333984</ele>
        <time>2012-05-01T14:44:57Z</time>
      </trkpt>
      <trkpt lat="47.92887" lon="2.1933">
        <ele>82.3300781</ele>
        <time>2012-05-01T14:45:05Z</time>
      </trkpt>
      <trkpt lat="47.92886" lon="2.19325">
        <ele>79.4460449</ele>
        <time>2012-05-01T14:45:15Z</time>
      </trkpt>
      <trkpt lat="47.92879" lon="2.19307">
        <ele>77.5234375</ele>
        <time>2012-05-01T14:45:28Z</time>
      </trkpt>
      <trkpt lat="47.92872" lon="2.1929">
        <ele>75.1202393</ele>
        <time>2012-05-01T14:45:40Z</time>
      </trkpt>
      <trkpt lat="47.92868" lon="2.19278">
        <ele>74.6395264</ele>
        <time>2012-05-01T14:45:46Z</time>
      </trkpt>
      <trkpt lat="47.92859" lon="2.19261">
        <ele>75.6008301</ele>
        <time>2012-05-01T14:45:55Z</time>
      </trkpt>
      <trkpt lat="47.92854" lon="2.19244">
        <ele>78.4847412</ele>
        <time>2012-05-01T14:46:02Z</time>
      </trkpt>
      <trkpt lat="47.92852" lon="2.19235">
        <ele>78.4847412</ele>
        <time>2012-05-01T14:46:07Z</time>
      </trkpt>
      <trkpt lat="47.92849" lon="2.1923">
        <ele>78.4847412</ele>
        <time>2012-05-01T14:46:10Z</time>
      </trkpt>
      <trkpt lat="47.92844" lon="2.1922">
        <ele>77.0428467</ele>
        <time>2012-05-01T14:46:16Z</time>
      </trkpt>
      <trkpt lat="47.92842" lon="2.19214">
        <ele>76.0814209</ele>
        <time>2012-05-01T14:46:20Z</time>
      </trkpt>
      <trkpt lat="47.92836" lon="2.19195">
        <ele>77.5234375</ele>
        <time>2012-05-01T14:46:32Z</time>
      </trkpt>
      <trkpt lat="47.92836" lon="2.19195">
        <ele>77.5234375</ele>
        <time>2012-05-01T14:46:38Z</time>
      </trkpt>
      <trkpt lat="47.92834" lon="2.1919">
        <ele>78.9654541</ele>
        <time>2012-05-01T14:46:41Z</time>
      </trkpt>
      <trkpt lat="47.92832" lon="2.19183">
        <ele>81.3687744</ele>
        <time>2012-05-01T14:46:44Z</time>
      </trkpt>
      <trkpt lat="47.92824" lon="2.19163">
        <ele>85.2139893</ele>
        <time>2012-05-01T14:46:57Z</time>
      </trkpt>
      <trkpt lat="47.92819" lon="2.19149">
        <ele>86.6560059</ele>
        <time>2012-05-01T14:47:43Z</time>
      </trkpt>
      <trkpt lat="47.92805" lon="2.19122">
        <ele>88.5787354</ele>
        <time>2012-05-01T14:47:54Z</time>
      </trkpt>
      <trkpt lat="47.928" lon="2.19107">
        <ele>86.6560059</ele>
        <time>2012-05-01T14:48:04Z</time>
      </trkpt>
      <trkpt lat="47.928" lon="2.19104">
        <ele>86.6560059</ele>
        <time>2012-05-01T14:48:06Z</time>
      </trkpt>
      <trkpt lat="47.92796" lon="2.19087">
        <ele>83.7719727</ele>
        <time>2012-05-01T14:48:16Z</time>
      </trkpt>
      <trkpt lat="47.92786" lon="2.19067">
        <ele>79.9266357</ele>
        <time>2012-05-01T14:48:28Z</time>
      </trkpt>
      <trkpt lat="47.92785" lon="2.19057">
        <ele>76.0814209</ele>
        <time>2012-05-01T14:48:36Z</time>
      </trkpt>
      <trkpt lat="47.92775" lon="2.19035">
        <ele>74.1588135</ele>
        <time>2012-05-01T14:48:50Z</time>
      </trkpt>
      <trkpt lat="47.9277" lon="2.19017">
        <ele>70.7941895</ele>
        <time>2012-05-01T14:49:00Z</time>
      </trkpt>
      <trkpt lat="47.92762" lon="2.18995">
        <ele>69.3522949</ele>
        <time>2012-05-01T14:49:10Z</time>
      </trkpt>
      <trkpt lat="47.9276" lon="2.18987">
        <ele>69.3522949</ele>
        <time>2012-05-01T14:49:13Z</time>
      </trkpt>
      <trkpt lat="47.92756" lon="2.18973">
        <ele>69.3522949</ele>
        <time>2012-05-01T14:49:21Z</time>
      </trkpt>
      <trkpt lat="47.92751" lon="2.18964">
        <ele>68.3908691</ele>
        <time>2012-05-01T14:49:26Z</time>
      </trkpt>
      <trkpt lat="47.92748" lon="2.18958">
        <ele>67.9102783</ele>
        <time>2012-05-01T14:49:29Z</time>
      </trkpt>
      <trkpt lat="47.92748" lon="2.18939">
        <ele>65.5070801</ele>
        <time>2012-05-01T14:49:40Z</time>
      </trkpt>
      <trkpt lat="47.92744" lon="2.18934">
        <ele>66.9489746</ele>
        <time>2012-05-01T14:49:44Z</time>
      </trkpt>
      <trkpt lat="47.92736" lon="2.18916">
        <ele>66.4682617</ele>
        <time>2012-05-01T14:49:56Z</time>
      </trkpt>
      <trkpt lat="47.92736" lon="2.18915">
        <ele>66.4682617</ele>
        <time>2012-05-01T14:49:57Z</time>
      </trkpt>
      <trkpt lat="47.92729" lon="2.18901">
        <ele>65.0263672</ele>
        <time>2012-05-01T14:50:06Z</time>
      </trkpt>
      <trkpt lat="47.92725" lon="2.18887">
        <ele>64.5456543</ele>
        <time>2012-05-01T14:50:14Z</time>
      </trkpt>
      <trkpt lat="47.92725" lon="2.18884">
        <ele>64.0650635</ele>
        <time>2012-05-01T14:50:16Z</time>
      </trkpt>
      <trkpt lat="47.92719" lon="2.18874">
        <ele>63.1036377</ele>
        <time>2012-05-01T14:50:24Z</time>
      </trkpt>
      <trkpt lat="47.92712" lon="2.18859">
        <ele>63.1036377</ele>
        <time>2012-05-01T14:50:34Z</time>
      </trkpt>
      <trkpt lat="47.92706" lon="2.18843">
        <ele>64.5456543</ele>
        <time>2012-05-01T14:50:43Z</time>
      </trkpt>
      <trkpt lat="47.927" lon="2.18836">
        <ele>66.9489746</ele>
        <time>2012-05-01T14:50:49Z</time>
      </trkpt>
      <trkpt lat="47.92695" lon="2.18814">
        <ele>70.7941895</ele>
        <time>2012-05-01T14:50:59Z</time>
      </trkpt>
      <trkpt lat="47.92687" lon="2.18801">
        <ele>71.2749023</ele>
        <time>2012-05-01T14:51:09Z</time>
      </trkpt>
      <trkpt lat="47.92683" lon="2.18791">
        <ele>71.7554932</ele>
        <time>2012-05-01T14:51:15Z</time>
      </trkpt>
      <trkpt lat="47.92683" lon="2.18781">
        <ele>72.7169189</ele>
        <time>2012-05-01T14:51:22Z</time>
      </trkpt>
      <trkpt lat="47.92676" lon="2.18762">
        <ele>75.1202393</ele>
        <time>2012-05-01T14:51:28Z</time>
      </trkpt>
      <trkpt lat="47.92672" lon="2.18749">
        <ele>76.5621338</ele>
        <time>2012-05-01T14:51:32Z</time>
      </trkpt>
      <trkpt lat="47.92658" lon="2.18724">
        <ele>80.4074707</ele>
        <time>2012-05-01T14:51:43Z</time>
      </trkpt>
      <trkpt lat="47.92655" lon="2.18712">
        <ele>78.9654541</ele>
        <time>2012-05-01T14:51:49Z</time>
      </trkpt>
      <trkpt lat="47.92645" lon="2.18689">
        <ele>74.1588135</ele>
        <time>2012-05-01T14:52:02Z</time>
      </trkpt>
      <trkpt lat="47.9264" lon="2.18672">
        <ele>74.1588135</ele>
        <time>2012-05-01T14:52:13Z</time>
      </trkpt>
      <trkpt lat="47.92639" lon="2.18665">
        <ele>74.6395264</ele>
        <time>2012-05-01T14:52:16Z</time>
      </trkpt>
      <trkpt lat="47.92638" lon="2.18661">
        <ele>75.1202393</ele>
        <time>2012-05-01T14:52:18Z</time>
      </trkpt>
      <trkpt lat="47.92638" lon="2.18657">
        <ele>76.5621338</ele>
        <time>2012-05-01T14:52:20Z</time>
      </trkpt>
      <trkpt lat="47.92631" lon="2.18644">
        <ele>78.9654541</ele>
        <time>2012-05-01T14:52:28Z</time>
      </trkpt>
      <trkpt lat="47.92627" lon="2.18631">
        <ele>86.175293</ele>
        <time>2012-05-01T14:52:40Z</time>
      </trkpt>
      <trkpt lat="47.92615" lon="2.18607">
        <ele>88.5787354</ele>
        <time>2012-05-01T14:53:18Z</time>
      </trkpt>
      <trkpt lat="47.92606" lon="2.18583">
        <ele>98.6724854</ele>
        <time>2012-05-01T14:53:37Z</time>
      </trkpt>
      <trkpt lat="47.92599" lon="2.18557">
        <ele>96.7498779</ele>
        <time>2012-05-01T14:53:59Z</time>
      </trkpt>
      <trkpt lat="47.92582" lon="2.18511">
        <ele>91.4625244</ele>
        <time>2012-05-01T14:54:25Z</time>
      </trkpt>
      <trkpt lat="47.92572" lon="2.18486">
        <ele>85.6945801</ele>
        <time>2012-05-01T14:54:45Z</time>
      </trkpt>
      <trkpt lat="47.92564" lon="2.18463">
        <ele>82.3300781</ele>
        <time>2012-05-01T14:54:58Z</time>
      </trkpt>
      <trkpt lat="47.92553" lon="2.18437">
        <ele>79.4460449</ele>
        <time>2012-05-01T14:55:13Z</time>
      </trkpt>
      <trkpt lat="47.92543" lon="2.1842">
        <ele>78.4847412</ele>
        <time>2012-05-01T14:55:25Z</time>
      </trkpt>
      <trkpt lat="47.92541" lon="2.18409">
        <ele>77.0428467</ele>
        <time>2012-05-01T14:55:33Z</time>
      </trkpt>
      <trkpt lat="47.92535" lon="2.18392">
        <ele>79.4460449</ele>
        <time>2012-05-01T14:55:51Z</time>
      </trkpt>
      <trkpt lat="47.92517" lon="2.1836">
        <ele>98.1918945</ele>
        <time>2012-05-01T14:56:15Z</time>
      </trkpt>
      <trkpt lat="47.92514" lon="2.1835">
        <ele>103.4790039</ele>
        <time>2012-05-01T14:56:30Z</time>
      </trkpt>
      <trkpt lat="47.92511" lon="2.18334">
        <ele>104.9210205</ele>
        <time>2012-05-01T14:56:43Z</time>
      </trkpt>
      <trkpt lat="47.92508" lon="2.18323">
        <ele>105.8824463</ele>
        <time>2012-05-01T14:57:02Z</time>
      </trkpt>
      <trkpt lat="47.92505" lon="2.18324">
        <ele>108.2856445</ele>
        <time>2012-05-01T14:57:17Z</time>
      </trkpt>
      <trkpt lat="47.92501" lon="2.18322">
        <ele>113.0922852</ele>
        <time>2012-05-01T14:57:30Z</time>
      </trkpt>
      <trkpt lat="47.92499" lon="2.1832">
        <ele>114.0535889</ele>
        <time>2012-05-01T14:57:33Z</time>
      </trkpt>
      <trkpt lat="47.92496" lon="2.18314">
        <ele>115.4956055</ele>
        <time>2012-05-01T14:57:50Z</time>
      </trkpt>
      <trkpt lat="47.925" lon="2.18309">
        <ele>115.9761963</ele>
        <time>2012-05-01T14:58:04Z</time>
      </trkpt>
      <trkpt lat="47.925" lon="2.18309">
        <ele>115.9761963</ele>
        <time>2012-05-01T14:58:28Z</time>
      </trkpt>
      <trkpt lat="47.925" lon="2.18312">
        <ele>115.9761963</ele>
        <time>2012-05-01T14:58:47Z</time>
      </trkpt>
      <trkpt lat="47.92502" lon="2.18313">
        <ele>116.9375</ele>
        <time>2012-05-01T14:59:06Z</time>
      </trkpt>
      <trkpt lat="47.92504" lon="2.18303">
        <ele>117.8988037</ele>
        <time>2012-05-01T14:59:24Z</time>
      </trkpt>
      <trkpt lat="47.92504" lon="2.18303">
        <ele>117.8988037</ele>
        <time>2012-05-01T14:59:33Z</time>
      </trkpt>
      <trkpt lat="47.92511" lon="2.18302">
        <ele>116.4567871</ele>
        <time>2012-05-01T14:59:46Z</time>
      </trkpt>
      <trkpt lat="47.92511" lon="2.18299">
        <ele>116.4567871</ele>
        <time>2012-05-01T15:00:05Z</time>
      </trkpt>
      <trkpt lat="47.9251" lon="2.18297">
        <ele>115.9761963</ele>
        <time>2012-05-01T15:00:09Z</time>
      </trkpt>
      <trkpt lat="47.92502" lon="2.18279">
        <ele>114.0535889</ele>
        <time>2012-05-01T15:00:23Z</time>
      </trkpt>
      <trkpt lat="47.92503" lon="2.18267">
        <ele>112.6115723</ele>
        <time>2012-05-01T15:00:48Z</time>
      </trkpt>
      <trkpt lat="47.92503" lon="2.18246">
        <ele>110.6888428</ele>
        <time>2012-05-01T15:01:17Z</time>
      </trkpt>
      <trkpt lat="47.92502" lon="2.18238">
        <ele>110.208252</ele>
        <time>2012-05-01T15:01:23Z</time>
      </trkpt>
      <trkpt lat="47.92504" lon="2.18232">
        <ele>110.208252</ele>
        <time>2012-05-01T15:01:26Z</time>
      </trkpt>
      <trkpt lat="47.92504" lon="2.18228">
        <ele>109.7276611</ele>
        <time>2012-05-01T15:01:29Z</time>
      </trkpt>
      <trkpt lat="47.92505" lon="2.18213">
        <ele>109.7276611</ele>
        <time>2012-05-01T15:01:35Z</time>
      </trkpt>
      <trkpt lat="47.92504" lon="2.18203">
        <ele>109.2469482</ele>
        <time>2012-05-01T15:01:38Z</time>
      </trkpt>
      <trkpt lat="47.92501" lon="2.18172">
        <ele>107.8050537</ele>
        <time>2012-05-01T15:01:49Z</time>
      </trkpt>
      <trkpt lat="47.92499" lon="2.18152">
        <ele>106.8436279</ele>
        <time>2012-05-01T15:01:56Z</time>
      </trkpt>
      <trkpt lat="47.92499" lon="2.18139">
        <ele>105.8824463</ele>
        <time>2012-05-01T15:02:01Z</time>
      </trkpt>
      <trkpt lat="47.925" lon="2.18129">
        <ele>108.7662354</ele>
        <time>2012-05-01T15:02:10Z</time>
      </trkpt>
      <trkpt lat="47.925" lon="2.18119">
        <ele>109.2469482</ele>
        <time>2012-05-01T15:02:28Z</time>
      </trkpt>
      <trkpt lat="47.92499" lon="2.181">
        <ele>111.6502686</ele>
        <time>2012-05-01T15:02:49Z</time>
      </trkpt>
      <trkpt lat="47.92499" lon="2.181">
        <ele>111.6502686</ele>
        <time>2012-05-01T15:02:57Z</time>
      </trkpt>
      <trkpt lat="47.92499" lon="2.18093">
        <ele>112.6115723</ele>
        <time>2012-05-01T15:03:12Z</time>
      </trkpt>
      <trkpt lat="47.92498" lon="2.18082">
        <ele>114.5341797</ele>
        <time>2012-05-01T15:03:30Z</time>
      </trkpt>
      <trkpt lat="47.925" lon="2.18059">
        <ele>112.6115723</ele>
        <time>2012-05-01T15:03:45Z</time>
      </trkpt>
      <trkpt lat="47.92497" lon="2.18031">
        <ele>110.208252</ele>
        <time>2012-05-01T15:03:56Z</time>
      </trkpt>
      <trkpt lat="47.92497" lon="2.18006">
        <ele>102.998291</ele>
        <time>2012-05-01T15:04:09Z</time>
      </trkpt>
      <trkpt lat="47.92495" lon="2.17989">
        <ele>101.5563965</ele>
        <time>2012-05-01T15:04:25Z</time>
      </trkpt>
      <trkpt lat="47.92495" lon="2.17989">
        <ele>101.5563965</ele>
        <time>2012-05-01T15:04:43Z</time>
      </trkpt>
      <trkpt lat="47.92494" lon="2.1798">
        <ele>103.9597168</ele>
        <time>2012-05-01T15:04:47Z</time>
      </trkpt>
      <trkpt lat="47.92493" lon="2.17975">
        <ele>106.3630371</ele>
        <time>2012-05-01T15:05:01Z</time>
      </trkpt>
      <trkpt lat="47.92493" lon="2.17941">
        <ele>106.3630371</ele>
        <time>2012-05-01T15:05:24Z</time>
      </trkpt>
      <trkpt lat="47.9249" lon="2.17915">
        <ele>106.3630371</ele>
        <time>2012-05-01T15:05:36Z</time>
      </trkpt>
      <trkpt lat="47.92489" lon="2.17887">
        <ele>104.9210205</ele>
        <time>2012-05-01T15:05:49Z</time>
      </trkpt>
      <trkpt lat="47.92489" lon="2.17883">
        <ele>105.4017334</ele>
        <time>2012-05-01T15:05:51Z</time>
      </trkpt>
      <trkpt lat="47.9249" lon="2.17844">
        <ele>109.2469482</ele>
        <time>2012-05-01T15:06:07Z</time>
      </trkpt>
      <trkpt lat="47.92486" lon="2.17814">
        <ele>109.7276611</ele>
        <time>2012-05-01T15:06:22Z</time>
      </trkpt>
      <trkpt lat="47.92488" lon="2.17783">
        <ele>110.6888428</ele>
        <time>2012-05-01T15:06:36Z</time>
      </trkpt>
      <trkpt lat="47.92485" lon="2.17751">
        <ele>110.6888428</ele>
        <time>2012-05-01T15:06:52Z</time>
      </trkpt>
      <trkpt lat="47.92484" lon="2.17715">
        <ele>113.0922852</ele>
        <time>2012-05-01T15:07:06Z</time>
      </trkpt>
      <trkpt lat="47.92487" lon="2.17688">
        <ele>114.0535889</ele>
        <time>2012-05-01T15:07:20Z</time>
      </trkpt>
      <trkpt lat="47.92485" lon="2.17654">
        <ele>113.572998</ele>
        <time>2012-05-01T15:07:36Z</time>
      </trkpt>
      <trkpt lat="47.92485" lon="2.17652">
        <ele>113.572998</ele>
        <time>2012-05-01T15:07:37Z</time>
      </trkpt>
      <trkpt lat="47.92483" lon="2.17642">
        <ele>114.0535889</ele>
        <time>2012-05-01T15:07:43Z</time>
      </trkpt>
      <trkpt lat="47.92482" lon="2.17614">
        <ele>112.1309814</ele>
        <time>2012-05-01T15:07:59Z</time>
      </trkpt>
      <trkpt lat="47.92484" lon="2.17581">
        <ele>112.1309814</ele>
        <time>2012-05-01T15:08:15Z</time>
      </trkpt>
      <trkpt lat="47.92482" lon="2.17573">
        <ele>111.6502686</ele>
        <time>2012-05-01T15:08:19Z</time>
      </trkpt>
      <trkpt lat="47.92478" lon="2.17536">
        <ele>113.0922852</ele>
        <time>2012-05-01T15:08:36Z</time>
      </trkpt>
      <trkpt lat="47.92479" lon="2.17534">
        <ele>113.572998</ele>
        <time>2012-05-01T15:08:45Z</time>
      </trkpt>
      <trkpt lat="47.9248" lon="2.17503">
        <ele>114.0535889</ele>
        <time>2012-05-01T15:09:07Z</time>
      </trkpt>
      <trkpt lat="47.92475" lon="2.17464">
        <ele>113.0922852</ele>
        <time>2012-05-01T15:09:22Z</time>
      </trkpt>
      <trkpt lat="47.92476" lon="2.17434">
        <ele>111.6502686</ele>
        <time>2012-05-01T15:09:35Z</time>
      </trkpt>
      <trkpt lat="47.92477" lon="2.17417">
        <ele>110.6888428</ele>
        <time>2012-05-01T15:09:43Z</time>
      </trkpt>
      <trkpt lat="47.92476" lon="2.1741">
        <ele>109.7276611</ele>
        <time>2012-05-01T15:09:47Z</time>
      </trkpt>
      <trkpt lat="47.92475" lon="2.17382">
        <ele>106.3630371</ele>
        <time>2012-05-01T15:10:01Z</time>
      </trkpt>
      <trkpt lat="47.92478" lon="2.17368">
        <ele>102.5177002</ele>
        <time>2012-05-01T15:10:12Z</time>
      </trkpt>
      <trkpt lat="47.92478" lon="2.17368">
        <ele>102.5177002</ele>
        <time>2012-05-01T15:10:29Z</time>
      </trkpt>
      <trkpt lat="47.92477" lon="2.17356">
        <ele>101.5563965</ele>
        <time>2012-05-01T15:10:33Z</time>
      </trkpt>
      <trkpt lat="47.92477" lon="2.17341">
        <ele>100.114502</ele>
        <time>2012-05-01T15:10:38Z</time>
      </trkpt>
      <trkpt lat="47.92478" lon="2.17321">
        <ele>96.2692871</ele>
        <time>2012-05-01T15:10:52Z</time>
      </trkpt>
      <trkpt lat="47.92478" lon="2.1731">
        <ele>94.8271484</ele>
        <time>2012-05-01T15:10:57Z</time>
      </trkpt>
      <trkpt lat="47.92477" lon="2.17298">
        <ele>94.3465576</ele>
        <time>2012-05-01T15:11:03Z</time>
      </trkpt>
      <trkpt lat="47.92478" lon="2.17267">
        <ele>93.3851318</ele>
        <time>2012-05-01T15:11:17Z</time>
      </trkpt>
      <trkpt lat="47.92477" lon="2.17263">
        <ele>94.3465576</ele>
        <time>2012-05-01T15:11:19Z</time>
      </trkpt>
      <trkpt lat="47.92475" lon="2.17244">
        <ele>94.3465576</ele>
        <time>2012-05-01T15:11:28Z</time>
      </trkpt>
      <trkpt lat="47.92475" lon="2.17228">
        <ele>93.3851318</ele>
        <time>2012-05-01T15:11:35Z</time>
      </trkpt>
      <trkpt lat="47.92475" lon="2.17225">
        <ele>92.4239502</ele>
        <time>2012-05-01T15:11:37Z</time>
      </trkpt>
      <trkpt lat="47.92476" lon="2.17218">
        <ele>90.9819336</ele>
        <time>2012-05-01T15:11:41Z</time>
      </trkpt>
      <trkpt lat="47.92476" lon="2.17209">
        <ele>90.5013428</ele>
        <time>2012-05-01T15:11:45Z</time>
      </trkpt>
      <trkpt lat="47.92471" lon="2.17177">
        <ele>92.4239502</ele>
        <time>2012-05-01T15:12:00Z</time>
      </trkpt>
      <trkpt lat="47.9247" lon="2.17169">
        <ele>92.4239502</ele>
        <time>2012-05-01T15:12:04Z</time>
      </trkpt>
      <trkpt lat="47.92472" lon="2.1714">
        <ele>90.0206299</ele>
        <time>2012-05-01T15:12:19Z</time>
      </trkpt>
      <trkpt lat="47.9247" lon="2.17133">
        <ele>89.0593262</ele>
        <time>2012-05-01T15:12:24Z</time>
      </trkpt>
      <trkpt lat="47.92468" lon="2.17116">
        <ele>88.0980225</ele>
        <time>2012-05-01T15:12:32Z</time>
      </trkpt>
      <trkpt lat="47.92468" lon="2.17103">
        <ele>90.0206299</ele>
        <time>2012-05-01T15:12:38Z</time>
      </trkpt>
      <trkpt lat="47.92466" lon="2.17072">
        <ele>92.4239502</ele>
        <time>2012-05-01T15:12:52Z</time>
      </trkpt>
      <trkpt lat="47.92465" lon="2.17058">
        <ele>93.8658447</ele>
        <time>2012-05-01T15:12:58Z</time>
      </trkpt>
      <trkpt lat="47.92466" lon="2.17041">
        <ele>94.8271484</ele>
        <time>2012-05-01T15:13:06Z</time>
      </trkpt>
      <trkpt lat="47.92464" lon="2.17029">
        <ele>95.3077393</ele>
        <time>2012-05-01T15:13:12Z</time>
      </trkpt>
      <trkpt lat="47.92462" lon="2.17011">
        <ele>94.8271484</ele>
        <time>2012-05-01T15:13:20Z</time>
      </trkpt>
      <trkpt lat="47.92463" lon="2.17">
        <ele>95.3077393</ele>
        <time>2012-05-01T15:13:26Z</time>
      </trkpt>
      <trkpt lat="47.92464" lon="2.1699">
        <ele>94.3465576</ele>
        <time>2012-05-01T15:13:31Z</time>
      </trkpt>
      <trkpt lat="47.92463" lon="2.16972">
        <ele>92.4239502</ele>
        <time>2012-05-01T15:13:44Z</time>
      </trkpt>
      <trkpt lat="47.92463" lon="2.16968">
        <ele>92.904541</ele>
        <time>2012-05-01T15:13:46Z</time>
      </trkpt>
      <trkpt lat="47.92463" lon="2.16961">
        <ele>93.3851318</ele>
        <time>2012-05-01T15:13:50Z</time>
      </trkpt>
      <trkpt lat="47.92462" lon="2.16927">
        <ele>97.2304688</ele>
        <time>2012-05-01T15:14:04Z</time>
      </trkpt>
      <trkpt lat="47.92463" lon="2.16917">
        <ele>96.7498779</ele>
        <time>2012-05-01T15:14:09Z</time>
      </trkpt>
      <trkpt lat="47.92462" lon="2.16913">
        <ele>96.7498779</ele>
        <time>2012-05-01T15:14:11Z</time>
      </trkpt>
      <trkpt lat="47.92462" lon="2.16889">
        <ele>93.3851318</ele>
        <time>2012-05-01T15:14:24Z</time>
      </trkpt>
      <trkpt lat="47.92463" lon="2.16866">
        <ele>90.5013428</ele>
        <time>2012-05-01T15:14:37Z</time>
      </trkpt>
      <trkpt lat="47.92461" lon="2.16847">
        <ele>87.6171875</ele>
        <time>2012-05-01T15:14:47Z</time>
      </trkpt>
      <trkpt lat="47.92461" lon="2.16843">
        <ele>87.1365967</ele>
        <time>2012-05-01T15:14:49Z</time>
      </trkpt>
      <trkpt lat="47.9246" lon="2.16834">
        <ele>86.175293</ele>
        <time>2012-05-01T15:14:54Z</time>
      </trkpt>
      <trkpt lat="47.9246" lon="2.16806">
        <ele>84.7333984</ele>
        <time>2012-05-01T15:15:07Z</time>
      </trkpt>
      <trkpt lat="47.92459" lon="2.16803">
        <ele>84.7333984</ele>
        <time>2012-05-01T15:15:09Z</time>
      </trkpt>
      <trkpt lat="47.92456" lon="2.16782">
        <ele>83.7719727</ele>
        <time>2012-05-01T15:15:21Z</time>
      </trkpt>
      <trkpt lat="47.92456" lon="2.16781">
        <ele>83.2913818</ele>
        <time>2012-05-01T15:15:22Z</time>
      </trkpt>
      <trkpt lat="47.92454" lon="2.16761">
        <ele>83.7719727</ele>
        <time>2012-05-01T15:15:33Z</time>
      </trkpt>
      <trkpt lat="47.92455" lon="2.16753">
        <ele>84.2526855</ele>
        <time>2012-05-01T15:15:37Z</time>
      </trkpt>
      <trkpt lat="47.92455" lon="2.16735">
        <ele>89.0593262</ele>
        <time>2012-05-01T15:15:47Z</time>
      </trkpt>
      <trkpt lat="47.92455" lon="2.16729">
        <ele>93.8658447</ele>
        <time>2012-05-01T15:15:58Z</time>
      </trkpt>
      <trkpt lat="47.92459" lon="2.16738">
        <ele>90.0206299</ele>
        <time>2012-05-01T15:16:10Z</time>
      </trkpt>
      <trkpt lat="47.92457" lon="2.16736">
        <ele>89.539917</ele>
        <time>2012-05-01T15:17:05Z</time>
      </trkpt>
      <trkpt lat="47.92456" lon="2.16728">
        <ele>88.0980225</ele>
        <time>2012-05-01T15:17:11Z</time>
      </trkpt>
      <trkpt lat="47.92456" lon="2.16716">
        <ele>87.1365967</ele>
        <time>2012-05-01T15:17:20Z</time>
      </trkpt>
      <trkpt lat="47.92459" lon="2.16704">
        <ele>90.9819336</ele>
        <time>2012-05-01T15:17:29Z</time>
      </trkpt>
      <trkpt lat="47.92461" lon="2.1668">
        <ele>90.5013428</ele>
        <time>2012-05-01T15:17:43Z</time>
      </trkpt>
      <trkpt lat="47.92461" lon="2.16657">
        <ele>90.0206299</ele>
        <time>2012-05-01T15:17:57Z</time>
      </trkpt>
      <trkpt lat="47.92461" lon="2.16655">
        <ele>90.5013428</ele>
        <time>2012-05-01T15:18:03Z</time>
      </trkpt>
      <trkpt lat="47.92464" lon="2.16641">
        <ele>94.8271484</ele>
        <time>2012-05-01T15:18:09Z</time>
      </trkpt>
      <trkpt lat="47.92473" lon="2.16628">
        <ele>105.4017334</ele>
        <time>2012-05-01T15:18:23Z</time>
      </trkpt>
      <trkpt lat="47.92492" lon="2.16622">
        <ele>107.8050537</ele>
        <time>2012-05-01T15:18:48Z</time>
      </trkpt>
      <trkpt lat="47.92513" lon="2.16618">
        <ele>111.1695557</ele>
        <time>2012-05-01T15:19:05Z</time>
      </trkpt>
      <trkpt lat="47.92517" lon="2.16617">
        <ele>112.1309814</ele>
        <time>2012-05-01T15:19:17Z</time>
      </trkpt>
      <trkpt lat="47.92536" lon="2.16609">
        <ele>114.0535889</ele>
        <time>2012-05-01T15:19:33Z</time>
      </trkpt>
      <trkpt lat="47.92546" lon="2.16609">
        <ele>116.4567871</ele>
        <time>2012-05-01T15:19:48Z</time>
      </trkpt>
      <trkpt lat="47.92559" lon="2.16606">
        <ele>116.4567871</ele>
        <time>2012-05-01T15:20:21Z</time>
      </trkpt>
      <trkpt lat="47.92589" lon="2.16598">
        <ele>115.4956055</ele>
        <time>2012-05-01T15:20:44Z</time>
      </trkpt>
      <trkpt lat="47.92593" lon="2.16597">
        <ele>114.5341797</ele>
        <time>2012-05-01T15:20:47Z</time>
      </trkpt>
      <trkpt lat="47.92608" lon="2.16598">
        <ele>114.5341797</ele>
        <time>2012-05-01T15:21:01Z</time>
      </trkpt>
      <trkpt lat="47.92629" lon="2.16592">
        <ele>114.0535889</ele>
        <time>2012-05-01T15:21:16Z</time>
      </trkpt>
      <trkpt lat="47.92647" lon="2.16588">
        <ele>113.0922852</ele>
        <time>2012-05-01T15:21:30Z</time>
      </trkpt>
      <trkpt lat="47.9267" lon="2.16581">
        <ele>113.572998</ele>
        <time>2012-05-01T15:21:47Z</time>
      </trkpt>
      <trkpt lat="47.92691" lon="2.1658">
        <ele>113.572998</ele>
        <time>2012-05-01T15:22:03Z</time>
      </trkpt>
      <trkpt lat="47.92705" lon="2.16603">
        <ele>115.0148926</ele>
        <time>2012-05-01T15:22:20Z</time>
      </trkpt>
      <trkpt lat="47.92706" lon="2.16614">
        <ele>114.0535889</ele>
        <time>2012-05-01T15:22:26Z</time>
      </trkpt>
      <trkpt lat="47.92712" lon="2.16634">
        <ele>115.0148926</ele>
        <time>2012-05-01T15:22:39Z</time>
      </trkpt>
      <trkpt lat="47.92717" lon="2.16636">
        <ele>115.0148926</ele>
        <time>2012-05-01T15:22:52Z</time>
      </trkpt>
      <trkpt lat="47.92724" lon="2.16634">
        <ele>115.0148926</ele>
        <time>2012-05-01T15:23:03Z</time>
      </trkpt>
      <trkpt lat="47.9274" lon="2.16631">
        <ele>114.5341797</ele>
        <time>2012-05-01T15:23:27Z</time>
      </trkpt>
      <trkpt lat="47.92768" lon="2.16624">
        <ele>115.0148926</ele>
        <time>2012-05-01T15:23:42Z</time>
      </trkpt>
      <trkpt lat="47.92781" lon="2.16621">
        <ele>115.4956055</ele>
        <time>2012-05-01T15:23:51Z</time>
      </trkpt>
      <trkpt lat="47.92803" lon="2.1662">
        <ele>115.4956055</ele>
        <time>2012-05-01T15:24:05Z</time>
      </trkpt>
      <trkpt lat="47.92826" lon="2.16615">
        <ele>114.5341797</ele>
        <time>2012-05-01T15:24:20Z</time>
      </trkpt>
      <trkpt lat="47.92829" lon="2.16616">
        <ele>114.5341797</ele>
        <time>2012-05-01T15:24:22Z</time>
      </trkpt>
      <trkpt lat="47.92848" lon="2.16616">
        <ele>115.4956055</ele>
        <time>2012-05-01T15:24:36Z</time>
      </trkpt>
      <trkpt lat="47.92867" lon="2.16615">
        <ele>114.5341797</ele>
        <time>2012-05-01T15:24:50Z</time>
      </trkpt>
      <trkpt lat="47.92872" lon="2.16614">
        <ele>114.5341797</ele>
        <time>2012-05-01T15:24:53Z</time>
      </trkpt>
      <trkpt lat="47.92889" lon="2.16617">
        <ele>113.0922852</ele>
        <time>2012-05-01T15:25:07Z</time>
      </trkpt>
      <trkpt lat="47.92896" lon="2.16616">
        <ele>112.1309814</ele>
        <time>2012-05-01T15:25:12Z</time>
      </trkpt>
      <trkpt lat="47.92904" lon="2.16618">
        <ele>111.1695557</ele>
        <time>2012-05-01T15:25:25Z</time>
      </trkpt>
      <trkpt lat="47.92915" lon="2.16614">
        <ele>111.6502686</ele>
        <time>2012-05-01T15:25:39Z</time>
      </trkpt>
      <trkpt lat="47.92923" lon="2.16609">
        <ele>111.1695557</ele>
        <time>2012-05-01T15:26:06Z</time>
      </trkpt>
      <trkpt lat="47.92948" lon="2.16589">
        <ele>108.7662354</ele>
        <time>2012-05-01T15:26:31Z</time>
      </trkpt>
      <trkpt lat="47.92952" lon="2.16588">
        <ele>108.7662354</ele>
        <time>2012-05-01T15:26:39Z</time>
      </trkpt>
      <trkpt lat="47.92952" lon="2.16588">
        <ele>108.7662354</ele>
        <time>2012-05-01T15:26:41Z</time>
      </trkpt>
      <trkpt lat="47.92965" lon="2.16581">
        <ele>108.7662354</ele>
        <time>2012-05-01T15:26:50Z</time>
      </trkpt>
      <trkpt lat="47.92987" lon="2.16568">
        <ele>106.3630371</ele>
        <time>2012-05-01T15:27:06Z</time>
      </trkpt>
      <trkpt lat="47.92998" lon="2.16562">
        <ele>106.3630371</ele>
        <time>2012-05-01T15:27:14Z</time>
      </trkpt>
      <trkpt lat="47.93008" lon="2.16556">
        <ele>105.8824463</ele>
        <time>2012-05-01T15:27:22Z</time>
      </trkpt>
      <trkpt lat="47.93014" lon="2.16555">
        <ele>104.9210205</ele>
        <time>2012-05-01T15:27:27Z</time>
      </trkpt>
      <trkpt lat="47.93031" lon="2.16543">
        <ele>104.4404297</ele>
        <time>2012-05-01T15:27:41Z</time>
      </trkpt>
      <trkpt lat="47.93042" lon="2.16536">
        <ele>105.4017334</ele>
        <time>2012-05-01T15:27:50Z</time>
      </trkpt>
      <trkpt lat="47.93058" lon="2.16523">
        <ele>106.3630371</ele>
        <time>2012-05-01T15:28:04Z</time>
      </trkpt>
      <trkpt lat="47.93071" lon="2.16514">
        <ele>106.3630371</ele>
        <time>2012-05-01T15:28:15Z</time>
      </trkpt>
      <trkpt lat="47.93088" lon="2.16503">
        <ele>106.3630371</ele>
        <time>2012-05-01T15:28:28Z</time>
      </trkpt>
      <trkpt lat="47.93098" lon="2.16493">
        <ele>105.8824463</ele>
        <time>2012-05-01T15:28:39Z</time>
      </trkpt>
      <trkpt lat="47.93114" lon="2.16479">
        <ele>105.4017334</ele>
        <time>2012-05-01T15:28:52Z</time>
      </trkpt>
      <trkpt lat="47.93134" lon="2.16462">
        <ele>107.3243408</ele>
        <time>2012-05-01T15:29:08Z</time>
      </trkpt>
      <trkpt lat="47.93152" lon="2.1645">
        <ele>107.8050537</ele>
        <time>2012-05-01T15:29:22Z</time>
      </trkpt>
      <trkpt lat="47.9316" lon="2.16447">
        <ele>108.7662354</ele>
        <time>2012-05-01T15:29:27Z</time>
      </trkpt>
      <trkpt lat="47.93179" lon="2.16431">
        <ele>108.7662354</ele>
        <time>2012-05-01T15:29:42Z</time>
      </trkpt>
      <trkpt lat="47.93197" lon="2.16421">
        <ele>108.2856445</ele>
        <time>2012-05-01T15:29:56Z</time>
      </trkpt>
      <trkpt lat="47.93216" lon="2.16406">
        <ele>107.3243408</ele>
        <time>2012-05-01T15:30:11Z</time>
      </trkpt>
      <trkpt lat="47.93233" lon="2.16396">
        <ele>107.8050537</ele>
        <time>2012-05-01T15:30:25Z</time>
      </trkpt>
      <trkpt lat="47.9325" lon="2.16382">
        <ele>107.8050537</ele>
        <time>2012-05-01T15:30:40Z</time>
      </trkpt>
      <trkpt lat="47.93261" lon="2.16378">
        <ele>107.3243408</ele>
        <time>2012-05-01T15:30:48Z</time>
      </trkpt>
      <trkpt lat="47.93271" lon="2.16371">
        <ele>107.3243408</ele>
        <time>2012-05-01T15:30:59Z</time>
      </trkpt>
      <trkpt lat="47.9328" lon="2.16367">
        <ele>106.8436279</ele>
        <time>2012-05-01T15:31:06Z</time>
      </trkpt>
      <trkpt lat="47.93296" lon="2.16356">
        <ele>106.8436279</ele>
        <time>2012-05-01T15:31:19Z</time>
      </trkpt>
      <trkpt lat="47.93303" lon="2.16352">
        <ele>108.2856445</ele>
        <time>2012-05-01T15:31:30Z</time>
      </trkpt>
      <trkpt lat="47.93305" lon="2.16351">
        <ele>107.8050537</ele>
        <time>2012-05-01T15:31:35Z</time>
      </trkpt>
      <trkpt lat="47.93307" lon="2.16359">
        <ele>107.8050537</ele>
        <time>2012-05-01T15:31:40Z</time>
      </trkpt>
      <trkpt lat="47.93313" lon="2.16366">
        <ele>105.8824463</ele>
        <time>2012-05-01T15:31:53Z</time>
      </trkpt>
      <trkpt lat="47.93312" lon="2.16363">
        <ele>105.8824463</ele>
        <time>2012-05-01T15:32:08Z</time>
      </trkpt>
      <trkpt lat="47.93313" lon="2.16364">
        <ele>106.8436279</ele>
        <time>2012-05-01T15:32:41Z</time>
      </trkpt>
      <trkpt lat="47.93313" lon="2.16343">
        <ele>108.7662354</ele>
        <time>2012-05-01T15:32:54Z</time>
      </trkpt>
      <trkpt lat="47.9333" lon="2.16331">
        <ele>108.7662354</ele>
        <time>2012-05-01T15:33:09Z</time>
      </trkpt>
      <trkpt lat="47.93349" lon="2.16318">
        <ele>108.7662354</ele>
        <time>2012-05-01T15:33:25Z</time>
      </trkpt>
      <trkpt lat="47.93367" lon="2.16309">
        <ele>107.8050537</ele>
        <time>2012-05-01T15:33:40Z</time>
      </trkpt>
      <trkpt lat="47.93369" lon="2.16309">
        <ele>107.8050537</ele>
        <time>2012-05-01T15:33:42Z</time>
      </trkpt>
      <trkpt lat="47.93373" lon="2.16301">
        <ele>107.8050537</ele>
        <time>2012-05-01T15:33:57Z</time>
      </trkpt>
      <trkpt lat="47.93371" lon="2.16294">
        <ele>108.2856445</ele>
        <time>2012-05-01T15:34:12Z</time>
      </trkpt>
      <trkpt lat="47.93334" lon="2.16249">
        <ele>108.2856445</ele>
        <time>2012-05-01T15:34:49Z</time>
      </trkpt>
      <trkpt lat="47.93323" lon="2.16237">
        <ele>107.8050537</ele>
        <time>2012-05-01T15:35:00Z</time>
      </trkpt>
      <trkpt lat="47.9331" lon="2.16223">
        <ele>108.2856445</ele>
        <time>2012-05-01T15:35:14Z</time>
      </trkpt>
      <trkpt lat="47.93293" lon="2.16205">
        <ele>108.7662354</ele>
        <time>2012-05-01T15:35:30Z</time>
      </trkpt>
      <trkpt lat="47.93279" lon="2.16186">
        <ele>108.2856445</ele>
        <time>2012-05-01T15:35:45Z</time>
      </trkpt>
      <trkpt lat="47.93272" lon="2.1618">
        <ele>108.7662354</ele>
        <time>2012-05-01T15:35:51Z</time>
      </trkpt>
      <trkpt lat="47.9326" lon="2.16166">
        <ele>109.2469482</ele>
        <time>2012-05-01T15:36:01Z</time>
      </trkpt>
      <trkpt lat="47.93243" lon="2.16148">
        <ele>107.3243408</ele>
        <time>2012-05-01T15:36:17Z</time>
      </trkpt>
      <trkpt lat="47.93232" lon="2.16141">
        <ele>107.8050537</ele>
        <time>2012-05-01T15:36:26Z</time>
      </trkpt>
      <trkpt lat="47.93223" lon="2.16132">
        <ele>108.7662354</ele>
        <time>2012-05-01T15:36:33Z</time>
      </trkpt>
      <trkpt lat="47.93204" lon="2.16119">
        <ele>109.2469482</ele>
        <time>2012-05-01T15:36:48Z</time>
      </trkpt>
      <trkpt lat="47.93203" lon="2.16119">
        <ele>109.2469482</ele>
        <time>2012-05-01T15:36:49Z</time>
      </trkpt>
      <trkpt lat="47.93194" lon="2.16116">
        <ele>107.8050537</ele>
        <time>2012-05-01T15:36:56Z</time>
      </trkpt>
      <trkpt lat="47.93186" lon="2.16112">
        <ele>106.8436279</ele>
        <time>2012-05-01T15:37:02Z</time>
      </trkpt>
      <trkpt lat="47.93171" lon="2.16099">
        <ele>106.8436279</ele>
        <time>2012-05-01T15:37:15Z</time>
      </trkpt>
      <trkpt lat="47.93154" lon="2.16091">
        <ele>106.3630371</ele>
        <time>2012-05-01T15:37:28Z</time>
      </trkpt>
      <trkpt lat="47.93138" lon="2.1608">
        <ele>108.2856445</ele>
        <time>2012-05-01T15:37:43Z</time>
      </trkpt>
      <trkpt lat="47.93123" lon="2.16065">
        <ele>107.8050537</ele>
        <time>2012-05-01T15:37:56Z</time>
      </trkpt>
      <trkpt lat="47.93118" lon="2.16058">
        <ele>106.8436279</ele>
        <time>2012-05-01T15:38:08Z</time>
      </trkpt>
      <trkpt lat="47.93098" lon="2.16027">
        <ele>108.2856445</ele>
        <time>2012-05-01T15:38:55Z</time>
      </trkpt>
      <trkpt lat="47.93091" lon="2.16011">
        <ele>108.7662354</ele>
        <time>2012-05-01T15:39:07Z</time>
      </trkpt>
      <trkpt lat="47.93088" lon="2.16004">
        <ele>109.2469482</ele>
        <time>2012-05-01T15:39:11Z</time>
      </trkpt>
      <trkpt lat="47.93086" lon="2.15994">
        <ele>109.7276611</ele>
        <time>2012-05-01T15:39:16Z</time>
      </trkpt>
      <trkpt lat="47.93081" lon="2.15958">
        <ele>110.208252</ele>
        <time>2012-05-01T15:39:33Z</time>
      </trkpt>
      <trkpt lat="47.93077" lon="2.15927">
        <ele>111.6502686</ele>
        <time>2012-05-01T15:39:48Z</time>
      </trkpt>
      <trkpt lat="47.93074" lon="2.15901">
        <ele>112.6115723</ele>
        <time>2012-05-01T15:40:01Z</time>
      </trkpt>
      <trkpt lat="47.93072" lon="2.1587">
        <ele>112.1309814</ele>
        <time>2012-05-01T15:40:16Z</time>
      </trkpt>
      <trkpt lat="47.9307" lon="2.15862">
        <ele>112.1309814</ele>
        <time>2012-05-01T15:40:20Z</time>
      </trkpt>
      <trkpt lat="47.93069" lon="2.15856">
        <ele>111.6502686</ele>
        <time>2012-05-01T15:40:23Z</time>
      </trkpt>
      <trkpt lat="47.93067" lon="2.15829">
        <ele>110.208252</ele>
        <time>2012-05-01T15:40:37Z</time>
      </trkpt>
      <trkpt lat="47.93064" lon="2.15808">
        <ele>110.208252</ele>
        <time>2012-05-01T15:40:47Z</time>
      </trkpt>
      <trkpt lat="47.93056" lon="2.15781">
        <ele>111.6502686</ele>
        <time>2012-05-01T15:41:01Z</time>
      </trkpt>
      <trkpt lat="47.93047" lon="2.15764">
        <ele>112.1309814</ele>
        <time>2012-05-01T15:41:12Z</time>
      </trkpt>
      <trkpt lat="47.93036" lon="2.15751">
        <ele>111.6502686</ele>
        <time>2012-05-01T15:41:23Z</time>
      </trkpt>
      <trkpt lat="47.93025" lon="2.15744">
        <ele>110.6888428</ele>
        <time>2012-05-01T15:41:32Z</time>
      </trkpt>
      <trkpt lat="47.93009" lon="2.1575">
        <ele>112.1309814</ele>
        <time>2012-05-01T15:41:44Z</time>
      </trkpt>
      <trkpt lat="47.93008" lon="2.15751">
        <ele>112.1309814</ele>
        <time>2012-05-01T15:41:45Z</time>
      </trkpt>
      <trkpt lat="47.93002" lon="2.15757">
        <ele>112.1309814</ele>
        <time>2012-05-01T15:41:50Z</time>
      </trkpt>
      <trkpt lat="47.92996" lon="2.15763">
        <ele>112.6115723</ele>
        <time>2012-05-01T15:42:02Z</time>
      </trkpt>
      <trkpt lat="47.92997" lon="2.15748">
        <ele>113.0922852</ele>
        <time>2012-05-01T15:42:09Z</time>
      </trkpt>
      <trkpt lat="47.92998" lon="2.1573">
        <ele>112.1309814</ele>
        <time>2012-05-01T15:42:24Z</time>
      </trkpt>
      <trkpt lat="47.92995" lon="2.15683">
        <ele>112.6115723</ele>
        <time>2012-05-01T15:42:59Z</time>
      </trkpt>
      <trkpt lat="47.92998" lon="2.1565">
        <ele>111.6502686</ele>
        <time>2012-05-01T15:43:14Z</time>
      </trkpt>
      <trkpt lat="47.93" lon="2.15617">
        <ele>111.1695557</ele>
        <time>2012-05-01T15:43:30Z</time>
      </trkpt>
      <trkpt lat="47.93001" lon="2.15592">
        <ele>110.6888428</ele>
        <time>2012-05-01T15:43:44Z</time>
      </trkpt>
      <trkpt lat="47.93001" lon="2.15575">
        <ele>111.1695557</ele>
        <time>2012-05-01T15:44:04Z</time>
      </trkpt>
      <trkpt lat="47.93012" lon="2.15527">
        <ele>111.6502686</ele>
        <time>2012-05-01T15:44:30Z</time>
      </trkpt>
      <trkpt lat="47.93032" lon="2.15488">
        <ele>110.208252</ele>
        <time>2012-05-01T15:44:59Z</time>
      </trkpt>
      <trkpt lat="47.93049" lon="2.15458">
        <ele>109.7276611</ele>
        <time>2012-05-01T15:45:18Z</time>
      </trkpt>
      <trkpt lat="47.93063" lon="2.15432">
        <ele>109.7276611</ele>
        <time>2012-05-01T15:45:34Z</time>
      </trkpt>
      <trkpt lat="47.93072" lon="2.15415">
        <ele>108.2856445</ele>
        <time>2012-05-01T15:45:47Z</time>
      </trkpt>
      <trkpt lat="47.93068" lon="2.154">
        <ele>109.2469482</ele>
        <time>2012-05-01T15:45:55Z</time>
      </trkpt>
      <trkpt lat="47.93062" lon="2.15377">
        <ele>110.6888428</ele>
        <time>2012-05-01T15:46:08Z</time>
      </trkpt>
      <trkpt lat="47.93056" lon="2.15352">
        <ele>111.1695557</ele>
        <time>2012-05-01T15:46:20Z</time>
      </trkpt>
      <trkpt lat="47.93051" lon="2.15337">
        <ele>110.208252</ele>
        <time>2012-05-01T15:46:34Z</time>
      </trkpt>
      <trkpt lat="47.93042" lon="2.153">
        <ele>110.6888428</ele>
        <time>2012-05-01T15:47:03Z</time>
      </trkpt>
      <trkpt lat="47.93039" lon="2.1529">
        <ele>109.7276611</ele>
        <time>2012-05-01T15:47:07Z</time>
      </trkpt>
      <trkpt lat="47.93034" lon="2.15267">
        <ele>109.2469482</ele>
        <time>2012-05-01T15:47:16Z</time>
      </trkpt>
      <trkpt lat="47.9303" lon="2.15255">
        <ele>107.8050537</ele>
        <time>2012-05-01T15:47:21Z</time>
      </trkpt>
      <trkpt lat="47.93024" lon="2.15234">
        <ele>108.2856445</ele>
        <time>2012-05-01T15:47:31Z</time>
      </trkpt>
      <trkpt lat="47.93016" lon="2.15207">
        <ele>108.2856445</ele>
        <time>2012-05-01T15:47:44Z</time>
      </trkpt>
      <trkpt lat="47.93012" lon="2.15178">
        <ele>108.2856445</ele>
        <time>2012-05-01T15:47:58Z</time>
      </trkpt>
      <trkpt lat="47.9301" lon="2.15165">
        <ele>107.3243408</ele>
        <time>2012-05-01T15:48:04Z</time>
      </trkpt>
      <trkpt lat="47.93009" lon="2.15153">
        <ele>107.8050537</ele>
        <time>2012-05-01T15:48:10Z</time>
      </trkpt>
      <trkpt lat="47.9301" lon="2.15122">
        <ele>108.7662354</ele>
        <time>2012-05-01T15:48:25Z</time>
      </trkpt>
      <trkpt lat="47.9301" lon="2.15112">
        <ele>107.8050537</ele>
        <time>2012-05-01T15:48:38Z</time>
      </trkpt>
      <trkpt lat="47.9301" lon="2.1511">
        <ele>107.8050537</ele>
        <time>2012-05-01T15:48:39Z</time>
      </trkpt>
      <trkpt lat="47.93008" lon="2.15088">
        <ele>107.8050537</ele>
        <time>2012-05-01T15:48:53Z</time>
      </trkpt>
      <trkpt lat="47.93008" lon="2.15084">
        <ele>108.2856445</ele>
        <time>2012-05-01T15:48:59Z</time>
      </trkpt>
      <trkpt lat="47.93018" lon="2.15084">
        <ele>108.7662354</ele>
        <time>2012-05-01T15:49:11Z</time>
      </trkpt>
      <trkpt lat="47.93021" lon="2.15084">
        <ele>108.7662354</ele>
        <time>2012-05-01T15:49:19Z</time>
      </trkpt>
      <trkpt lat="47.9306" lon="2.15088">
        <ele>107.3243408</ele>
        <time>2012-05-01T15:49:51Z</time>
      </trkpt>
      <trkpt lat="47.93075" lon="2.1508">
        <ele>106.8436279</ele>
        <time>2012-05-01T15:50:05Z</time>
      </trkpt>
      <trkpt lat="47.93093" lon="2.15067">
        <ele>105.8824463</ele>
        <time>2012-05-01T15:50:21Z</time>
      </trkpt>
      <trkpt lat="47.9311" lon="2.15051">
        <ele>105.8824463</ele>
        <time>2012-05-01T15:50:35Z</time>
      </trkpt>
      <trkpt lat="47.93126" lon="2.15034">
        <ele>105.4017334</ele>
        <time>2012-05-01T15:50:50Z</time>
      </trkpt>
      <trkpt lat="47.93137" lon="2.15021">
        <ele>103.4790039</ele>
        <time>2012-05-01T15:51:02Z</time>
      </trkpt>
      <trkpt lat="47.9314" lon="2.15017">
        <ele>103.9597168</ele>
        <time>2012-05-01T15:51:17Z</time>
      </trkpt>
      <trkpt lat="47.93161" lon="2.14996">
        <ele>102.0371094</ele>
        <time>2012-05-01T15:51:54Z</time>
      </trkpt>
      <trkpt lat="47.93173" lon="2.1498">
        <ele>99.1530762</ele>
        <time>2012-05-01T15:52:08Z</time>
      </trkpt>
      <trkpt lat="47.93192" lon="2.14954">
        <ele>100.5950928</ele>
        <time>2012-05-01T15:52:37Z</time>
      </trkpt>
      <trkpt lat="47.93216" lon="2.14924">
        <ele>102.0371094</ele>
        <time>2012-05-01T15:52:54Z</time>
      </trkpt>
      <trkpt lat="47.93237" lon="2.14899">
        <ele>102.5177002</ele>
        <time>2012-05-01T15:53:12Z</time>
      </trkpt>
      <trkpt lat="47.93239" lon="2.14897">
        <ele>102.5177002</ele>
        <time>2012-05-01T15:53:16Z</time>
      </trkpt>
      <trkpt lat="47.93244" lon="2.1489">
        <ele>102.998291</ele>
        <time>2012-05-01T15:53:22Z</time>
      </trkpt>
      <trkpt lat="47.93244" lon="2.14879">
        <ele>104.4404297</ele>
        <time>2012-05-01T15:53:28Z</time>
      </trkpt>
      <trkpt lat="47.93236" lon="2.14862">
        <ele>104.4404297</ele>
        <time>2012-05-01T15:53:41Z</time>
      </trkpt>
      <trkpt lat="47.93226" lon="2.14836">
        <ele>104.9210205</ele>
        <time>2012-05-01T15:53:55Z</time>
      </trkpt>
      <trkpt lat="47.93223" lon="2.14828">
        <ele>104.9210205</ele>
        <time>2012-05-01T15:54:03Z</time>
      </trkpt>
      <trkpt lat="47.93219" lon="2.14822">
        <ele>104.9210205</ele>
        <time>2012-05-01T15:54:07Z</time>
      </trkpt>
      <trkpt lat="47.93215" lon="2.14813">
        <ele>104.9210205</ele>
        <time>2012-05-01T15:54:20Z</time>
      </trkpt>
      <trkpt lat="47.93216" lon="2.14788">
        <ele>103.4790039</ele>
        <time>2012-05-01T15:54:32Z</time>
      </trkpt>
      <trkpt lat="47.93228" lon="2.14766">
        <ele>103.9597168</ele>
        <time>2012-05-01T15:54:48Z</time>
      </trkpt>
      <trkpt lat="47.93244" lon="2.14747">
        <ele>103.9597168</ele>
        <time>2012-05-01T15:55:04Z</time>
      </trkpt>
      <trkpt lat="47.93254" lon="2.14735">
        <ele>102.5177002</ele>
        <time>2012-05-01T15:55:17Z</time>
      </trkpt>
      <trkpt lat="47.93254" lon="2.14735">
        <ele>102.5177002</ele>
        <time>2012-05-01T15:55:25Z</time>
      </trkpt>
      <trkpt lat="47.93269" lon="2.14709">
        <ele>102.998291</ele>
        <time>2012-05-01T15:55:42Z</time>
      </trkpt>
      <trkpt lat="47.93277" lon="2.14686">
        <ele>102.998291</ele>
        <time>2012-05-01T15:55:56Z</time>
      </trkpt>
      <trkpt lat="47.93286" lon="2.14655">
        <ele>103.9597168</ele>
        <time>2012-05-01T15:56:13Z</time>
      </trkpt>
      <trkpt lat="47.93292" lon="2.14624">
        <ele>105.4017334</ele>
        <time>2012-05-01T15:56:29Z</time>
      </trkpt>
      <trkpt lat="47.93306" lon="2.14599">
        <ele>103.4790039</ele>
        <time>2012-05-01T15:56:46Z</time>
      </trkpt>
      <trkpt lat="47.93321" lon="2.14581">
        <ele>104.4404297</ele>
        <time>2012-05-01T15:57:01Z</time>
      </trkpt>
      <trkpt lat="47.93329" lon="2.14573">
        <ele>104.4404297</ele>
        <time>2012-05-01T15:57:12Z</time>
      </trkpt>
      <trkpt lat="47.9334" lon="2.14558">
        <ele>102.0371094</ele>
        <time>2012-05-01T15:57:24Z</time>
      </trkpt>
      <trkpt lat="47.93342" lon="2.14555">
        <ele>100.114502</ele>
        <time>2012-05-01T15:57:42Z</time>
      </trkpt>
      <trkpt lat="47.93342" lon="2.14555">
        <ele>100.5950928</ele>
        <time>2012-05-01T15:58:12Z</time>
      </trkpt>
      <trkpt lat="47.93341" lon="2.14553">
        <ele>100.114502</ele>
        <time>2012-05-01T15:58:55Z</time>
      </trkpt>
      <trkpt lat="47.93342" lon="2.14553">
        <ele>101.0756836</ele>
        <time>2012-05-01T16:00:16Z</time>
      </trkpt>
      <trkpt lat="47.93342" lon="2.14551">
        <ele>100.5950928</ele>
        <time>2012-05-01T16:00:38Z</time>
      </trkpt>
      <trkpt lat="47.93342" lon="2.14545">
        <ele>101.0756836</ele>
        <time>2012-05-01T16:00:57Z</time>
      </trkpt>
      <trkpt lat="47.9334" lon="2.14539">
        <ele>101.5563965</ele>
        <time>2012-05-01T16:01:15Z</time>
      </trkpt>
      <trkpt lat="47.93333" lon="2.14524">
        <ele>100.114502</ele>
        <time>2012-05-01T16:01:37Z</time>
      </trkpt>
      <trkpt lat="47.93322" lon="2.14495">
        <ele>99.1530762</ele>
        <time>2012-05-01T16:02:00Z</time>
      </trkpt>
      <trkpt lat="47.93309" lon="2.14472">
        <ele>99.1530762</ele>
        <time>2012-05-01T16:02:13Z</time>
      </trkpt>
      <trkpt lat="47.93304" lon="2.14456">
        <ele>99.6337891</ele>
        <time>2012-05-01T16:02:21Z</time>
      </trkpt>
      <trkpt lat="47.93296" lon="2.14446">
        <ele>98.6724854</ele>
        <time>2012-05-01T16:02:30Z</time>
      </trkpt>
      <trkpt lat="47.93286" lon="2.14419">
        <ele>98.1918945</ele>
        <time>2012-05-01T16:02:44Z</time>
      </trkpt>
      <trkpt lat="47.93275" lon="2.14396">
        <ele>98.6724854</ele>
        <time>2012-05-01T16:02:59Z</time>
      </trkpt>
      <trkpt lat="47.93269" lon="2.14383">
        <ele>98.6724854</ele>
        <time>2012-05-01T16:03:08Z</time>
      </trkpt>
      <trkpt lat="47.93261" lon="2.14371">
        <ele>93.8658447</ele>
        <time>2012-05-01T16:03:22Z</time>
      </trkpt>
      <trkpt lat="47.93258" lon="2.14362">
        <ele>91.9432373</ele>
        <time>2012-05-01T16:03:36Z</time>
      </trkpt>
      <trkpt lat="47.9325" lon="2.14345">
        <ele>90.9819336</ele>
        <time>2012-05-01T16:03:56Z</time>
      </trkpt>
      <trkpt lat="47.93234" lon="2.14318">
        <ele>95.7884521</ele>
        <time>2012-05-01T16:04:11Z</time>
      </trkpt>
      <trkpt lat="47.93231" lon="2.14312">
        <ele>95.7884521</ele>
        <time>2012-05-01T16:04:15Z</time>
      </trkpt>
      <trkpt lat="47.9323" lon="2.14307">
        <ele>95.7884521</ele>
        <time>2012-05-01T16:04:18Z</time>
      </trkpt>
      <trkpt lat="47.93226" lon="2.143">
        <ele>95.7884521</ele>
        <time>2012-05-01T16:04:22Z</time>
      </trkpt>
      <trkpt lat="47.93219" lon="2.1429">
        <ele>94.8271484</ele>
        <time>2012-05-01T16:04:30Z</time>
      </trkpt>
      <trkpt lat="47.93208" lon="2.14269">
        <ele>95.7884521</ele>
        <time>2012-05-01T16:04:43Z</time>
      </trkpt>
      <trkpt lat="47.93205" lon="2.14263">
        <ele>95.7884521</ele>
        <time>2012-05-01T16:04:46Z</time>
      </trkpt>
      <trkpt lat="47.93197" lon="2.14252">
        <ele>96.7498779</ele>
        <time>2012-05-01T16:04:55Z</time>
      </trkpt>
      <trkpt lat="47.93193" lon="2.14243">
        <ele>97.2304688</ele>
        <time>2012-05-01T16:05:00Z</time>
      </trkpt>
      <trkpt lat="47.93179" lon="2.14223">
        <ele>97.2304688</ele>
        <time>2012-05-01T16:05:15Z</time>
      </trkpt>
      <trkpt lat="47.93175" lon="2.14213">
        <ele>98.1918945</ele>
        <time>2012-05-01T16:05:21Z</time>
      </trkpt>
      <trkpt lat="47.93167" lon="2.14199">
        <ele>99.6337891</ele>
        <time>2012-05-01T16:05:31Z</time>
      </trkpt>
      <trkpt lat="47.9316" lon="2.14185">
        <ele>99.1530762</ele>
        <time>2012-05-01T16:05:40Z</time>
      </trkpt>
      <trkpt lat="47.93158" lon="2.14183">
        <ele>99.1530762</ele>
        <time>2012-05-01T16:05:42Z</time>
      </trkpt>
      <trkpt lat="47.93154" lon="2.14178">
        <ele>99.1530762</ele>
        <time>2012-05-01T16:05:46Z</time>
      </trkpt>
      <trkpt lat="47.93152" lon="2.14175">
        <ele>98.6724854</ele>
        <time>2012-05-01T16:05:48Z</time>
      </trkpt>
      <trkpt lat="47.93147" lon="2.14164">
        <ele>98.1918945</ele>
        <time>2012-05-01T16:05:55Z</time>
      </trkpt>
      <trkpt lat="47.93139" lon="2.14152">
        <ele>96.7498779</ele>
        <time>2012-05-01T16:06:05Z</time>
      </trkpt>
      <trkpt lat="47.93135" lon="2.14145">
        <ele>95.7884521</ele>
        <time>2012-05-01T16:06:11Z</time>
      </trkpt>
      <trkpt lat="47.93123" lon="2.14132">
        <ele>93.8658447</ele>
        <time>2012-05-01T16:06:23Z</time>
      </trkpt>
      <trkpt lat="47.93116" lon="2.14126">
        <ele>92.4239502</ele>
        <time>2012-05-01T16:06:32Z</time>
      </trkpt>
      <trkpt lat="47.93115" lon="2.14125">
        <ele>92.4239502</ele>
        <time>2012-05-01T16:07:00Z</time>
      </trkpt>
      <trkpt lat="47.93099" lon="2.14103">
        <ele>92.904541</ele>
        <time>2012-05-01T16:07:25Z</time>
      </trkpt>
      <trkpt lat="47.93088" lon="2.14087">
        <ele>95.7884521</ele>
        <time>2012-05-01T16:07:46Z</time>
      </trkpt>
      <trkpt lat="47.93085" lon="2.14082">
        <ele>97.2304688</ele>
        <time>2012-05-01T16:07:49Z</time>
      </trkpt>
      <trkpt lat="47.93081" lon="2.14079">
        <ele>98.6724854</ele>
        <time>2012-05-01T16:07:53Z</time>
      </trkpt>
      <trkpt lat="47.93068" lon="2.1406">
        <ele>98.6724854</ele>
        <time>2012-05-01T16:08:08Z</time>
      </trkpt>
      <trkpt lat="47.9306" lon="2.14051">
        <ele>97.2304688</ele>
        <time>2012-05-01T16:08:17Z</time>
      </trkpt>
      <trkpt lat="47.93055" lon="2.14045">
        <ele>95.7884521</ele>
        <time>2012-05-01T16:08:22Z</time>
      </trkpt>
      <trkpt lat="47.93045" lon="2.14039">
        <ele>92.4239502</ele>
        <time>2012-05-01T16:08:31Z</time>
      </trkpt>
      <trkpt lat="47.9304" lon="2.14036">
        <ele>90.5013428</ele>
        <time>2012-05-01T16:08:37Z</time>
      </trkpt>
      <trkpt lat="47.93035" lon="2.14031">
        <ele>90.0206299</ele>
        <time>2012-05-01T16:08:42Z</time>
      </trkpt>
      <trkpt lat="47.93026" lon="2.14023">
        <ele>90.9819336</ele>
        <time>2012-05-01T16:08:51Z</time>
      </trkpt>
      <trkpt lat="47.93021" lon="2.14017">
        <ele>91.4625244</ele>
        <time>2012-05-01T16:09:06Z</time>
      </trkpt>
      <trkpt lat="47.93008" lon="2.14005">
        <ele>90.5013428</ele>
        <time>2012-05-01T16:09:20Z</time>
      </trkpt>
      <trkpt lat="47.92999" lon="2.13994">
        <ele>93.3851318</ele>
        <time>2012-05-01T16:09:32Z</time>
      </trkpt>
      <trkpt lat="47.92971" lon="2.13963">
        <ele>98.6724854</ele>
        <time>2012-05-01T16:09:57Z</time>
      </trkpt>
      <trkpt lat="47.92963" lon="2.13956">
        <ele>100.5950928</ele>
        <time>2012-05-01T16:10:05Z</time>
      </trkpt>
      <trkpt lat="47.92951" lon="2.1396">
        <ele>100.114502</ele>
        <time>2012-05-01T16:10:20Z</time>
      </trkpt>
      <trkpt lat="47.92943" lon="2.13965">
        <ele>98.6724854</ele>
        <time>2012-05-01T16:10:30Z</time>
      </trkpt>
      <trkpt lat="47.92938" lon="2.13962">
        <ele>95.7884521</ele>
        <time>2012-05-01T16:10:59Z</time>
      </trkpt>
      <trkpt lat="47.92941" lon="2.13938">
        <ele>95.7884521</ele>
        <time>2012-05-01T16:11:11Z</time>
      </trkpt>
      <trkpt lat="47.92946" lon="2.13922">
        <ele>97.7111816</ele>
        <time>2012-05-01T16:11:21Z</time>
      </trkpt>
      <trkpt lat="47.92946" lon="2.13918">
        <ele>98.6724854</ele>
        <time>2012-05-01T16:11:32Z</time>
      </trkpt>
      <trkpt lat="47.92945" lon="2.13915">
        <ele>99.1530762</ele>
        <time>2012-05-01T16:11:34Z</time>
      </trkpt>
      <trkpt lat="47.92944" lon="2.13899">
        <ele>100.5950928</ele>
        <time>2012-05-01T16:11:43Z</time>
      </trkpt>
      <trkpt lat="47.92941" lon="2.13882">
        <ele>99.1530762</ele>
        <time>2012-05-01T16:11:55Z</time>
      </trkpt>
      <trkpt lat="47.9294" lon="2.13881">
        <ele>98.6724854</ele>
        <time>2012-05-01T16:11:56Z</time>
      </trkpt>
      <trkpt lat="47.92931" lon="2.13877">
        <ele>91.9432373</ele>
        <time>2012-05-01T16:12:17Z</time>
      </trkpt>
      <trkpt lat="47.92931" lon="2.13877">
        <ele>91.9432373</ele>
        <time>2012-05-01T16:12:27Z</time>
      </trkpt>
    </trkseg>
  </trk>
</gpx>